[[{"header":{"parameterUnit":"m.s-1","parameterCategory":1,"la1":30.6,"la2":29.2853,"lo1":-89.7004,"lo2":-87.6739,"dy":0.0162,"dx":0.0183,"nx":112,"ny":82,"refTime":"2024-07-16T12:00:00:Z","depth":0,"parameterNumber":2,"parameterNumberName":"U-component_of_WINDS"},"data":[0.0,0.0,0.0,0.0,0.0,0.0,0.0,0.0,0.0,0.0,0.0,0.0,0.0,0.0,0.0,0.0,0.0,0.0,0.0,0.0,0.0,0.0,0.0,0.0,0.0,0.0,0.0,0.0,0.0,0.0,0.0,0.0,0.0,0.0,0.0,0.0,0.0,0.0,0.0,0.0,0.0,0.0,0.0,0.0,0.0,0.0,0.0,0.0,0.0,0.0,0.0,0.0,0.0,0.0,0.0,0.0,0.0,0.0,0.0,0.0,0.0,0.0,0.0,0.0,0.0,0.0,0.0,0.0,0.0,0.0,0.0,0.0,0.0,0.0,0.0,0.0,0.0,0.0,0.0,0.0,0.0,0.0,0.0,0.0,0.0,0.0,0.0,0.0,0.0,0.0,0.0,-3.6707,-4.091,-4.3515,-4.3515,-4.2653,-3.9735,-3.4156,0.0,0.0,0.0,0.0,0.0,0.0,0.0,0.0,0.0,0.0,0.0,0.0,0.0,0.0,0.0,0.0,0.0,0.0,0.0,0.0,0.0,0.0,0.0,0.0,0.0,0.0,0.0,0.0,0.0,0.0,0.0,0.0,0.0,0.0,0.0,0.0,0.0,0.0,0.0,0.0,0.0,0.0,0.0,0.0,0.0,0.0,0.0,0.0,0.0,0.0,0.0,0.0,0.0,0.0,0.0,0.0,0.0,0.0,0.0,0.0,0.0,0.0,0.0,0.0,0.0,0.0,0.0,0.0,0.0,0.0,0.0,0.0,0.0,0.0,0.0,0.0,0.0,0.0,0.0,0.0,0.0,0.0,0.0,0.0,0.0,0.0,0.0,0.0,0.0,0.0,0.0,0.0,0.0,0.0,0.0,0.0,0.0,0.0,0.0,0.0,0.0,0.0,0.0,0.0,-3.3844,-3.9738,-4.2249,-4.3515,-4.3515,-4.2139,-3.9132,-3.4119,0.0,0.0,0.0,0.0,0.0,0.0,0.0,0.0,0.0,0.0,0.0,0.0,0.0,0.0,0.0,0.0,0.0,0.0,0.0,0.0,0.0,0.0,0.0,0.0,0.0,0.0,0.0,0.0,0.0,0.0,0.0,0.0,0.0,0.0,0.0,0.0,0.0,0.0,0.0,0.0,0.0,0.0,0.0,0.0,0.0,0.0,0.0,0.0,0.0,0.0,0.0,0.0,0.0,0.0,0.0,0.0,0.0,0.0,0.0,0.0,0.0,0.0,0.0,0.0,0.0,0.0,0.0,0.0,0.0,0.0,0.0,0.0,0.0,0.0,0.0,0.0,0.0,0.0,0.0,0.0,0.0,0.0,0.0,0.0,0.0,0.0,0.0,0.0,0.0,0.0,0.0,0.0,0.0,0.0,0.0,0.0,0.0,0.0,0.0,0.0,0.0,0.0,0.0,-3.2852,-3.6028,-4.1203,-4.28,-4.3331,-4.2892,-4.1368,-3.8358,-3.3445,-3.0815,0.0,0.0,0.0,0.0,0.0,0.0,0.0,0.0,0.0,0.0,0.0,0.0,0.0,0.0,0.0,0.0,0.0,0.0,0.0,0.0,0.0,0.0,0.0,0.0,0.0,0.0,0.0,0.0,0.0,0.0,0.0,0.0,0.0,0.0,0.0,0.0,0.0,0.0,0.0,0.0,0.0,0.0,0.0,0.0,0.0,0.0,0.0,0.0,0.0,0.0,0.0,0.0,0.0,0.0,0.0,0.0,0.0,0.0,0.0,0.0,0.0,0.0,0.0,0.0,0.0,0.0,0.0,0.0,0.0,0.0,0.0,0.0,0.0,0.0,0.0,0.0,0.0,0.0,0.0,0.0,0.0,0.0,0.0,0.0,0.0,0.0,0.0,0.0,0.0,0.0,0.0,0.0,0.0,0.0,0.0,0.0,0.0,0.0,0.0,0.0,0.0,0.0,-3.5752,-3.8193,-4.1662,-4.291,-4.3167,-4.2378,-4.0469,-3.7404,-3.2894,-2.9219,0.0,0.0,0.0,0.0,0.0,0.0,0.0,0.0,0.0,0.0,0.0,0.0,0.0,0.0,0.0,0.0,0.0,0.0,0.0,0.0,0.0,0.0,0.0,0.0,0.0,0.0,0.0,0.0,0.0,0.0,0.0,0.0,0.0,0.0,0.0,0.0,0.0,0.0,0.0,0.0,0.0,0.0,0.0,0.0,0.0,0.0,0.0,0.0,0.0,0.0,0.0,0.0,0.0,0.0,0.0,0.0,0.0,0.0,0.0,0.0,0.0,0.0,0.0,0.0,0.0,0.0,0.0,0.0,0.0,0.0,0.0,0.0,0.0,0.0,0.0,0.0,0.0,0.0,0.0,0.0,0.0,0.0,0.0,0.0,0.0,0.0,0.0,0.0,0.0,0.0,0.0,0.0,0.0,0.0,0.0,0.0,0.0,0.0,0.0,0.0,0.0,0.0,-3.5679,-3.9221,-4.0985,-4.2561,-4.3167,-4.2378,-3.9457,-3.6225,-3.2803,-2.8172,0.0,0.0,0.0,0.0,0.0,0.0,0.0,0.0,0.0,0.0,0.0,0.0,0.0,0.0,0.0,0.0,0.0,0.0,0.0,0.0,0.0,0.0,0.0,0.0,0.0,0.0,0.0,0.0,0.0,0.0,0.0,0.0,0.0,0.0,0.0,0.0,0.0,0.0,0.0,0.0,0.0,0.0,0.0,0.0,0.0,0.0,0.0,0.0,0.0,0.0,0.0,0.0,0.0,0.0,0.0,0.0,0.0,0.0,0.0,0.0,0.0,0.0,0.0,0.0,0.0,0.0,0.0,0.0,0.0,0.0,0.0,0.0,0.0,0.0,0.0,0.0,0.0,0.0,0.0,0.0,0.0,0.0,0.0,0.0,0.0,0.0,0.0,0.0,0.0,0.0,0.0,0.0,0.0,0.0,0.0,0.0,0.0,0.0,0.0,0.0,0.0,0.0,-3.4321,-3.7408,0.0,-4.135,-4.168,-4.0873,-3.8319,-3.5349,-3.2063,0.0,0.0,0.0,0.0,0.0,0.0,0.0,0.0,0.0,0.0,0.0,0.0,0.0,0.0,0.0,0.0,0.0,0.0,0.0,0.0,0.0,0.0,0.0,0.0,0.0,0.0,0.0,0.0,0.0,0.0,0.0,0.0,0.0,0.0,0.0,0.0,0.0,0.0,0.0,0.0,0.0,0.0,0.0,0.0,0.0,0.0,0.0,0.0,0.0,0.0,0.0,0.0,0.0,0.0,0.0,0.0,0.0,0.0,0.0,0.0,0.0,0.0,0.0,0.0,0.0,0.0,0.0,0.0,0.0,0.0,0.0,0.0,0.0,0.0,0.0,0.0,0.0,0.0,0.0,0.0,0.0,0.0,0.0,0.0,0.0,0.0,0.0,0.0,0.0,0.0,0.0,0.0,0.0,0.0,0.0,0.0,0.0,0.0,0.0,0.0,0.0,0.0,-3.0846,-3.3972,-3.6853,0.0,-4.0616,-4.0655,-3.9606,-3.7055,-3.4073,-3.0729,0.0,0.0,0.0,0.0,0.0,0.0,0.0,0.0,0.0,0.0,0.0,0.0,0.0,0.0,0.0,0.0,0.0,0.0,0.0,0.0,0.0,0.0,0.0,0.0,0.0,0.0,0.0,0.0,0.0,0.0,0.0,0.0,0.0,0.0,0.0,0.0,0.0,0.0,0.0,0.0,0.0,0.0,0.0,0.0,0.0,0.0,0.0,0.0,0.0,0.0,0.0,0.0,0.0,0.0,0.0,0.0,0.0,0.0,0.0,0.0,0.0,0.0,0.0,0.0,0.0,0.0,0.0,0.0,0.0,0.0,0.0,0.0,0.0,0.0,0.0,0.0,0.0,0.0,0.0,0.0,0.0,0.0,0.0,0.0,0.0,0.0,0.0,0.0,0.0,0.0,0.0,0.0,0.0,0.0,0.0,0.0,0.0,0.0,0.0,0.0,0.0,0.0,-3.0974,-3.4959,-3.8098,-3.9698,-4.0598,-4.0416,-3.8836,-3.5679,-3.2321,0.0,0.0,0.0,0.0,0.0,0.0,0.0,0.0,0.0,0.0,0.0,0.0,0.0,0.0,0.0,0.0,0.0,0.0,0.0,0.0,0.0,0.0,0.0,0.0,0.0,0.0,0.0,0.0,0.0,0.0,0.0,0.0,0.0,0.0,0.0,0.0,0.0,0.0,0.0,0.0,0.0,0.0,0.0,0.0,0.0,0.0,0.0,0.0,0.0,0.0,0.0,0.0,0.0,0.0,0.0,0.0,0.0,0.0,0.0,0.0,0.0,0.0,0.0,0.0,0.0,0.0,0.0,0.0,0.0,0.0,0.0,0.0,0.0,0.0,0.0,0.0,0.0,0.0,0.0,0.0,0.0,0.0,0.0,0.0,0.0,0.0,0.0,0.0,0.0,0.0,0.0,0.0,0.0,0.0,0.0,0.0,0.0,0.0,0.0,0.0,0.0,0.0,0.0,0.0,-3.4119,-3.7052,-3.8098,-3.8927,-3.9001,-3.7951,-3.5349,-3.2643,-2.9893,0.0,0.0,0.0,0.0,0.0,0.0,0.0,0.0,0.0,0.0,0.0,0.0,0.0,0.0,0.0,0.0,0.0,0.0,0.0,0.0,0.0,0.0,0.0,0.0,0.0,0.0,0.0,0.0,0.0,0.0,0.0,0.0,0.0,0.0,0.0,0.0,0.0,0.0,0.0,0.0,0.0,0.0,0.0,0.0,0.0,0.0,0.0,0.0,0.0,0.0,0.0,0.0,0.0,0.0,0.0,0.0,0.0,0.0,0.0,0.0,0.0,0.0,0.0,0.0,0.0,0.0,0.0,0.0,0.0,0.0,0.0,0.0,0.0,0.0,0.0,0.0,0.0,0.0,0.0,0.0,0.0,0.0,0.0,0.0,0.0,0.0,0.0,0.0,0.0,0.0,0.0,0.0,0.0,0.0,0.0,0.0,0.0,0.0,0.0,0.0,0.0,0.0,-2.9861,-3.3476,-3.6101,-3.6942,-3.7734,-3.7753,-3.6597,-3.4559,-3.2117,-2.9265,0.0,0.0,0.0,0.0,0.0,0.0,0.0,0.0,0.0,0.0,0.0,0.0,0.0,0.0,0.0,0.0,0.0,0.0,0.0,0.0,0.0,0.0,0.0,0.0,0.0,0.0,0.0,0.0,0.0,0.0,0.0,0.0,0.0,0.0,0.0,0.0,0.0,0.0,0.0,0.0,0.0,0.0,0.0,0.0,0.0,0.0,0.0,0.0,0.0,0.0,0.0,0.0,0.0,0.0,0.0,0.0,0.0,0.0,0.0,0.0,0.0,0.0,0.0,0.0,0.0,0.0,0.0,0.0,0.0,0.0,0.0,0.0,0.0,0.0,0.0,0.0,0.0,0.0,0.0,0.0,0.0,0.0,0.0,0.0,0.0,0.0,0.0,0.0,0.0,0.0,0.0,0.0,0.0,0.0,0.0,0.0,0.0,0.0,0.0,0.0,0.0,0.0,-2.9696,-3.2968,-3.5298,-3.6083,-3.6905,-3.6743,-3.5151,-3.3537,-3.1186,-2.787,0.0,0.0,0.0,0.0,0.0,0.0,0.0,0.0,0.0,0.0,0.0,0.0,0.0,0.0,0.0,0.0,0.0,0.0,0.0,0.0,0.0,0.0,0.0,0.0,0.0,0.0,0.0,0.0,0.0,0.0,0.0,0.0,0.0,0.0,0.0,0.0,0.0,0.0,0.0,0.0,0.0,0.0,0.0,0.0,0.0,0.0,0.0,0.0,0.0,0.0,0.0,0.0,0.0,0.0,0.0,0.0,0.0,0.0,0.0,0.0,-3.2526,0.0,0.0,0.0,0.0,0.0,0.0,0.0,0.0,0.0,0.0,0.0,0.0,0.0,0.0,0.0,0.0,0.0,0.0,0.0,0.0,0.0,0.0,0.0,0.0,0.0,0.0,0.0,0.0,0.0,0.0,0.0,0.0,0.0,0.0,0.0,0.0,0.0,0.0,0.0,0.0,0.0,-2.9005,-3.2619,-3.5078,-3.5261,-3.6046,-3.6138,-3.5096,-3.3537,-3.1744,-2.9728,0.0,0.0,0.0,0.0,0.0,0.0,0.0,0.0,0.0,0.0,0.0,0.0,0.0,0.0,0.0,0.0,0.0,0.0,0.0,0.0,0.0,0.0,0.0,0.0,0.0,0.0,0.0,0.0,0.0,0.0,0.0,0.0,0.0,0.0,0.0,0.0,0.0,0.0,0.0,0.0,0.0,0.0,0.0,0.0,0.0,0.0,0.0,0.0,0.0,0.0,0.0,0.0,0.0,0.0,0.0,0.0,0.0,0.0,0.0,0.0,0.0,-3.464,0.0,0.0,0.0,0.0,0.0,0.0,0.0,0.0,0.0,0.0,0.0,0.0,0.0,0.0,0.0,0.0,0.0,0.0,0.0,0.0,0.0,0.0,0.0,0.0,0.0,0.0,0.0,0.0,0.0,0.0,0.0,0.0,0.0,0.0,0.0,0.0,0.0,0.0,0.0,0.0,-2.8785,-3.2179,-3.4417,-3.4417,-3.5169,-3.5334,-3.4491,-3.2963,-3.1494,-3.0283,-2.6598,0.0,0.0,0.0,0.0,0.0,0.0,0.0,0.0,0.0,0.0,0.0,0.0,0.0,0.0,0.0,0.0,0.0,0.0,0.0,0.0,0.0,0.0,0.0,0.0,0.0,0.0,0.0,0.0,0.0,0.0,0.0,0.0,0.0,0.0,0.0,0.0,0.0,0.0,0.0,0.0,0.0,0.0,0.0,0.0,0.0,0.0,0.0,0.0,0.0,0.0,0.0,0.0,0.0,0.0,-4.243,-4.3131,-4.3132,-4.3094,-4.287,-3.982,-3.8988,-3.9488,0.0,0.0,0.0,0.0,0.0,0.0,0.0,0.0,0.0,0.0,0.0,0.0,0.0,0.0,0.0,0.0,0.0,0.0,0.0,0.0,0.0,0.0,0.0,0.0,0.0,-3.349,-3.3311,0.0,0.0,0.0,0.0,0.0,0.0,0.0,0.0,0.0,0.0,0.0,0.0,-2.9005,-3.1898,-3.3807,-3.3807,-3.438,-3.4509,-3.3862,-3.232,-3.1109,-3.0448,-2.7504,-2.4958,0.0,0.0,0.0,0.0,0.0,0.0,0.0,0.0,0.0,0.0,0.0,0.0,0.0,0.0,0.0,0.0,0.0,0.0,0.0,0.0,0.0,0.0,0.0,0.0,0.0,0.0,0.0,0.0,0.0,0.0,0.0,0.0,-2.9529,-3.1159,0.0,0.0,0.0,0.0,0.0,0.0,0.0,0.0,0.0,0.0,0.0,0.0,0.0,0.0,-4.2239,-4.3701,-4.4594,-4.494,-4.6659,-4.7539,-4.7621,-4.7121,-4.6824,-4.6628,-4.5411,0.0,-4.1516,-3.8675,0.0,0.0,0.0,0.0,0.0,0.0,0.0,0.0,0.0,0.0,0.0,0.0,0.0,0.0,0.0,0.0,0.0,0.0,0.0,0.0,0.0,0.0,-3.7551,-3.6868,-3.6868,-3.6648,0.0,-3.177,-2.8712,-2.829,0.0,0.0,0.0,0.0,0.0,0.0,0.0,0.0,-2.9843,-3.2247,-3.3807,-3.3807,-3.3899,-3.3917,-3.3807,-3.232,-3.136,-3.125,-2.8342,-2.6504,-2.6215,-2.307,0.0,0.0,0.0,0.0,0.0,0.0,0.0,0.0,0.0,0.0,0.0,0.0,0.0,0.0,0.0,0.0,0.0,0.0,0.0,0.0,0.0,0.0,0.0,0.0,0.0,0.0,0.0,0.0,0.0,-2.9336,-3.1835,-3.2081,-3.349,-3.3834,0.0,0.0,0.0,0.0,0.0,0.0,0.0,0.0,0.0,-4.2766,-4.3662,-4.4682,-4.5893,-4.6644,-4.724,-4.7749,-4.8681,-4.9149,-4.9226,-4.9033,-4.8698,-4.8195,-4.7316,-4.6276,-4.4932,-4.173,-3.9869,-3.8741,0.0,0.0,0.0,0.0,0.0,-3.6622,-3.7584,-3.7911,0.0,0.0,0.0,0.0,0.0,0.0,0.0,0.0,0.0,0.0,0.0,0.0,0.0,-3.8046,-3.8175,-3.8083,-3.7716,-3.5605,-3.3238,0.0,-3.054,-2.9157,-2.608,0.0,0.0,0.0,0.0,0.0,-3.0779,-3.2577,-3.3807,-3.3807,-3.3807,-3.3623,-3.3151,-3.2063,-3.1213,-3.0742,-2.8822,-2.742,-2.6823,-2.4621,-2.2521,0.0,0.0,0.0,0.0,0.0,0.0,0.0,0.0,0.0,0.0,0.0,0.0,0.0,0.0,0.0,0.0,0.0,0.0,0.0,0.0,0.0,0.0,0.0,0.0,0.0,0.0,0.0,0.0,-3.2051,-3.4082,-3.4119,-3.6581,-3.7397,0.0,0.0,0.0,0.0,0.0,0.0,-4.0823,-4.2316,-4.4162,-4.6499,-4.7201,-4.7932,-4.8759,-4.8779,-4.9086,-4.9731,-4.9869,-4.9989,-5.0084,-4.9995,-4.9669,-4.9137,-4.8258,-4.7772,-4.7343,-4.4148,-4.24,-4.1538,-3.9165,-3.8684,-3.9306,-3.9094,-3.956,-4.045,-4.17,-4.2143,-4.1854,-4.0162,0.0,-3.7808,-3.4974,0.0,0.0,0.0,0.0,-3.4619,-3.6688,0.0,-3.7221,-3.8414,-3.8707,-3.8707,-3.8707,-3.823,-3.7033,0.0,-3.399,-3.2852,-2.8833,0.0,0.0,0.0,0.0,-3.147,-3.1678,-3.2926,-3.3807,-3.3807,-3.3807,-3.3476,-3.2674,-3.1861,-3.1054,-3.0246,-2.9081,-2.7923,-2.6836,-2.5719,-2.3995,-2.1625,0.0,0.0,0.0,0.0,0.0,0.0,0.0,0.0,0.0,0.0,0.0,0.0,0.0,0.0,0.0,0.0,0.0,0.0,0.0,0.0,0.0,0.0,0.0,0.0,0.0,0.0,0.0,0.0,0.0,-3.905,-4.0326,0.0,0.0,0.0,0.0,-4.023,-4.1851,-4.3517,-4.519,-4.6144,-4.7432,-4.9144,-4.924,-4.9683,-5.0558,-5.0577,-5.0596,-5.0635,-5.0769,-5.0838,-5.0814,-5.0137,-4.9855,-4.9898,-4.9018,-4.8244,-4.7441,-4.5547,-4.4725,-4.4502,-4.2585,-4.2296,-4.2853,-4.2084,-4.2277,-4.2912,-4.3008,-4.3028,-4.3143,-4.3778,-4.2213,-3.9976,-3.9483,-3.8009,0.0,0.0,-3.8395,-3.8597,-3.9478,-3.9148,-3.8597,-3.8689,-3.8707,-3.8707,-3.8707,-3.867,-3.8358,0.0,-3.6009,-3.438,-3.2601,0.0,-3.098,-3.0081,-3.0779,-3.1678,-3.2436,-3.3275,-3.3807,-3.3807,-3.3807,-3.3476,-3.2674,-3.1861,-3.1054,-3.0246,-2.9081,-2.7923,-2.6836,-2.5719,-2.4313,-2.2665,-2.1148,0.0,0.0,0.0,0.0,0.0,0.0,0.0,0.0,0.0,0.0,0.0,0.0,0.0,0.0,0.0,0.0,0.0,0.0,0.0,0.0,0.0,0.0,0.0,0.0,0.0,0.0,0.0,0.0,-4.1207,-4.3241,0.0,0.0,-4.3891,-4.4574,-4.4776,-4.5742,-4.6817,-4.7971,-4.8336,-4.9279,-5.0971,-5.101,-5.1433,-5.2299,-5.176,-5.1471,-5.1471,-5.1009,-5.0822,-5.0889,-5.0623,-5.0584,-5.0669,-4.9784,-4.8931,-4.8089,-4.6977,-4.6186,-4.5601,-4.4938,-4.4779,-4.4905,-4.4618,-4.4657,-4.4836,-4.4836,-4.4785,-4.4662,-4.4393,-4.3137,-4.1714,-4.1592,-4.0939,-4.0309,-4.0757,-4.0886,-4.0795,-4.0341,-4.001,-3.9604,-3.886,-3.8707,-3.8707,-3.8707,-3.8707,-3.8615,-3.8322,-3.7367,-3.5917,-3.3752,-3.3555,-3.3091,-3.1237,-3.21,-3.3054,-3.3348,-3.3623,-3.3807,-3.3807,-3.3807,-3.3256,-3.1935,-3.1549,-3.0607,-2.876,-2.8253,-2.7405,-2.6025,-2.5308,-2.4501,-2.3492,-2.2353,-2.0807,0.0,0.0,0.0,0.0,0.0,0.0,0.0,0.0,0.0,0.0,0.0,0.0,0.0,0.0,0.0,0.0,0.0,0.0,0.0,0.0,0.0,0.0,0.0,0.0,0.0,0.0,-4.1699,-4.3105,-4.5586,-4.6794,-4.5845,-4.7197,-4.8093,-4.794,-4.8628,-4.9409,-5.0202,-5.024,-5.0894,-5.2288,-5.2327,-5.2615,-5.3203,-5.2635,-5.2192,-5.1885,-5.1356,-5.0999,-5.0827,-5.0827,-5.0916,-5.1,-5.0412,-4.9551,-4.8457,-4.7976,-4.7086,-4.6042,-4.6122,-4.6082,-4.5974,-4.5974,-4.5905,-4.5838,-4.5803,-4.5715,-4.5498,-4.494,-4.4228,-4.3579,-4.3489,-4.3292,-4.309,-4.2982,-4.273,-4.2266,-4.1233,-4.0768,-4.0304,-3.925,-3.9013,-3.897,-3.8859,-3.8829,-3.8818,-3.8719,-3.8267,-3.7309,-3.5367,-3.5275,-3.4802,-3.2908,-3.3293,-3.3807,-3.3807,-3.3807,-3.3807,-3.3807,-3.3807,-3.3146,-3.1544,-3.1146,-3.0191,-2.8319,-2.7695,-2.6834,-2.559,-2.5117,-2.4516,-2.368,-2.2737,-2.1741,-2.0662,0.0,0.0,0.0,0.0,0.0,0.0,0.0,0.0,0.0,0.0,0.0,0.0,0.0,0.0,0.0,0.0,0.0,0.0,0.0,0.0,0.0,0.0,0.0,-3.8769,-4.166,-4.4121,-4.5058,-4.7402,-4.8571,-4.7641,-4.9096,-4.9983,-4.9756,-5.0509,-5.1261,-5.1914,-5.1952,-5.2327,-5.3222,-5.3241,-5.326,-5.328,-5.326,-5.2818,-5.1981,-5.1923,-5.1491,-5.075,-5.0712,-5.0764,-5.0901,-5.0901,-4.997,-4.8497,-4.8482,-4.747,-4.5916,-4.6196,-4.6202,-4.6087,-4.6108,-4.6024,-4.5881,-4.5814,-4.5708,-4.5594,-4.5594,-4.5594,-4.555,-4.5211,-4.5126,-4.5052,-4.472,-4.4027,-4.3177,-4.234,-4.1541,-4.0722,-3.9818,-3.9599,-3.9517,-3.916,-3.9112,-3.9008,-3.8747,-3.8707,-3.8432,-3.7639,-3.6831,-3.6009,-3.5133,-3.4321,0.0,-3.3807,-3.3807,-3.3807,-3.3807,-3.3807,-3.3146,-3.1544,-3.0687,-2.9849,-2.8987,-2.7464,-2.6281,-2.56,-2.5153,-2.4392,-2.3289,-2.2377,-2.1886,-2.1822,0.0,0.0,0.0,0.0,0.0,0.0,0.0,0.0,0.0,0.0,0.0,0.0,0.0,0.0,0.0,0.0,0.0,0.0,0.0,0.0,0.0,0.0,-4.2305,-4.2305,-4.4199,-4.6387,-4.8516,-4.9394,-5.0214,-5.115,-5.1597,-5.2046,-5.259,-5.2698,-5.2791,-5.2987,-5.2907,-5.3241,-5.4126,-5.4145,-5.4414,-5.5011,-5.4434,-5.403,-5.378,-5.25,-5.1769,-5.1548,-5.0971,-5.0731,-5.0748,-5.0748,-4.9781,-4.8226,-4.8308,-4.7352,-4.585,-4.5955,-4.5988,-4.5974,-4.6053,-4.6024,-4.5872,-4.5713,-4.5627,-4.5594,-4.5594,-4.5594,-4.5577,-4.5495,-4.5457,-4.5438,-4.5352,-4.5141,-4.4584,-4.29,-4.2305,-4.17,-4.0008,-3.9599,-3.9517,-3.916,-3.9112,-3.9008,-3.8747,-3.8707,-3.8432,-3.7639,-3.6831,-3.6009,-3.5133,0.0,0.0,-3.3807,-3.3807,-3.3807,-3.3807,-3.3807,-3.3146,-3.1544,-3.1213,-2.9971,0.0,-2.684,-2.614,-2.5134,-2.5205,-2.5121,-2.4793,-2.4534,-2.3757,0.0,0.0,0.0,0.0,0.0,0.0,0.0,0.0,0.0,0.0,0.0,0.0,0.0,0.0,0.0,0.0,0.0,0.0,0.0,0.0,0.0,0.0,-4.2695,-4.5176,-4.6269,-4.7305,-4.8496,-5.0019,-5.0508,-5.123,-5.2578,-5.263,-5.2926,-5.3745,-5.3594,-5.3631,-5.4006,-5.3848,-5.4158,-5.5056,-5.5034,-5.5222,-5.5703,-5.5241,-5.4645,-5.3933,-5.2933,-5.2087,-5.1375,-5.0914,-5.0712,0.0,-5.0712,-4.9913,-4.8615,-4.8334,-4.7445,0.0,0.0,0.0,0.0,0.0,-4.5948,-4.5834,-4.5713,-4.5651,-4.5594,-4.5594,-4.5594,-4.5594,-4.5594,-4.5594,-4.5594,-4.5594,-4.5594,-4.526,-4.3704,-4.3072,-4.2422,-4.0881,-4.0232,-3.9894,-3.9599,-3.9401,-3.9218,-3.8923,0.0,0.0,-3.8065,-3.7055,-3.6138,-3.561,-3.4559,-3.3807,0.0,-3.3807,-3.3807,-3.3807,-3.3807,-3.3275,-3.2008,-3.1274,0.0,0.0,0.0,-2.63,-2.5645,-2.5652,0.0,0.0,0.0,0.0,0.0,0.0,0.0,0.0,-2.346,-2.3154,0.0,0.0,0.0,0.0,0.0,0.0,0.0,0.0,0.0,0.0,0.0,0.0,0.0,0.0,0.0,0.0,-4.5469,-4.7558,-4.9863,-5.0273,-5.0332,-5.0332,-5.0976,-5.1777,-5.2754,-5.2851,-5.32,-5.4051,-5.3989,-5.4247,-5.5015,0.0,0.0,0.0,0.0,-5.5703,-5.5703,-5.5703,-5.4914,-5.3356,-5.326,-5.2375,-5.0827,-5.075,-5.0712,-5.0712,-5.0712,-5.0212,-4.9336,-4.8471,-4.7567,-4.6679,-4.6104,-4.5886,-4.5896,-4.5862,-4.5847,0.0,0.0,0.0,0.0,-4.5594,-4.5594,-4.5594,-4.5594,-4.5594,-4.5594,-4.5594,-4.5594,-4.5383,-4.4412,-4.3643,-4.2854,-4.1873,-4.1066,-4.0433,-4.0158,-3.987,-3.9564,-3.9212,-3.8937,-3.875,-3.875,-3.7397,-3.6303,-3.6303,-3.4871,0.0,-3.3807,-3.3807,-3.3807,-3.3807,0.0,0.0,-3.2674,-3.128,-3.0356,-3.0081,-2.797,-2.6741,-2.6741,-2.6547,-2.6518,-2.673,-2.6914,-2.7666,-2.9005,-2.8789,-2.9209,-3.013,-2.6678,-2.5741,0.0,0.0,0.0,0.0,0.0,0.0,0.0,0.0,0.0,0.0,0.0,0.0,0.0,0.0,0.0,-4.4531,-4.7383,-4.9629,-5.0137,-5.0762,-5.1172,-5.1172,-5.1308,-5.2012,-5.3594,-5.375,-5.4394,-5.5936,-5.5923,-5.5888,-5.5949,-5.5748,0.0,-5.5729,-5.5716,-5.5703,-5.5703,-5.5703,-5.5203,-5.4241,0.0,0.0,-5.1664,-5.0991,-5.0712,-5.0712,-5.0712,-5.0212,-4.9336,-4.8471,-4.7201,-4.5853,-4.5706,-4.572,-4.5815,-4.5703,-4.5718,-4.5776,-4.568,-4.561,-4.5594,-4.5594,-4.5594,-4.5594,-4.5594,-4.5594,0.0,-4.5594,-4.5594,-4.5248,-4.372,-4.322,-4.2701,-4.1131,-4.0631,-4.0433,-4.0158,-4.0061,-3.9901,-3.9576,-3.9244,-3.9022,-3.9022,-3.7511,-3.6303,-3.6303,-3.4871,-3.3807,-3.3807,-3.3807,-3.3807,-3.3807,-3.3807,-3.3476,-3.2674,-3.2307,-3.1317,-2.9354,-2.8191,-2.7567,-2.7567,-2.8134,-2.8171,-2.7585,-2.8833,-2.9335,-2.9005,-2.9945,-3.0331,-3.0183,-2.9112,-2.8596,0.0,0.0,0.0,0.0,0.0,0.0,0.0,0.0,0.0,0.0,0.0,-4.0254,0.0,0.0,-4.6074,-4.7383,-4.9062,-5.0332,-5.0742,-5.1152,-5.1406,-5.1406,-5.1406,-5.207,-5.3828,-5.4004,-5.4726,-5.6465,-5.6483,-5.6374,-5.6309,-5.6039,-5.5866,-5.5788,-5.5738,-5.5703,-5.5703,-5.5703,-5.5068,-5.3837,-5.3414,-5.2529,-5.1298,-5.0875,-5.0712,-5.0712,-5.0712,-5.0462,-4.9952,-4.8644,-4.7105,-4.5594,-4.5594,-4.5643,-4.5685,-4.5618,-4.5643,-4.5685,-4.561,-4.5594,-4.5594,-4.5594,-4.5594,-4.5594,-4.5594,-4.5594,-4.5594,-4.5594,-4.5594,-4.5306,-4.4028,-4.3393,-4.2777,-4.145,-4.0823,-4.0465,-4.033,-4.0186,-4.0042,-3.9891,-3.9587,-3.9339,-3.9339,-3.7885,-3.6599,-3.6342,-3.4871,-3.3807,-3.3807,-3.3807,-3.3807,-3.3807,-3.3807,-3.3642,-3.3238,-3.2821,-3.1904,-3.0301,-2.9457,-2.9182,-2.9567,-2.9604,-2.9604,-2.9597,-3.0393,-3.0797,-3.0803,-3.1438,-3.1731,-3.1693,-3.1253,-3.0526,0.0,0.0,0.0,0.0,0.0,0.0,0.0,0.0,-3.7832,-3.9922,-4.1973,-4.3887,-4.5469,-4.7031,-4.8555,-4.9961,-5.0332,-5.0664,-5.1308,-5.1406,-5.1406,-5.1406,-5.1406,-5.207,-5.3828,-5.4004,-5.4726,-5.6465,-5.651,-5.6419,-5.6368,-5.6102,-5.5928,-5.5857,-5.5759,-5.5703,-5.5703,-5.5703,-5.4934,-5.3453,-5.328,-5.2395,-5.0933,-5.077,-5.0712,-5.0712,-5.0712,-5.0596,-5.0327,-4.8759,-4.7201,-4.5845,-4.5671,-4.5594,-4.5594,-4.5594,-4.5594,-4.5594,-4.5594,-4.5594,-4.5594,-4.5594,-4.5594,-4.5594,-4.5594,-4.5594,-4.5594,-4.5594,-4.5594,-4.5364,-4.4335,-4.3585,-4.2835,-4.1797,-4.1008,-4.0496,-4.0496,-4.033,-4.0177,-4.0177,-3.9922,-3.9709,-3.9709,-3.838,-3.7129,-3.6491,-3.4944,-3.3868,-3.382,-3.3807,-3.3807,-3.3807,-3.3807,-3.3807,-3.3807,-3.3073,-3.232,-3.1659,-3.087,-3.0723,-3.1378,-3.0779,-3.0742,-3.1397,-3.1562,-3.1953,-3.2601,-3.2748,-3.2958,-3.3199,-3.2809,-3.1846,-3.0273,-3.1758,-3.3887,-3.709,-3.6855,-3.7441,0.0,0.0,-4.2617,-4.5918,-4.6816,-4.7305,-4.8281,-4.9258,-4.9961,-5.0176,-5.0801,-5.1308,-5.1387,-5.1406,-5.1406,-5.1406,-5.1406,-5.207,-5.3828,-5.4004,-5.4726,-5.6465,-5.6582,-5.6463,-5.6247,-5.6186,-5.6029,-5.5728,-5.5705,-5.5703,-5.5703,-5.5703,-5.5241,-5.4357,-5.3568,-5.2702,-5.1731,-5.1029,-5.0712,-5.0712,-5.0712,-5.0269,-4.9471,-4.8509,-4.7567,-4.6682,-4.5893,-4.5594,-4.5594,-4.5594,-4.5594,-4.5594,-4.5594,-4.5594,-4.5594,-4.5594,-4.5594,-4.5594,-4.5594,-4.5594,-4.5594,-4.5594,-4.5594,-4.5229,-4.3643,-4.3162,-4.2681,-4.1035,-4.0573,-4.0496,-4.0496,-4.0481,-4.0457,-4.0457,-4.0232,-4.0032,-4.0032,-3.905,-3.7886,-3.6833,-3.5231,-3.408,-3.3829,-3.3807,-3.3807,-3.3807,-3.3807,-3.3807,-3.3807,-3.3073,-3.2564,-3.2472,-3.1715,-3.1323,-3.1397,-3.1323,-3.1323,-3.1397,-3.21,-3.2509,-3.2601,-3.333,-3.3519,-3.3199,-3.3154,-3.2579,-3.4609,0.0,0.0,0.0,-4.0684,-4.1855,-4.4238,-4.4336,-4.4473,-4.6445,-4.7246,-4.7871,-4.873,-4.9609,-5.0351,0.0,-5.1172,-5.1406,-5.1406,-5.0996,-5.0703,-5.0703,-5.0703,-5.1367,-5.3086,-5.3691,-5.4512,-5.5742,-5.6308,-5.6486,-5.6207,-5.6191,-5.6044,-5.5705,-5.5703,-5.5703,-5.5703,-5.5703,-5.5299,-5.4491,-5.4126,-5.3241,-5.1885,-5.1548,-5.1144,-5.0712,-5.0712,-5.0212,-4.9336,-4.8471,-4.7625,-4.6817,-4.5932,-4.5594,-4.5594,-4.5594,-4.5594,-4.5594,-4.5594,-4.5594,-4.5594,-4.5594,-4.5594,-4.5594,-4.5594,-4.5594,-4.5594,-4.5594,-4.5229,-4.4566,-4.3393,-4.272,-4.2027,-4.0785,-4.0496,-4.0496,-4.0496,-4.0496,-4.0496,-4.0496,-4.0406,-4.0339,-4.0339,-3.9552,-3.8632,-3.7811,-3.6126,-3.468,-3.3897,-3.3807,-3.3807,-3.3807,-3.3807,-3.3807,-3.3807,-3.3495,-3.3311,-3.3311,-3.254,-3.2302,-3.2779,-3.2357,-3.232,-3.2779,-3.3128,-3.3311,-3.3311,-3.3642,-3.3707,-3.3536,-3.3302,-3.2999,-3.7402,0.0,0.0,-4.1621,-4.3457,-4.4902,-4.4512,-4.4902,-4.5605,-4.6484,-4.7168,-4.7871,-4.873,-4.9414,0.0,-5.0937,-5.1074,-5.1152,-5.1367,-5.0703,-5.0273,-5.0508,-5.0332,-5.0762,-5.2207,-5.3125,-5.4101,-5.5215,-5.5879,-5.6232,-5.6207,-5.6191,-5.6044,-5.5705,-5.5703,-5.5703,-5.5703,-5.5703,-5.5415,-5.4818,-5.4357,-5.3491,-5.2231,-5.1779,-5.1241,-5.0712,-5.0712,-5.0346,-4.9683,-4.8817,-4.7971,-4.7163,-4.6297,-4.5806,-4.5594,-4.5594,-4.5594,-4.5594,-4.5594,-4.5594,-4.5594,-4.5594,-4.5594,-4.5594,-4.5594,-4.5594,-4.5594,-4.5594,-4.5152,-4.4412,-4.3374,-4.2624,-4.1873,-4.0766,-4.0496,-4.0496,-4.0496,-4.0496,-4.0496,-4.0496,-4.0496,-4.0496,-4.0496,-4.0015,-3.9377,-3.8655,-3.7136,-3.5617,-3.431,-3.3935,-3.3807,-3.3807,-3.3807,-3.3807,-3.3807,-3.3807,-3.3807,-3.3807,-3.3256,-3.3201,-3.377,-3.3238,-3.322,-3.3788,-3.3807,-3.3807,-3.3807,-3.3807,-3.3807,-3.3775,-3.3508,-3.3302,0.0,0.0,-4.1562,-4.3203,-4.4316,-4.5215,-4.6035,-4.623,-4.6504,-4.7383,-4.7578,-4.7871,-4.873,-4.8926,-4.9219,-5.0098,-5.0234,-5.0508,-5.1289,-5.0703,-5.0488,-5.1269,-5.0664,-5.0527,0.0,-5.2226,-5.3457,-5.5176,-5.5312,-5.5586,-5.6168,-5.6191,-5.6044,-5.5705,-5.5703,-5.5703,-5.5703,-5.5703,-5.5684,-5.5645,-5.403,-5.3222,-5.3106,-5.1471,-5.0731,-5.0712,-5.0712,-5.0693,-5.0596,-4.9721,-4.8856,-4.799,-4.7182,-4.6336,-4.5594,-4.5594,-4.5594,-4.5594,-4.5594,-4.5594,-4.5594,-4.5594,-4.5594,-4.5594,-4.5594,-4.5594,-4.5594,-4.5594,-4.5575,-4.519,-4.3528,-4.3085,-4.2624,-4.092,-4.0496,-4.0496,-4.0496,-4.0496,-4.0496,-4.0496,-4.0496,-4.0496,-4.0496,-4.0477,-4.0106,-3.9049,-3.8117,-3.6914,-3.5178,-3.427,-3.3807,-3.3807,-3.3807,-3.3807,-3.3807,-3.3807,-3.3807,-3.3807,-3.377,-3.377,-3.3807,-3.377,-3.377,-3.3807,-3.3807,-3.3807,-3.3807,-3.3807,-3.3807,-3.3807,-3.3793,-3.3564,0.0,0.0,-4.3125,-4.4277,-4.5215,-4.5937,-4.623,-4.6308,-4.6387,-4.668,-4.6289,-4.6328,-4.7773,-4.7558,-4.7832,-4.9863,-5.0195,-5.0488,-5.1289,-5.1172,-5.0898,-5.0644,-5.084,0.0,0.0,0.0,0.0,-5.4355,-5.4961,-5.5597,-5.6296,-5.6242,-5.6097,-5.5833,-5.5739,-5.5703,-5.5703,-5.5703,-5.5703,-5.5684,-5.401,-5.2895,-5.2288,-5.1202,-5.0712,-5.0712,-5.0712,-5.0712,-5.0635,-4.976,-4.8894,-4.8029,-4.7212,-4.6374,-4.5594,-4.5594,-4.5594,-4.5594,-4.5594,-4.5594,-4.5594,-4.5594,-4.5594,-4.5594,-4.5594,-4.5594,-4.5594,-4.5594,-4.519,-4.447,-4.3393,-4.2662,-4.195,-4.0785,-4.0496,-4.0496,-4.0496,-4.0496,-4.0496,-4.0496,-4.0496,-4.0496,-4.0496,-4.0496,-3.9933,-3.8285,-3.7139,-3.5996,-3.4643,-3.4235,-3.4012,-3.3815,-3.3807,-3.3807,-3.3807,-3.3807,-3.3807,-3.3807,-3.3807,-3.3807,-3.3807,-3.3807,-3.3807,-3.3807,-3.3807,-3.3807,-3.3807,-3.3807,-3.3807,-3.3807,-3.3807,-3.3721,0.0,-4.3262,-4.3984,-4.5176,-4.5898,-4.6308,-4.6308,-4.6308,-4.6211,-4.5898,-4.5137,-4.4883,-4.5996,-4.5488,-4.5859,-4.8808,-4.9531,-5.0234,-5.166,-5.1855,-5.1797,-5.1582,-5.1738,-5.1777,0.0,0.0,0.0,-5.3965,-5.4805,-5.562,-5.6355,-5.6317,-5.6156,-5.5912,-5.5885,-5.5844,-5.5769,-5.5844,-5.5535,-5.4873,-5.3793,-5.2647,-5.1452,-5.0933,-5.0712,-5.0712,-5.0712,-5.0712,-5.0654,-5.0087,-4.9163,-4.8048,-4.7528,-4.6624,-4.5594,-4.5594,-4.5594,-4.5594,-4.5594,-4.5594,-4.5594,-4.5594,-4.5594,-4.5594,-4.5594,-4.5594,-4.5594,-4.5594,-4.521,-4.4509,-4.3393,-4.2681,-4.197,-4.0785,-4.0496,-4.0496,-4.0496,-4.0496,-4.0496,-4.0496,-4.0496,-4.0496,-4.0496,-4.0496,-3.9837,-3.7894,-3.6986,-3.5943,-3.4407,-3.42,-3.4105,-3.3829,-3.3807,-3.3807,-3.3807,-3.3807,-3.3807,-3.3807,-3.3807,-3.3807,-3.3807,-3.3807,-3.3807,-3.3807,-3.3807,-3.3807,-3.3807,-3.3807,-3.3807,-3.3807,-3.3807,-3.3807,-4.332,-4.3808,-4.4238,-4.5898,-4.6308,-4.6308,-4.6308,-4.6269,-4.5996,-4.5117,-4.4219,-4.3555,0.0,0.0,-4.3516,-4.6914,-4.8301,-4.9844,-5.2344,-5.2773,-5.3125,0.0,0.0,0.0,0.0,0.0,0.0,-5.4062,0.0,-5.5621,-5.638,-5.6391,-5.6249,-5.5944,-5.6097,-5.6103,-5.592,-5.6097,-5.5248,-5.3417,-5.341,-5.2467,-5.0712,-5.0693,-5.0712,-5.0712,-5.0712,-5.0712,-5.0712,-5.0654,-4.9625,-4.8105,-4.8048,-4.7048,-4.5594,-4.5594,-4.5594,-4.5594,-4.5594,-4.5594,-4.5594,-4.5594,-4.5594,-4.5594,-4.5594,-4.5594,-4.5594,-4.5594,-4.5594,-4.5229,-4.3585,-4.3124,-4.2662,-4.0977,-4.0535,-4.0496,-4.0496,-4.0496,-4.0496,-4.0496,-4.0496,-4.0496,-4.0496,-4.0496,-3.9857,-3.7952,-3.763,-3.6787,-3.4486,-3.42,-3.4105,-3.3829,-3.3807,-3.3807,-3.3807,-3.3807,-3.3807,-3.3807,-3.3807,-3.3807,-3.3807,-3.3807,-3.3807,-3.3807,-3.3807,-3.3807,-3.3807,-3.3807,-3.3807,-3.3807,-3.3807,-3.3825,-4.4375,-4.5137,-4.5742,-4.6191,-4.6308,-4.6308,-4.6308,-4.5801,-4.5078,-4.4219,-4.2851,-4.1641,-4.0996,0.0,0.0,-4.5312,-4.8027,0.0,-5.2422,-5.3828,0.0,0.0,0.0,-5.4473,-5.4043,-5.459,0.0,0.0,-5.5176,-5.5664,-5.65,-5.6454,-5.6352,-5.6281,-5.6227,-5.6175,-5.6115,-5.6175,-5.5319,-5.3549,-5.3448,-5.25,-5.0844,-5.0758,-5.0712,-5.0712,-5.0712,-5.0712,-5.0654,-4.999,-4.9086,-4.8048,-4.7451,-4.6547,-4.5594,-4.5594,-4.5594,-4.5594,-4.5594,-4.5594,-4.5594,-4.5594,-4.5594,-4.5594,-4.5594,-4.5594,-4.5594,-4.5594,-4.5594,-4.5344,-4.4259,-4.3547,-4.2816,-4.1739,-4.0969,-4.0496,-4.0496,-4.0496,-4.0496,-4.0496,-4.0496,-4.0496,-4.0496,-4.0496,-4.0041,-3.8707,-3.7974,-3.6787,-3.4486,-3.42,-3.4105,-3.3829,-3.3807,-3.3807,-3.3807,-3.3807,-3.3807,-3.3807,-3.3807,-3.3807,-3.3807,-3.3807,-3.3807,-3.3807,-3.3807,-3.3807,-3.3807,-3.3807,-3.3807,-3.3807,-3.3807,-3.4119,-4.5332,-4.5937,-4.6308,-4.6308,-4.6308,-4.5996,-4.4844,-4.4219,-4.3281,-4.1308,-3.9844,0.0,0.0,0.0,0.0,0.0,0.0,0.0,-5.2402,-5.4199,-5.5254,0.0,-5.5566,0.0,-5.5723,-5.5801,-5.6035,0.0,-5.6094,-5.6074,-5.6562,-5.6536,-5.6458,-5.6391,-5.6383,-5.6377,-5.6377,-5.6377,-5.5464,-5.3685,-5.3604,-5.2646,-5.0908,-5.083,-5.0757,-5.0712,0.0,-5.0712,-5.0635,-4.976,-4.8894,-4.8029,-4.7212,-4.6374,-4.5594,-4.5594,-4.5594,-4.5594,-4.5594,-4.5594,-4.5594,-4.5594,-4.5594,-4.5594,-4.5594,-4.5594,-4.5594,-4.5594,-4.5594,-4.5325,-4.4085,-4.3431,-4.2777,-4.1527,-4.0854,-4.0496,-4.0496,-4.0496,-4.0496,-4.0496,-4.0496,-4.0465,-4.0347,-4.033,-3.9889,-3.8596,-3.7721,-3.6569,-3.4785,-3.4346,-3.4105,-3.3829,-3.3807,-3.3807,-3.3807,-3.3807,-3.3807,-3.3807,-3.3807,-3.3807,-3.3807,-3.3807,-3.3807,-3.3807,-3.3807,-3.3807,-3.3807,-3.3807,-3.3807,-3.3807,-3.3807,-3.4045,-4.6094,-4.6308,-4.6308,-4.6308,-4.6211,-4.5469,-4.2969,-4.2226,-4.1133,-3.7812,0.0,0.0,-3.5547,0.0,-3.9238,-4.168,0.0,-4.9531,-5.2305,-5.4101,-5.5488,-5.6484,-5.6601,-5.6894,-5.7656,-5.7031,-5.6914,-5.7676,-5.7031,-5.6601,-5.6601,-5.6601,-5.6558,-5.6426,-5.6538,-5.6601,-5.6601,-5.6484,-5.5543,-5.3813,-5.3689,-5.2684,-5.0925,-5.0903,-5.0839,-5.0712,0.0,0.0,-5.0462,-4.9586,-4.8721,-4.7855,-4.7048,-4.6278,-4.5594,-4.5594,-4.5594,-4.5594,-4.5594,-4.5594,-4.5594,-4.5594,-4.5594,-4.5594,-4.5594,-4.5594,-4.5594,-4.5594,-4.5594,-4.5248,-4.3662,-4.3181,-4.2681,-4.1054,-4.0573,-4.0496,-4.0496,-4.0496,-4.0496,-4.0496,-4.0473,-4.0372,-4.0139,-4.0052,-3.9572,-3.8265,-3.7267,-3.632,-3.5285,-3.4572,-3.4068,-3.3815,-3.3807,-3.3807,-3.3807,-3.3807,-3.3807,-3.3807,-3.3807,-3.3807,-3.3807,-3.3807,-3.3807,-3.3807,-3.3807,-3.3807,-3.3807,-3.3807,-3.3807,-3.3807,-3.3807,-3.3917,-4.6269,-4.6308,-4.6308,-4.6308,-4.5762,-4.4726,-4.2832,-4.1328,0.0,0.0,0.0,-3.4492,-3.3105,-3.543,0.0,-4.0039,0.0,0.0,0.0,0.0,-5.4824,0.0,0.0,0.0,0.0,0.0,0.0,0.0,0.0,0.0,-5.6601,-5.6601,-5.6582,-5.6561,-5.6582,-5.6601,-5.6601,-5.5898,-5.5,-5.3963,-5.312,-5.2132,-5.1053,-5.0959,-5.0839,-5.0712,0.0,0.0,-4.9548,-4.8682,-4.7836,-4.7028,-4.6163,-4.5729,-4.5594,-4.5594,-4.5594,-4.5594,-4.5594,-4.5594,-4.5594,-4.5594,-4.5594,-4.5594,-4.5594,-4.5594,-4.5594,-4.5594,-4.5594,-4.5364,-4.4355,-4.3605,-4.2835,-4.1816,-4.1027,-4.0496,-4.0496,-4.0496,-4.0496,-4.0496,-4.033,-4.0148,-4.011,-3.988,-3.9508,-3.896,-3.764,-3.6556,-3.614,-3.4779,-3.3855,-3.3802,-3.3807,-3.3807,-3.3807,-3.3807,-3.3807,-3.3807,-3.3807,-3.3807,-3.3807,-3.3807,-3.3807,-3.3807,-3.3807,-3.3807,-3.3807,-3.3807,-3.3807,-3.3807,-3.3807,-3.4541,-4.6308,-4.6308,-4.6308,-4.6308,-4.5644,-4.4199,-4.1113,0.0,0.0,0.0,0.0,-3.1934,-3.1582,0.0,0.0,0.0,0.0,0.0,0.0,0.0,0.0,0.0,0.0,0.0,0.0,0.0,0.0,0.0,0.0,0.0,-5.6601,-5.6601,-5.6601,-5.6601,-5.6601,-5.6387,-5.5937,-5.5508,-5.4629,-5.332,-5.2827,-5.2079,-5.1108,-5.102,-5.0901,-5.0712,-5.0712,0.0,-4.9336,-4.8471,-4.7625,-4.6817,-4.5932,-4.5594,-4.5594,-4.5594,-4.5594,-4.5594,-4.5594,-4.5594,-4.5594,-4.5594,-4.5594,-4.5594,-4.5594,-4.5594,-4.5594,-4.5594,-4.5594,-4.5402,-4.4528,-4.3701,-4.2874,-4.2,-4.1123,-4.0496,-4.0496,-4.0496,-4.0465,-4.0321,-4.0186,-3.9992,-3.9634,-3.9457,-3.9231,-3.8937,-3.7877,-3.692,-3.6368,-3.5202,-3.4266,-3.3844,-3.3807,-3.3807,-3.3807,-3.3807,-3.3807,-3.3807,-3.3807,-3.3807,-3.3807,-3.3807,-3.3807,-3.3807,-3.3807,-3.3807,-3.3807,-3.3807,-3.3807,-3.3807,-3.3807,-3.4229,-4.625,-4.6289,-4.6268,-4.6289,-4.5467,-4.3588,-3.951,-3.7088,0.0,0.0,0.0,-2.9805,-3.0508,0.0,0.0,0.0,0.0,0.0,0.0,0.0,0.0,0.0,0.0,0.0,0.0,0.0,0.0,0.0,0.0,0.0,0.0,-5.6601,-5.6601,-5.6601,-5.6601,-5.6172,-5.5312,-5.5117,-5.4238,-5.2695,-5.2519,-5.1968,-5.1089,-5.1089,-5.0946,-5.0693,-5.05,0.0,0.0,-4.8202,-4.7355,-4.6547,-4.5883,-4.5594,-4.5594,-4.5594,-4.5594,-4.5594,-4.5594,-4.5594,-4.5594,-4.5594,-4.5594,-4.5594,-4.5594,-4.5594,-4.5594,-4.5594,-4.5594,-4.5402,-4.4528,-4.3701,-4.2835,-4.1777,-4.0989,-4.0496,-4.0496,-4.0496,-4.0449,-4.0223,-4.0072,-3.9838,-3.9289,-3.9099,-3.8933,-3.8735,-3.8025,-3.7217,-3.6395,-3.5536,-3.4692,-3.3899,-3.3807,-3.3807,-3.3807,-3.3807,-3.3807,-3.3807,-3.3807,-3.3807,-3.3807,-3.3807,-3.3807,-3.3807,-3.3807,-3.3807,-3.3807,-3.3807,-3.3807,-3.3807,-3.3807,-3.399,-4.6074,-4.6202,-4.6147,-4.6268,-4.4909,-4.2666,-3.9286,0.0,0.0,0.0,-2.9604,-2.9629,-2.9707,-3.1191,0.0,0.0,0.0,0.0,0.0,0.0,0.0,0.0,0.0,0.0,0.0,0.0,0.0,0.0,0.0,0.0,0.0,-5.6601,-5.6601,-5.6601,-5.6601,-5.6172,-5.5312,-5.4512,-5.3633,-5.2695,-5.1894,-5.1363,-5.1089,-5.1089,-5.0946,-5.0654,0.0,0.0,0.0,-4.7327,-4.6509,-4.571,-4.5633,-4.5594,-4.5594,-4.5594,-4.5594,-4.5594,-4.5594,-4.5594,-4.5594,-4.5594,-4.5594,-4.5594,-4.5594,-4.5594,-4.5594,-4.5594,-4.5594,-4.5402,-4.4528,-4.3701,-4.2681,-4.1016,-4.0554,-4.0496,-4.0496,-4.0496,-4.0489,-4.0473,-4.0024,-3.9622,-3.9564,-3.91,-3.8735,-3.8707,-3.8025,-3.7217,-3.6395,-3.5536,-3.4692,-3.3899,-3.3807,-3.3807,-3.3807,-3.3807,-3.3807,-3.3807,-3.3807,-3.3807,-3.3807,-3.3807,-3.3807,-3.3807,-3.3807,-3.3807,-3.3807,-3.3807,-3.3807,-3.3807,-3.3807,-3.4614,-4.5273,-4.579,-4.6115,-4.6171,-4.4384,-4.1878,-3.9089,0.0,0.0,-3.0715,-2.953,-2.9141,-3.0195,-3.0957,-3.207,0.0,-3.5312,-3.7617,0.0,0.0,0.0,0.0,0.0,0.0,0.0,0.0,0.0,0.0,0.0,0.0,0.0,-5.6601,-5.6367,-5.582,-5.582,-5.5156,-5.375,-5.3398,-5.2773,-5.1914,-5.1562,-5.1285,-5.1089,-5.1089,-5.0675,-4.9894,0.0,0.0,0.0,-4.7019,-4.6394,-4.5594,-4.5594,-4.5594,-4.5594,-4.5594,-4.5594,-4.5594,-4.5594,-4.5594,-4.5594,-4.5594,-4.5594,-4.5594,-4.5594,-4.5594,-4.5594,-4.5594,-4.5594,-4.5518,-4.5171,-4.4105,-4.2662,-4.092,-4.0496,-4.0496,-4.0496,-4.0496,-4.0457,-4.0295,-3.9903,-3.9541,-3.9327,-3.8966,-3.8707,-3.8707,-3.8025,-3.7217,-3.6395,-3.5536,-3.4692,-3.3899,-3.3807,-3.3807,-3.3807,-3.3807,-3.3807,-3.3807,-3.3807,-3.3807,-3.3807,-3.3807,-3.3807,-3.3807,-3.3807,-3.3807,-3.3807,-3.3807,-3.3807,-3.3807,-3.3807,-3.4431,-4.4238,-4.5145,-4.5722,-4.5757,-4.3916,-4.1369,0.0,0.0,-3.1958,-3.0688,-2.9486,-2.9021,-3.0251,-3.0681,-3.1306,0.0,-3.3652,-3.5605,-3.9707,0.0,0.0,0.0,0.0,0.0,0.0,0.0,0.0,0.0,0.0,0.0,0.0,-5.6367,-5.5937,-5.5312,-5.5293,-5.4453,-5.2715,-5.2695,-5.2266,-5.1406,-5.1406,-5.1285,-5.1089,-5.1089,-5.0481,0.0,0.0,0.0,0.0,-4.6632,-4.6187,-4.5668,-4.562,-4.5594,-4.5594,-4.5594,-4.5594,-4.5594,-4.5594,-4.5594,-4.5594,-4.5594,-4.5594,-4.5594,-4.5594,-4.5594,-4.5594,-4.5594,-4.5421,-4.5171,-4.4921,-4.3797,-4.2335,-4.0843,-4.0496,-4.0496,-4.0496,-4.0496,-4.043,-4.025,-3.9963,-3.9634,-3.9302,-3.9017,-3.8788,-3.8704,-3.8212,-3.7477,-3.6431,-3.5756,-3.4968,-3.3917,-3.3807,-3.3807,-3.3807,-3.3807,-3.3807,-3.3807,-3.3807,-3.3807,-3.3807,-3.3807,-3.3807,-3.3807,-3.3807,-3.3807,-3.3807,-3.3807,-3.3807,-3.3807,-3.4045,-3.4711,-4.3027,-4.4247,-4.4852,-4.4979,-4.349,-4.1133,0.0,-3.5029,-3.2366,-2.9835,-2.9409,-2.9484,-2.9503,-3.0168,-3.0989,-3.1868,-3.4234,-3.7187,-4.0684,0.0,0.0,0.0,0.0,0.0,0.0,0.0,0.0,0.0,0.0,0.0,0.0,0.0,-5.5312,-5.5293,-5.5293,-5.4453,-5.2715,-5.2695,-5.2266,-5.1406,-5.1406,-5.1285,-5.1089,-5.1089,0.0,0.0,0.0,0.0,0.0,-4.6007,-4.568,-4.5783,-4.564,-4.5594,-4.5594,-4.5594,-4.5594,-4.5594,-4.5594,-4.5594,-4.5594,-4.5594,-4.5594,-4.5594,-4.5594,-4.5594,-4.5594,-4.5594,-4.4979,-4.4124,-4.3335,-4.247,-4.1585,-4.0708,-4.0496,-4.0496,-4.0496,-4.0496,-4.0496,-4.0496,-4.0286,-3.9992,-3.9645,-3.9314,-3.9013,-3.875,-3.8689,-3.812,-3.6505,-3.6285,-3.5642,-3.3972,-3.3807,-3.3807,-3.3807,-3.3807,-3.3807,-3.3807,-3.3807,-3.3807,-3.3807,-3.3807,-3.3807,-3.3807,-3.3807,-3.3807,-3.3807,-3.3807,-3.3807,-3.3825,-3.4619,-3.5881,-3.8223,-3.9851,-4.1031,-3.9894,-3.8617,-3.722,-3.5683,-3.3273,-3.1198,-3.0525,-2.9954,-2.9721,-3.0231,-3.0539,-3.1542,-3.4105,0.0,0.0,0.0,0.0,0.0,0.0,0.0,0.0,0.0,0.0,0.0,0.0,0.0,0.0,0.0,0.0,-5.4414,-5.4414,-5.3828,-5.2969,-5.1816,-5.1816,-5.168,-5.1406,-5.1406,-5.1318,-5.1145,-5.0497,0.0,0.0,0.0,0.0,0.0,-4.5764,-4.568,-4.5783,-4.564,-4.5594,-4.5594,-4.5594,-4.5594,-4.5594,-4.5594,-4.5594,-4.5594,-4.5594,-4.5594,-4.5594,-4.5594,-4.5594,-4.5594,-4.5594,-4.4979,-4.4105,-4.3316,-4.245,-4.1585,-4.0708,-4.0496,-4.0496,-4.0496,-4.0496,-4.0496,-4.0496,-4.0276,-4.0071,-3.9972,-3.9462,-3.9072,-3.8985,-3.8354,-3.7511,-3.6431,-3.5789,-3.5004,-3.3917,-3.3807,-3.3807,-3.3807,-3.3807,-3.3807,-3.3807,-3.3807,-3.3807,-3.3807,-3.3807,-3.3807,-3.3807,-3.3807,-3.3807,-3.3807,-3.4344,-3.4931,-3.5532,-3.6321,-3.6997,0.0,-3.689,-3.8124,-3.7361,-3.644,-3.5332,-3.3884,-3.2296,-3.0988,-3.0479,-3.0172,-3.0169,-3.0621,-3.0695,-3.1476,-3.3874,0.0,0.0,0.0,0.0,0.0,0.0,0.0,0.0,0.0,0.0,0.0,0.0,0.0,0.0,0.0,0.0,-5.3516,-5.3516,-5.2988,-5.2285,-5.1406,-5.1406,-5.1406,-5.1406,-5.1406,-5.1166,-5.0733,0.0,0.0,0.0,0.0,0.0,0.0,-4.5735,-4.5735,-4.5813,-4.5653,-4.5594,-4.5594,-4.5594,-4.5594,-4.5594,-4.5594,-4.5594,-4.5594,-4.5594,-4.5594,-4.5594,-4.5594,-4.5594,-4.5594,-4.5594,-4.4739,-4.372,-4.3239,-4.222,-4.1162,-4.0631,-4.0496,-4.0496,-4.0496,-4.0496,-4.0496,-4.0496,-4.0364,-4.0213,-4.012,-3.9754,-3.9389,-3.9152,-3.853,-3.7778,-3.6864,-3.6104,-3.5284,-3.4353,-3.4073,-3.3915,-3.382,-3.3807,-3.3807,-3.3807,-3.3807,-3.3935,-3.4247,-3.3972,-3.3935,-3.4252,-3.4252,-3.41,-3.3807,-3.4619,-3.5445,-3.6321,-3.7125,-3.7658,0.0,-3.4824,-3.5703,-3.6406,-3.5948,-3.4713,-3.2299,-3.1728,0.0,-2.9739,-3.0054,-3.0659,-3.0774,-3.0792,-3.1147,-3.2188,0.0,0.0,0.0,0.0,0.0,0.0,0.0,0.0,0.0,0.0,0.0,0.0,0.0,0.0,0.0,0.0,0.0,-5.2617,-5.2617,-5.2226,-5.1406,-5.1406,-5.1406,-5.1406,-5.1406,-5.0913,-5.0015,0.0,0.0,0.0,0.0,0.0,0.0,-4.5885,-4.5847,-4.5876,-4.5684,-4.5603,-4.5594,-4.5594,-4.5594,-4.5594,-4.5594,-4.5594,-4.5594,-4.5594,-4.5594,-4.5594,-4.5594,-4.5594,-4.5594,-4.5594,-4.4393,-4.3104,-4.3104,-4.1816,-4.0496,-4.0496,-4.0496,-4.0496,-4.0496,-4.0496,-4.0496,-4.0496,-4.0496,-4.0414,-4.0167,-4.011,-3.9891,-3.9264,-3.9147,-3.8733,-3.7624,-3.7034,-3.6283,-3.5096,-3.4525,-3.416,-3.3968,-3.3852,-3.3807,-3.3807,-3.3844,-3.4215,-3.4968,-3.4325,-3.4339,-3.5078,-3.5096,-3.4747,-3.4064,-3.4802,-3.561,-3.6486,-3.7235,-3.7988,-2.8359,0.0,-3.082,-2.9707,-2.9719,-2.986,0.0,-2.9128,-2.9,-2.8649,0.0,-3.023,-3.1463,-3.1691,-3.2806,0.0,0.0,0.0,0.0,0.0,0.0,0.0,0.0,0.0,0.0,0.0,0.0,0.0,0.0,0.0,0.0,0.0,0.0,-5.1719,-5.1719,-5.1601,-5.1406,-5.1406,-5.1406,-5.1406,-5.1406,-5.0957,-5.0134,0.0,0.0,0.0,0.0,0.0,-4.6084,-4.5939,-4.5896,-4.5885,-4.5783,-4.5685,-4.5594,-4.5594,-4.5594,-4.5594,-4.5594,-4.5594,-4.5594,-4.5594,-4.5594,-4.5594,-4.5594,-4.5594,-4.5594,-4.5594,-4.4393,-4.3104,-4.3104,-4.1816,-4.0496,-4.0496,-4.0496,-4.0496,-4.0496,-4.0496,-4.0496,-4.0496,-4.0496,-4.0481,-4.0425,-4.0251,-4.0061,-3.9891,-3.9645,-3.8924,-3.7376,-3.7077,-3.643,-3.4925,-3.4661,-3.4806,-3.5353,-3.4426,-3.3807,-3.3807,-3.438,-3.4802,-3.5004,-3.5459,-3.5807,-3.5991,-3.5991,-3.6193,-3.6629,-3.6831,-3.7331,-3.8138,-3.8322,-3.8524,-2.6289,-2.8262,-3.0078,-2.9512,-2.9705,-2.9936,-2.959,0.0,0.0,0.0,0.0,-3.0,-3.1263,-3.2121,0.0,0.0,0.0,0.0,0.0,0.0,0.0,0.0,0.0,0.0,0.0,0.0,0.0,0.0,0.0,0.0,0.0,0.0,0.0,0.0,-5.1406,-5.1406,-5.1406,-5.1406,-5.1211,-5.0859,-5.0859,-5.0195,-4.8984,-4.8432,0.0,0.0,0.0,0.0,-4.6175,-4.6045,-4.5992,-4.5981,-4.5886,-4.577,-4.5685,-4.5685,-4.564,-4.5594,-4.5594,-4.5594,-4.5594,-4.5594,-4.5594,-4.5594,-4.5594,-4.5325,-4.4998,-4.4998,-4.4085,-4.3008,-4.2604,-4.1508,-4.0496,-4.0496,-4.0496,-4.0496,-4.0496,-4.0496,-4.0496,-4.0496,-4.0496,-4.0496,-4.0496,-4.0381,-4.0232,-4.012,-3.9962,-3.9453,-3.8376,-3.768,-3.6896,-3.5903,-3.5589,-3.5561,-3.5867,-3.5421,-3.514,-3.514,-3.5534,-3.5896,-3.6138,-3.6248,-3.6468,-3.685,-3.6486,-3.6703,-3.7492,-3.7125,-3.7364,-3.8138,-3.8138,-3.834,-2.6016,-2.8633,-3.1309,-3.1387,-3.1719,-3.1738,-3.0723,0.0,0.0,0.0,0.0,0.0,0.0,0.0,0.0,0.0,0.0,0.0,0.0,0.0,0.0,0.0,0.0,0.0,0.0,0.0,0.0,0.0,0.0,0.0,0.0,0.0,0.0,0.0,-5.1289,-5.1211,-5.1211,-5.1211,-5.0879,-5.0195,-5.0078,-4.916,-4.7598,-4.7598,0.0,0.0,0.0,0.0,-4.6289,-4.6175,-4.6117,-4.6084,-4.5978,-4.5872,-4.5815,-4.5809,-4.5737,-4.5618,-4.5603,-4.5594,-4.5594,-4.5594,-4.5594,-4.5594,-4.5594,-4.4998,-4.4278,-4.4143,-4.3528,-4.2739,-4.1981,-4.1143,-4.0496,-4.0496,-4.0496,-4.0496,-4.0496,-4.0496,-4.0496,-4.0496,-4.0496,-4.0496,-4.0496,-4.0496,-4.0414,-4.0195,-4.0158,-4.0005,-3.9616,-3.8508,-3.7651,-3.7285,-3.6834,-3.6526,-3.6434,-3.6836,-3.7122,-3.7205,-3.6963,-3.7094,-3.7654,-3.7019,-3.6997,-3.7676,-3.7,-3.7,-3.7676,-3.7,-3.7033,-3.7676,-3.7676,-3.8046,-2.75,-3.0391,-3.2187,-2.8672,-2.9453,-3.0684,-2.9062,0.0,0.0,0.0,0.0,0.0,0.0,0.0,0.0,0.0,0.0,0.0,0.0,0.0,0.0,0.0,0.0,0.0,0.0,0.0,0.0,0.0,0.0,0.0,0.0,0.0,0.0,0.0,0.0,-5.0371,-5.0371,-5.0371,-5.0312,-5.0195,-4.9453,-4.8574,-4.7598,-4.7598,-4.7129,0.0,0.0,-4.6308,-4.6308,-4.6289,-4.6201,-4.6108,-4.608,-4.5988,-4.5877,-4.5814,-4.5783,-4.5754,-4.5643,-4.5594,-4.5594,-4.5594,-4.5594,-4.5594,-4.5594,-4.4998,-4.4162,-4.347,-4.2662,-4.1962,-4.1827,-4.1143,-4.0496,-4.0496,-4.0496,-4.0496,-4.0496,-4.0496,-4.0496,-4.0496,-4.0496,-4.0496,-4.0496,-4.0496,-4.0481,-4.043,-4.0449,-4.0164,-3.944,-3.9157,-3.8723,-3.7955,-3.7794,-3.8013,-3.8719,-3.8851,-3.9094,-3.9545,-3.8195,-3.7717,-3.8487,-3.8395,-3.8395,-3.8505,-3.8395,-3.8395,-3.8524,-3.8395,-3.8395,-3.8524,-3.8524,-3.8579,-2.668,-2.9414,-3.1582,-2.9609,-3.1758,-3.4141,-3.3359,0.0,0.0,0.0,0.0,0.0,0.0,0.0,0.0,0.0,0.0,0.0,0.0,0.0,0.0,0.0,0.0,0.0,0.0,0.0,0.0,0.0,0.0,0.0,0.0,0.0,0.0,0.0,0.0,-4.9492,-4.9492,-4.9023,-4.8808,-4.8789,-4.8398,-4.7734,-4.6894,-4.6894,-4.668,-4.6308,0.0,-4.6308,-4.6308,-4.6308,-4.6268,-4.6202,-4.6202,-4.6138,-4.5992,-4.5881,-4.5838,-4.579,-4.5725,-4.5657,-4.5594,-4.5594,-4.5594,-4.5594,-4.5594,-4.4998,-4.4124,-4.3335,-4.247,-4.1692,-4.1219,-4.0804,-4.0496,-4.0496,-4.0496,-4.0496,-4.0496,-4.0496,-4.0496,-4.0496,-4.0496,-4.0496,-4.0496,-4.0496,-4.0496,-4.0496,-4.0496,-4.0362,-3.9996,-3.9573,-3.915,-3.8738,-3.87,-3.8854,-3.9265,-3.9578,-3.984,-4.0091,-3.9178,-3.8798,-3.9176,-3.8577,-3.8479,-3.8905,-3.835,-3.8267,-3.8707,-3.8267,-3.8267,-3.8689,-3.8248,-3.8285,-2.6191,-2.8398,-3.0663,-3.1094,0.0,-3.6328,-3.7129,-3.5273,0.0,0.0,0.0,0.0,0.0,0.0,0.0,0.0,0.0,0.0,0.0,0.0,0.0,0.0,0.0,0.0,0.0,0.0,0.0,0.0,0.0,0.0,0.0,0.0,0.0,0.0,0.0,0.0,-4.8594,-4.7734,-4.7402,-4.7598,-4.7383,-4.6953,-4.6308,-4.6308,-4.6308,-4.6308,-4.6308,-4.6308,-4.6308,-4.6308,-4.6308,-4.6308,-4.6308,-4.6223,-4.6084,-4.5985,-4.5886,-4.582,-4.582,-4.5742,-4.5651,-4.5651,-4.5637,-4.5556,-4.5364,-4.4701,-4.3855,-4.3028,-4.2162,-4.1335,-4.0669,-4.0496,-4.0496,-4.0496,-4.0496,-4.0496,-4.0496,-4.0496,-4.0496,-4.0496,-4.0496,-4.0496,-4.0496,-4.0496,-4.0496,-4.0496,-4.0496,-4.0496,-4.0496,-3.9958,-3.9573,-3.9573,-3.9573,-3.9573,-3.9573,-3.9949,-4.0186,-4.0186,-3.9819,-3.9505,-3.9297,-3.8458,-3.8284,-3.89,-3.803,-3.7978,-3.8788,-3.8107,-3.8102,-3.8689,-3.8065,-3.8102,-2.7676,-2.8843,-3.0007,-3.1699,-3.2344,0.0,-3.6582,-3.5273,0.0,-3.7559,0.0,0.0,0.0,0.0,0.0,0.0,0.0,0.0,0.0,0.0,0.0,0.0,0.0,0.0,0.0,0.0,0.0,0.0,0.0,0.0,0.0,0.0,0.0,0.0,0.0,0.0,-4.7695,-4.6836,-4.6797,-4.7598,-4.6777,-4.6367,-4.6308,-4.6308,-4.6308,-4.6308,-4.6308,-4.6308,-4.6308,-4.6308,-4.6308,-4.6308,-4.6308,-4.6223,-4.6108,-4.6084,-4.5995,-4.5885,-4.5885,-4.5859,-4.5783,-4.5783,-4.57,-4.546,-4.4643,-4.3835,-4.3008,-4.2143,-4.1277,-4.0573,-4.0516,-4.0496,-4.0496,-4.0496,-4.0496,-4.0496,-4.0496,-4.0496,-4.0496,-4.0496,-4.0496,-4.0496,-4.0496,-4.0496,-4.0496,-4.0496,-4.0496,-4.0496,-4.0496,-4.0458,-4.0419,-4.0419,-4.0419,-4.0419,-4.0419,-4.0442,-4.0473,-4.0473,-3.9915,-3.9229,-3.8433,-3.8297,-3.8305,-3.8361,-3.8047,-3.8268,-3.9072,-3.8759,-3.8652,-3.8707,-3.8652,-3.8652,-2.6504,-2.8495,-3.0662,-3.1894,-3.2988,0.0,0.0,-3.8184,-3.8926,-4.1289,-4.2031,0.0,0.0,0.0,0.0,0.0,0.0,0.0,0.0,0.0,0.0,0.0,0.0,0.0,0.0,0.0,0.0,0.0,0.0,0.0,0.0,0.0,0.0,0.0,0.0,-4.6797,-4.6797,-4.6465,-4.6465,-4.6797,-4.6465,-4.6308,-4.6308,-4.6308,-4.6308,-4.6308,-4.6308,-4.6308,-4.6308,-4.6308,-4.6308,-4.6308,-4.6308,-4.6268,-4.6224,-4.6224,-4.6144,-4.6011,-4.6011,-4.5952,-4.5855,-4.5815,-4.5775,-4.5553,-4.4589,-4.4085,-4.3566,-4.22,-4.1566,-4.1181,-4.065,-4.0496,-4.0496,-4.0496,-4.0496,-4.0496,-4.0496,-4.0496,-4.0496,-4.0496,-4.0496,-4.0496,-4.0496,-4.0496,-4.0496,-4.0496,-4.0496,-4.0496,-4.0496,-4.0496,-4.0496,-4.0496,-4.0496,-4.0496,-4.0496,-4.0496,-4.0285,-3.9785,-4.0015,-4.0004,-3.9679,-3.8499,-3.8354,-3.9407,-3.8086,-3.8075,-3.9401,-3.909,-3.8947,-3.8947,-3.8792,-3.8707,-2.6113,-2.8046,-3.033,-3.1504,0.0,0.0,-3.8359,-3.9922,-4.1504,-4.4004,0.0,0.0,0.0,0.0,0.0,0.0,0.0,0.0,0.0,0.0,0.0,0.0,0.0,0.0,0.0,0.0,0.0,0.0,0.0,0.0,0.0,0.0,0.0,0.0,0.0,0.0,-4.6308,-4.6308,-4.6308,-4.6308,-4.6308,-4.6308,-4.6308,-4.6308,-4.6308,-4.6308,-4.6308,-4.6308,-4.6308,-4.6308,-4.6308,-4.6308,-4.6308,-4.6308,-4.6308,-4.6308,-4.6246,-4.6152,-4.6152,-4.6077,-4.5917,-4.5559,-4.5421,-4.515,-4.3882,-4.3508,-4.322,-4.1797,-4.1393,-4.1258,-4.065,-4.0496,-4.0496,-4.0496,-4.0496,-4.0496,-4.0496,-4.0496,-4.0496,-4.0496,-4.0496,-4.0496,-4.0496,-4.0496,-4.0496,-4.0496,-4.0496,-4.0496,-4.0496,-4.0496,-4.0496,-4.0496,-4.0496,-4.0496,-4.0496,-4.0496,-4.0265,-3.9708,-4.0208,-4.015,-3.9335,-3.8287,-3.8261,-3.941,-3.7984,-3.806,-3.9765,-3.9414,-3.9251,-3.9238,-3.8966,-3.8829,-2.6992,-2.7592,-2.8677,0.0,0.0,0.0,-3.9121,-3.9922,-4.1152,0.0,0.0,0.0,0.0,0.0,0.0,0.0,0.0,0.0,0.0,0.0,0.0,0.0,0.0,0.0,0.0,0.0,0.0,0.0,0.0,0.0,0.0,0.0,0.0,0.0,0.0,0.0,-4.6308,-4.6308,-4.6308,-4.6308,-4.6308,-4.6308,-4.6308,-4.6308,-4.6308,-4.6308,-4.6308,-4.6308,-4.6308,-4.6308,-4.6308,-4.6308,-4.6308,-4.6308,-4.6308,-4.6308,-4.6308,-4.6308,-4.6289,-4.6203,-4.5924,-4.4989,-4.4598,-4.415,-4.2341,-4.1788,-4.1623,-4.0746,-4.0496,-4.0496,-4.0496,-4.0496,-4.0496,-4.0496,-4.0496,-4.0496,-4.0496,-4.0496,-4.0496,-4.0496,-4.0496,-4.0496,-4.0496,-4.0496,-4.0496,-4.0496,-4.0496,-4.0496,-4.0496,-4.0496,-4.0496,-4.0496,-4.0496,-4.0496,-4.0496,-4.0496,-4.0496,-4.0477,-4.0477,-3.9354,-3.6846,-3.7565,-3.8027,-3.8027,-3.7698,-3.8375,-4.0101,-3.9775,-3.9611,-3.9599,-3.9251,-3.9093,-2.625,-2.8496,0.0,0.0,0.0,0.0,0.0,-4.2103,0.0,0.0,0.0,0.0,0.0,0.0,0.0,0.0,0.0,0.0,0.0,0.0,0.0,0.0,0.0,0.0,0.0,0.0,0.0,0.0,0.0,0.0,0.0,0.0,0.0,0.0,0.0,0.0,-4.6308,-4.6308,-4.6308,-4.6308,-4.6308,-4.6308,-4.6308,-4.6308,-4.6308,-4.6308,-4.6308,-4.6308,-4.6308,-4.6308,-4.6308,-4.6308,-4.6308,-4.6308,-4.6308,-4.6308,-4.6308,-4.6211,-4.5605,-4.5351,-4.5166,-4.413,-4.3756,-4.349,-4.2193,-4.1788,-4.1623,-4.0746,-4.0496,-4.0496,-4.0496,-4.0496,-4.0496,-4.0496,-4.0496,-4.0496,-4.0496,-4.0496,-4.0496,-4.0496,-4.0496,-4.0496,-4.0496,-4.0496,-4.0496,-4.0496,-4.0496,-4.0496,-4.0496,-4.0496,-4.0496,-4.0496,-4.0496,-4.0496,-4.0496,-4.0496,-3.9996,-3.8815,-3.9323,-3.9573,-3.9373,-3.9084,-3.9188,-3.9746,-3.9108,-3.9298,-4.0381,-4.0091,-3.9943,-3.9932,-3.9611,-3.945,-2.7715,0.0,0.0,0.0,0.0,0.0,0.0,0.0,0.0,0.0,0.0,0.0,0.0,0.0,0.0,0.0,0.0,0.0,0.0,0.0,0.0,0.0,0.0,0.0,0.0,0.0,0.0,0.0,0.0,0.0,0.0,0.0,0.0,0.0,0.0,0.0,-4.6308,-4.6308,-4.6308,-4.6308,-4.6308,-4.6308,-4.6308,-4.6308,-4.6308,-4.6308,-4.6308,-4.6308,-4.6308,-4.6308,-4.6094,-4.5781,-4.5781,-4.5566,-4.5273,-4.5273,-4.5273,-4.5195,-4.4668,-4.4473,-4.4315,-4.3295,-4.2937,-4.2698,-4.1674,-4.1339,-4.1162,-4.065,-4.0496,-4.0496,-4.0496,-4.0496,-4.0496,-4.0496,-4.0496,-4.0496,-4.0496,-4.0496,-4.0496,-4.0496,-4.0496,-4.0496,-4.0496,-4.0496,-4.0496,-4.0496,-4.0496,-4.0496,-4.0496,-4.0496,-4.0496,-4.0496,-4.0496,-4.0496,-4.0496,-4.0496,-4.0073,-3.9065,-3.9188,-3.9515,-3.9996,-3.8892,-3.8661,-3.9496,-3.9027,-3.9361,-4.0496,-4.0339,-4.0096,-3.9762,-3.9448,-3.9104,-3.0215,0.0,0.0,0.0,0.0,0.0,0.0,0.0,0.0,0.0,0.0,0.0,0.0,0.0,0.0,0.0,0.0,0.0,0.0,0.0,0.0,0.0,0.0,0.0,0.0,0.0,0.0,0.0,0.0,0.0,0.0,0.0,0.0,0.0,0.0,0.0,-4.6308,-4.6308,-4.6308,0.0,-4.6308,-4.6308,-4.6308,-4.6308,-4.6308,-4.6308,-4.6308,-4.625,-4.6172,-4.6172,-4.5664,-4.4883,-4.4883,-4.4394,-4.3691,-4.3691,-4.3691,-4.3691,-4.3613,-4.3574,-4.3437,-4.2497,-4.2092,-4.1832,-4.0964,-4.063,-4.0519,-4.0519,-4.0512,-4.0496,-4.0496,-4.0496,-4.0496,-4.0496,-4.0496,-4.0496,-4.0496,-4.0496,-4.0496,-4.0496,-4.0496,-4.0496,-4.0496,-4.0496,-4.0496,-4.0496,-4.0496,-4.0496,-4.0496,-4.0496,-4.0496,-4.0496,-4.0496,-4.0496,-4.0496,-4.0439,-4.0362,-4.0285,-3.9515,-3.9034,-3.8957,-3.7584,-3.7238,-3.8104,-3.8046,-3.8796,-4.04,-4.0304,-3.99,-3.9161,-3.8873,-3.8307,0.0,-3.1074,0.0,0.0,0.0,0.0,0.0,0.0,0.0,0.0,0.0,0.0,0.0,0.0,0.0,0.0,0.0,0.0,0.0,0.0,0.0,0.0,0.0,0.0,0.0,0.0,0.0,0.0,0.0,0.0,0.0,0.0,0.0,0.0,0.0,-4.6308,-4.6308,-4.6308,-4.6308,0.0,-4.6308,-4.6308,-4.6308,-4.6308,-4.6308,-4.6308,-4.6308,-4.5918,-4.5273,-4.5273,-4.4766,-4.3984,-4.3984,-4.3867,-4.3691,-4.3691,-4.3691,-4.3594,-4.293,-4.2676,-4.2519,-4.1578,-4.1261,-4.1178,-4.0875,-4.0712,-4.0668,-4.0668,-4.0568,-4.0496,-4.0496,-4.0496,-4.0496,-4.0496,-4.0496,-4.0496,-4.0496,-4.0496,-4.0496,-4.0496,-4.0496,-4.0496,-4.0496,-4.0496,-4.0496,-4.0496,-4.0496,-4.0496,-4.0496,-4.0496,-4.0496,-4.0496,-4.0496,-4.0496,-4.0496,-3.9919,-3.9265,-3.8584,-3.7738,-3.6988,-3.6346,-3.7219,-3.8123,-3.8996,-3.8354,-3.8507,-3.9554,-3.8873,-3.845,-3.8277,-3.8212,-3.8074,0.0,0.0,0.0,0.0,0.0,0.0,0.0,0.0,0.0,0.0,0.0,0.0,0.0,0.0,0.0,0.0,0.0,0.0,0.0,0.0,0.0,0.0,0.0,0.0,0.0,0.0,0.0,0.0,0.0,0.0,0.0,0.0,0.0,0.0,-4.6308,-4.6308,-4.6308,-4.6308,-4.6308,-4.6289,-4.5879,-4.5469,-4.5078,-4.5918,-4.6074,-4.5683,-4.5683,-4.5176,-4.4375,-4.4375,-4.3867,-4.3086,-4.3086,-4.2832,-4.25,-4.25,-4.25,-4.2441,-4.1973,-4.1836,-4.1738,-4.1244,-4.1052,-4.099,-4.0917,-4.084,-4.0742,-4.0742,-4.0696,-4.0635,-4.059,-4.0589,-4.0588,-4.0519,-4.0496,-4.0496,-4.0496,-4.0496,-4.0496,-4.0496,-4.0496,-4.0496,-4.0496,-4.0496,-4.0496,-4.0496,-4.0496,-4.0496,-4.0496,-4.0496,-4.0496,-4.0496,-4.0496,-4.0496,-4.0496,-4.0112,-3.9515,-3.8681,-3.7796,-3.6949,-3.6115,-3.6538,-3.7199,-3.8046,-3.7603,-3.7815,-3.8681,-3.8219,-3.7796,-3.7373,-3.7373,-3.718,0.0,0.0,0.0,0.0,0.0,0.0,0.0,0.0,0.0,0.0,0.0,0.0,0.0,0.0,0.0,0.0,0.0,0.0,0.0,0.0,0.0,0.0,0.0,0.0,0.0,0.0,0.0,0.0,0.0,0.0,0.0,0.0,-4.6308,-4.6308,-4.6308,-4.6308,-4.6308,-4.6152,-4.6074,-4.6074,-4.5195,-4.4394,-4.375,-4.5195,-4.5469,-4.4785,-4.4785,-4.4277,-4.3476,-4.3476,-4.2969,-4.2187,-4.2187,-4.1797,-4.1191,-4.1191,-4.1191,-4.1191,-4.1191,-4.1191,-4.1191,-4.1191,-4.1127,-4.1028,-4.1028,-4.095,-4.0824,-4.0824,-4.0813,-4.0796,-4.0731,-4.0718,-4.069,-4.057,-4.0554,-4.054,-4.0512,-4.0496,-4.0496,-4.0496,-4.0496,-4.0496,-4.0496,-4.0496,-4.0496,-4.0496,-4.0496,-4.0496,-4.0496,-4.0496,-4.0496,-4.0496,-4.0496,-4.0496,-4.0496,-4.0227,-3.9785,-3.913,-3.8123,-3.7257,-3.6519,-3.5846,-3.5808,-3.6481,-3.6481,-3.6923,-3.7777,-3.7642,-3.7199,-3.6481,-3.6481,-3.6135,0.0,0.0,0.0,0.0,0.0,0.0,0.0,0.0,0.0,0.0,0.0,0.0,0.0,0.0,0.0,0.0,0.0,0.0,0.0,0.0,0.0,0.0,0.0,0.0,0.0,0.0,0.0,0.0,0.0,0.0,0.0,-4.6308,-4.6308,-4.6308,-4.6308,-4.6308,-4.6308,-4.5547,-4.5176,-4.5156,-4.4297,-4.3808,-4.3711,-4.3945,-4.3984,-4.3867,-4.3867,-4.3379,-4.2578,-4.2578,-4.209,-4.1367,-4.1367,-4.1289,-4.1191,-4.1191,-4.1191,-4.1191,-4.1191,-4.1191,-4.1191,-4.1191,-4.1191,-4.1171,-4.1171,-4.108,-4.0964,-4.0964,-4.088,-4.0793,-4.0781,-4.0796,-4.0773,-4.076,-4.0755,-4.0713,-4.0533,-4.0496,-4.0496,-4.0496,-4.0496,-4.0496,-4.0496,-4.0496,-4.0496,-4.0496,-4.0496,-4.0496,-4.0496,-4.0496,-4.0496,-4.0496,-4.0496,-4.0496,-4.0496,-3.9161,-3.8296,-3.818,-3.6692,-3.5788,-3.5673,-3.5558,-3.5558,-3.5654,-3.5654,-3.6058,-3.6865,-3.6173,-3.5769,-3.5654,-3.5654,-3.5596,0.0,0.0,0.0,0.0,0.0,0.0,0.0,0.0,0.0,0.0,0.0,0.0,0.0,0.0,0.0,0.0,0.0,0.0,0.0,0.0,0.0,0.0,0.0,0.0,0.0,0.0,0.0,0.0,0.0,0.0,-4.4844,-4.4844,-4.4844,-4.4844,-4.4844,0.0,-4.4844,-4.4453,-4.4023,-4.3535,-4.3144,-4.2734,-4.2305,-4.2305,-4.2558,-4.2969,-4.2969,-4.25,-4.1738,-4.1738,-4.1523,-4.1191,-4.1191,-4.1191,-4.1191,-4.1191,-4.1191,-4.1191,-4.1191,-4.1191,-4.1191,-4.1191,-4.1191,-4.1191,-4.1191,-4.1151,-4.1105,-4.1105,-4.1077,-4.1017,-4.0925,-4.0914,-4.0883,-4.0813,-4.0797,-4.0773,-4.0682,-4.0642,-4.0582,-4.0519,-4.0496,-4.0496,-4.0496,-4.0496,-4.0496,-4.0496,-4.0496,-4.0496,-4.0496,-4.0496,-4.0496,-4.0496,-4.0496,-4.0496,-4.0496,-3.9441,-3.8549,-3.8034,-3.6922,-3.6048,-3.5526,-3.55,-3.55,-3.55,-3.55,-3.5673,-3.6038,-3.5673,-3.55,-3.55,-3.55,-3.55,0.0,0.0,0.0,0.0,0.0,0.0,0.0,0.0,0.0,0.0,0.0,0.0,0.0,0.0,0.0,0.0,0.0,0.0,0.0,0.0,0.0,0.0,0.0,0.0,0.0,0.0,0.0,0.0,0.0,0.0,-4.3691,-4.3691,-4.3691,-4.3691,-4.3691,-4.3691,-4.3691,-4.3476,-4.2949,-4.2109,-4.2109,-4.1777,-4.1191,-4.1191,-4.1523,-4.2109,-4.2109,-4.1758,-4.1191,-4.1191,-4.1191,-4.1191,-4.1191,-4.1191,-4.1191,-4.1191,-4.1191,-4.1191,-4.1191,-4.1191,-4.1191,-4.1191,-4.1191,-4.1191,-4.1191,-4.1191,-4.1191,-4.1191,-4.1191,-4.1171,-4.1078,-4.1052,-4.1025,-4.0922,-4.0908,-4.0877,-4.0809,-4.0767,-4.0696,-4.0568,-4.0552,-4.0537,-4.0504,-4.0496,-4.0496,-4.0496,-4.0496,-4.0496,-4.0496,-4.0496,-4.0496,-4.0496,-4.0523,-4.0552,-4.0552,-3.9868,-3.9057,-3.8138,-3.7334,-3.6491,-3.5554,-3.5508,-3.55,-3.55,-3.55,-3.55,-3.55,-3.55,-3.55,-3.55,-3.55,-3.55,0.0,0.0,0.0,0.0,0.0,0.0,0.0,0.0,0.0,0.0,0.0,0.0,0.0,0.0,0.0,0.0,0.0,0.0,0.0,0.0,0.0,0.0,0.0,0.0,0.0,0.0,0.0,0.0,0.0,0.0,-4.3691,-4.3691,-4.3691,-4.3691,-4.3691,-4.3691,-4.3691,-4.2871,-4.2051,-4.1269,-4.1269,-4.123,-4.1191,-4.1191,-4.1211,-4.1269,-4.1269,-4.123,-4.1191,-4.1191,-4.1191,-4.1191,-4.1191,-4.1191,-4.1191,-4.1191,-4.1191,-4.1191,-4.1191,-4.1191,-4.1191,-4.1191,-4.1191,-4.1191,-4.1191,-4.1191,-4.1191,-4.1191,-4.1191,-4.1191,-4.1191,-4.1191,-4.1191,-4.1171,-4.1171,-4.1105,-4.0857,-4.0793,-4.0775,-4.0696,-4.0686,-4.0655,-4.0527,-4.0496,-4.0496,-4.0496,-4.0496,-4.0496,-4.0496,-4.0496,-4.0496,-4.0496,-4.0616,-4.0686,-4.0686,-4.0009,-3.9217,-3.8338,-3.7414,-3.6512,-3.5639,-3.5534,-3.55,-3.55,-3.55,-3.55,-3.55,-3.55,-3.55,-3.55,-3.55,-3.55,0.0,0.0,0.0,0.0,0.0,0.0,0.0,0.0,0.0,0.0,0.0,0.0,0.0,0.0,0.0,0.0,0.0,0.0,0.0,0.0,0.0,0.0,0.0,0.0,0.0,0.0,0.0,0.0,0.0,0.0,-4.2109,-4.2109,-4.2109,-4.2109,-4.2109,-4.2109,-4.2109,-4.1797,-4.1484,-4.1191,-4.1191,-4.1191,-4.1191,-4.1191,-4.1191,-4.1191,-4.1191,-4.1191,-4.1191,-4.1191,-4.1191,-4.1191,-4.1191,-4.1191,-4.1191,-4.1191,-4.1191,-4.1191,-4.1191,-4.1191,-4.1191,-4.1191,-4.1191,-4.1191,-4.1191,-4.1191,-4.1191,-4.1191,-4.1191,-4.1191,-4.1191,-4.1191,-4.1191,-4.1191,-4.0762,-4.0488,-4.0961,-4.092,-4.0785,-4.0766,-4.0757,-4.0743,-4.0698,-4.0666,-4.0629,-4.0696,-4.066,-4.063,-4.063,-4.063,-4.0609,-4.0512,-4.0623,-4.0697,-4.0697,-3.9548,-3.8678,-3.8314,-3.7011,-3.6086,-3.5675,-3.5611,-3.5568,-3.5568,-3.5522,-3.55,-3.55,-3.55,-3.55,-3.55,-3.55,-3.55,0.0,0.0,0.0,0.0,0.0,0.0,0.0,0.0,0.0,0.0,0.0,0.0,0.0,0.0,0.0,0.0,0.0,0.0,0.0,0.0,0.0,0.0,0.0,0.0,0.0,0.0,0.0,0.0,0.0,0.0,-4.1129,-4.1129,-4.115,-4.1191,-4.1191,-4.1191,-4.1191,-4.1191,-4.1191,-4.1191,-4.0898,-4.0762,-4.0762,-4.0762,-4.0605,-4.0332,-4.0644,-4.0937,-4.1191,-4.1191,-4.1191,-4.1191,-4.1191,-4.1191,-4.1191,-4.1191,-4.1191,-4.1191,-4.1191,-4.1191,-4.1191,-4.1191,-4.1191,-4.1191,-4.1191,-4.1191,-4.1191,-4.1191,-4.1191,-4.1191,-4.1191,-4.1191,-4.1133,-4.082,-4.0547,-4.0332,-4.0332,-4.0429,-4.0488,-4.0442,-4.0672,-4.0779,-4.0451,-4.0577,-4.0747,-4.0789,-4.0752,-4.0736,-4.0736,-4.0736,-4.0699,-4.0617,-4.0726,-4.08,-4.08,-3.9638,-3.8761,-3.8412,-3.7102,-3.6153,-3.573,-3.5639,-3.5585,-3.5574,-3.5522,-3.55,-3.55,-3.55,-3.55,-3.55,-3.55,-3.55,0.0,0.0,0.0,0.0,0.0,0.0,0.0,0.0,0.0,0.0,0.0,0.0,0.0,0.0,0.0,0.0,0.0,0.0,0.0,0.0,0.0,0.0,0.0,0.0,0.0,0.0,0.0,0.0,0.0,-4.0957,-4.0957,-4.0937,-4.0977,-4.1113,-4.1113,-4.1113,-4.1113,-4.1113,-4.1113,-4.1113,-4.0273,-3.9863,-3.9863,-3.9863,-3.9394,-3.8652,-3.9492,-4.0332,-4.1133,-4.1152,-4.1152,-4.1152,-4.1191,-4.1172,-4.1152,-4.1191,-4.1172,-4.1172,-4.1191,-4.1191,-4.1191,-4.1191,-4.1191,-4.1191,-4.1191,-4.1191,-4.1191,-4.1191,-4.1191,-4.1191,-4.1191,-4.1191,-4.0976,-4.0117,-4.0547,-4.0684,-3.8965,-3.9258,-3.9823,-3.9737,-4.0411,-4.0725,-3.9804,-4.0295,-4.0805,-4.0809,-4.0805,-4.0805,-4.0805,-4.0805,-4.0801,-4.0797,-4.092,-4.0996,-4.0957,-4.0287,-3.9492,-3.8613,-3.7682,-3.6723,-3.5756,-3.5633,-3.5577,-3.5508,-3.552,-3.5494,-3.5507,-3.55,-3.55,-3.55,-3.55,-3.55,-2.0703,0.0,0.0,0.0,0.0,0.0,0.0,0.0,0.0,0.0,0.0,0.0,0.0,0.0,0.0,0.0,0.0,0.0,0.0,0.0,0.0,0.0,0.0,0.0,0.0,0.0,0.0,0.0,-4.0144,-4.0063,-4.0063,-3.9458,-3.9182,-3.9316,-3.9316,-3.9316,-3.9316,-3.9316,-3.9316,-3.9316,-3.9062,-3.8965,-3.8965,-3.8965,-3.8828,-3.8613,-3.8848,-3.9101,-3.9375,-4.0,-4.0254,-4.0312,-4.0957,-4.0801,-4.0332,-4.0976,-4.0801,-4.0351,-4.0976,-4.1191,-4.1191,-4.1191,-4.1191,-4.1191,-4.1191,-4.1191,-4.1191,-4.1191,-4.1191,-4.1191,-4.1191,-4.1191,-4.0976,-4.0117,-4.0078,-3.9941,-3.8848,-3.8789,-3.914,-3.9724,-4.0544,-4.105,-4.081,-4.0861,-4.0986,-4.1078,-4.1017,-4.0933,-4.0933,-4.0933,-4.0911,-4.0805,-4.092,-4.0742,-4.0116,-3.9388,-3.8594,-3.7715,-3.6815,-3.6207,-3.5927,-3.5849,-3.5805,-3.5781,-3.5694,-3.5611,-3.5566,-3.5528,-3.55,-3.55,-3.55,-3.55,0.0,0.0,0.0,0.0,0.0,0.0,0.0,0.0,0.0,0.0,0.0,0.0,0.0,0.0,0.0,0.0,0.0,0.0,0.0,0.0,0.0,0.0,0.0,0.0,0.0,0.0,0.0,0.0,-3.9211,-3.9112,-3.9129,-3.8622,-3.8424,-3.8594,-3.8594,-3.8594,-3.8594,-3.8594,-3.8594,-3.8594,-3.8223,-3.8066,-3.8066,-3.8066,-3.7851,-3.7539,-3.7891,-3.7851,-3.7578,-3.8457,-3.9023,-3.9414,-3.9922,-3.9805,-3.9414,-3.9922,-3.9785,-3.9434,-3.9941,-4.0117,-4.0117,-4.0117,-4.0117,-4.0117,-4.0117,-4.0117,-4.0117,-4.0117,-4.0371,-4.0664,-4.0664,-4.0664,-4.0449,-3.9551,-3.9355,-3.9023,-3.7773,-3.8086,-3.8633,-3.8789,-3.9805,-4.0547,-4.0176,-4.064,-4.1105,-4.1191,-4.1129,-4.1081,-4.1081,-4.1081,-4.1054,-4.0986,-4.0716,-4.0338,-3.983,-3.8728,-3.7832,-3.7324,-3.6484,-3.5995,-3.5951,-3.5916,-3.5873,-3.5809,-3.5729,-3.5675,-3.5611,-3.5562,-3.5534,-3.55,-3.55,-3.55,-2.3457,-2.3555,0.0,0.0,0.0,0.0,0.0,-2.6035,0.0,0.0,0.0,0.0,0.0,0.0,0.0,0.0,0.0,0.0,0.0,0.0,0.0,0.0,0.0,0.0,0.0,0.0,-3.8457,-3.8457,-3.8265,-3.8112,-3.8019,-3.8015,-3.8093,-3.828,-3.8301,-3.8301,-3.8301,-3.8301,-3.8301,-3.8301,-3.7539,-3.7168,-3.7168,-3.7168,-3.6738,-3.6035,-3.6816,-3.6719,-3.6055,-3.6836,-3.7676,-3.8476,-3.8555,-3.8535,-3.8476,-3.8555,-3.8535,-3.8476,-3.8574,-3.8594,-3.8594,-3.8594,-3.8594,-3.8594,-3.8594,-3.8594,-3.8594,-3.8594,-3.916,-3.9766,-3.9766,-3.9766,-3.9531,-3.8652,-3.8535,-3.8125,-3.6387,-3.7285,-3.8223,-3.7441,-3.8711,-3.9687,-3.9004,-4.0176,-4.1191,-4.1191,-4.1191,-4.1191,-4.1191,-4.1191,-4.1191,-4.1191,-4.043,-3.9863,-3.9766,-3.8242,-3.7266,-3.7168,-3.6426,-3.5974,-3.5911,-3.591,-3.5851,-3.5735,-3.5723,-3.569,-3.5611,-3.56,-3.5556,-3.55,-3.55,-3.55,-2.5215,-2.5723,-2.5996,0.0,0.0,0.0,0.0,-2.4277,0.0,0.0,0.0,0.0,0.0,0.0,0.0,0.0,0.0,0.0,0.0,0.0,0.0,0.0,0.0,0.0,0.0,0.0,-3.7559,-3.7559,-3.7371,-3.6923,-3.6178,-3.6188,-3.6276,-3.6422,-3.6482,-3.6504,-3.6504,-3.6504,-3.6504,-3.6504,-3.6328,-3.625,-3.625,-3.625,-3.6152,-3.6016,-3.6172,-3.6152,-3.6016,-3.6172,-3.6777,-3.7617,-3.832,-3.8164,-3.7637,-3.834,-3.8164,-3.7656,-3.8359,-3.8594,-3.8594,-3.8594,-3.8594,-3.8594,-3.8594,-3.8594,-3.8594,-3.8594,-3.8711,-3.8848,-3.8848,-3.8848,-3.8633,-3.7754,-3.8086,-3.8125,-3.6387,-3.6816,-3.75,-3.7324,-3.8711,-4.0078,-4.0605,-4.0976,-4.1191,-4.1191,-4.1191,-4.1191,-4.1191,-4.1191,-4.1191,-4.1191,-4.043,-3.9629,-3.8906,-3.7891,-3.6992,-3.6309,-3.6094,-3.5996,-3.5975,-3.5975,-3.5974,-3.5933,-3.5889,-3.5799,-3.5675,-3.5566,-3.5515,-3.55,-3.55,-3.55,0.0,-2.6641,-2.7324,-2.6016,0.0,0.0,0.0,0.0,0.0,0.0,0.0,0.0,0.0,0.0,0.0,0.0,0.0,0.0,0.0,0.0,0.0,0.0,0.0,0.0,0.0,0.0,-3.613,-3.6474,-3.6418,-3.6134,-3.5635,-3.5671,-3.5761,-3.59,-3.5972,-3.5996,-3.5996,-3.5996,-3.5996,-3.5996,-3.5996,-3.5996,-3.5996,-3.5996,-3.5996,-3.5996,-3.5996,-3.5996,-3.5996,-3.5996,-3.6269,-3.6699,-3.7129,-3.7031,-3.6699,-3.7148,-3.7031,-3.6719,-3.7148,-3.7305,-3.7305,-3.7305,-3.7305,-3.7305,-3.7305,-3.7305,-3.7305,-3.7305,-3.7617,-3.7949,-3.7949,-3.7949,-3.7832,-3.7402,-3.7305,-3.7051,-3.6191,-3.6348,-3.6777,-3.7226,-3.8008,-3.9023,-4.0332,-4.0547,-4.0703,-4.1133,-4.082,-4.0703,-4.1133,-4.1191,-4.1191,-4.1191,-4.0039,-3.9062,-3.8633,-3.7402,-3.6465,-3.6035,-3.5996,-3.5996,-3.5996,-3.5996,-3.5996,-3.5996,-3.5922,-3.5871,-3.5802,-3.5641,-3.5528,-3.55,-3.55,-3.55,0.0,0.0,0.0,0.0,0.0,-2.666,0.0,0.0,0.0,-2.6035,0.0,0.0,0.0,0.0,0.0,0.0,0.0,0.0,0.0,0.0,0.0,0.0,0.0,0.0,0.0,0.0,-3.4477,-3.5172,-3.5051,-3.5053,-3.5328,-3.5426,-3.5582,-3.5847,-3.5951,-3.5996,-3.5996,-3.5996,-3.5996,-3.5996,-3.5996,-3.5996,-3.5996,-3.5996,-3.5996,-3.5996,-3.5996,-3.5996,-3.5996,-3.5996,-3.5996,-3.5996,-3.5996,-3.5996,-3.5996,-3.5996,-3.5996,-3.5996,-3.5996,-3.5996,-3.5996,-3.5996,-3.5996,-3.5996,-3.5996,-3.5996,-3.5996,-3.5996,-3.6504,-3.7051,-3.7051,-3.7051,-3.7051,-3.7051,-3.6504,-3.5996,-3.5996,-3.5996,-3.6309,-3.7344,-3.7402,-3.7851,-3.9609,-3.9766,-4.0,-4.1035,-4.0469,-4.0215,-4.1094,-4.1191,-4.1133,-4.0976,-3.9531,-3.8535,-3.8359,-3.6914,-3.5996,-3.5996,-3.5996,-3.5996,-3.5996,-3.5996,-3.5996,-3.5996,-3.5947,-3.591,-3.5901,-3.5748,-3.56,-3.5515,-3.5514,-3.55,0.0,0.0,0.0,0.0,-2.9195,0.0,0.0,0.0,-2.5176,-2.3828,0.0,0.0,0.0,0.0,0.0,0.0,0.0,0.0,0.0,0.0,0.0,0.0,0.0,0.0,0.0,0.0,0.0,-3.3436,-3.2703,-3.2861,-3.4282,-3.4538,-3.4974,-3.57,-3.5903,-3.5996,-3.5996,-3.5996,-3.5996,-3.5996,-3.5996,-3.5996,-3.5996,-3.5996,-3.5996,-3.5996,-3.5996,-3.5996,-3.5996,-3.5996,-3.5996,-3.5996,-3.5996,-3.5996,-3.5996,-3.5996,-3.5996,-3.5996,-3.5996,-3.5996,-3.5996,-3.5996,-3.5996,-3.5996,-3.5996,-3.5996,-3.5996,-3.5996,-3.6074,-3.6152,-3.6152,-3.6152,-3.6152,-3.6152,-3.6074,-3.5996,-3.5996,-3.5996,-3.6484,-3.8125,-3.7832,-3.7851,-3.9609,-3.9258,-3.9316,-4.0957,-4.0469,-4.0215,-4.1094,-4.1191,-4.0898,-4.0137,-3.918,-3.8281,-3.7519,-3.6562,-3.5996,-3.5996,-3.5996,-3.5996,-3.5996,-3.5996,-3.5996,-3.5996,-3.5996,-3.5951,-3.5901,-3.5871,-3.5775,-3.5579,-3.5534,-3.55,0.0,0.0,0.0,0.0,0.0,0.0,0.0,0.0,-2.5644,0.0,0.0,0.0,0.0,0.0,0.0,0.0,0.0,0.0,0.0,0.0,0.0,0.0,0.0,0.0,0.0,0.0,0.0,0.0,0.0,-3.2087,-3.273,-3.3854,-3.4643,-3.499,-3.5649,-3.5996,-3.5996,-3.5996,-3.5996,-3.5996,-3.5996,-3.5996,-3.5996,-3.5996,-3.5996,-3.5996,-3.5996,-3.5996,-3.5996,-3.5996,-3.5996,-3.5996,-3.5996,-3.5996,-3.5996,-3.5996,-3.5996,-3.5996,-3.5996,-3.5996,-3.5996,-3.5996,-3.5996,-3.5996,-3.5996,-3.5996,-3.5996,-3.5996,-3.5996,-3.5996,-3.5996,-3.5996,-3.5996,-3.5996,-3.5996,-3.5996,-3.5996,-3.6406,-3.6973,-3.7695,-3.7559,-3.7695,-3.8926,-3.8848,-3.9023,-4.0254,-4.0137,-4.0039,-4.0391,-4.0449,-4.0312,-3.9941,-3.8672,-3.7695,-3.7324,-3.6504,-3.5996,-3.5996,-3.5996,-3.5996,-3.5996,-3.5996,-3.5996,-3.5996,-3.5996,-3.5995,-3.5951,-3.5914,-3.586,-3.5778,-3.5681,-3.56,-2.9485,0.0,0.0,0.0,0.0,0.0,0.0,0.0,0.0,0.0,0.0,0.0,0.0,0.0,0.0,0.0,0.0,0.0,0.0,0.0,0.0,0.0,0.0,0.0,0.0,0.0,0.0,0.0,0.0,0.0,-3.1301,-3.2878,-3.3967,-3.4427,-3.5438,-3.5952,-3.5927,-3.5975,-3.5996,-3.5974,-3.5996,-3.5996,-3.5996,-3.5742,-3.5762,-3.5996,-3.5742,-3.5781,-3.5996,-3.5996,-3.5996,-3.5996,-3.5996,-3.5996,-3.5996,-3.5996,-3.5996,-3.5996,-3.5996,-3.5996,-3.5996,-3.5996,-3.5996,-3.5996,-3.5996,-3.5996,-3.5996,-3.5996,-3.5996,-3.5996,-3.5996,-3.5996,-3.5996,-3.5996,-3.5996,-3.6074,-3.6309,-3.6855,-3.7441,-3.793,-3.7812,-3.8008,-3.9121,-3.8711,-3.8613,-3.9726,-3.9902,-3.998,-4.0234,-4.0254,-4.0078,-3.959,-3.8418,-3.7461,-3.6973,-3.6367,-3.5996,-3.5996,-3.5996,-3.5996,-3.5996,-3.5996,-3.5996,-3.5996,-3.5996,-3.5996,-3.5996,-3.5948,-3.5938,-3.5918,-3.5772,-3.5667,0.0,0.0,0.0,-2.8952,0.0,0.0,0.0,0.0,-2.7734,0.0,0.0,0.0,0.0,0.0,0.0,0.0,0.0,0.0,0.0,0.0,0.0,0.0,0.0,0.0,0.0,0.0,0.0,0.0,0.0,0.0,-3.0275,-3.1362,-3.2632,-3.4265,-3.5338,-3.5841,-3.5713,-3.5903,-3.5973,-3.5905,-3.5973,-3.5996,-3.5976,-3.5137,-3.5195,-3.5957,-3.5117,-3.5215,-3.5996,-3.5996,-3.5996,-3.5996,-3.5996,-3.5996,-3.5996,-3.5996,-3.5996,-3.5996,-3.5996,-3.5996,-3.5996,-3.5996,-3.5996,-3.5996,-3.5996,-3.5996,-3.5996,-3.5996,-3.5996,-3.5996,-3.5996,-3.5996,-3.5996,-3.5996,-3.5996,-3.623,-3.707,-3.7285,-3.7793,-3.9492,-3.9141,-3.9101,-4.082,-3.9023,-3.793,-3.9648,-3.9902,-4.0195,-4.1055,-4.1152,-4.0508,-3.8828,-3.8594,-3.7871,-3.6191,-3.6016,-3.5996,-3.5996,-3.5996,-3.5996,-3.5996,-3.5996,-3.5996,-3.5996,-3.5996,-3.5996,-3.5996,-3.5996,-3.5996,-3.5996,-3.5795,-3.5703,0.0,0.0,-3.2328,-2.9532,0.0,0.0,0.0,0.0,0.0,0.0,0.0,0.0,0.0,0.0,0.0,0.0,0.0,0.0,0.0,0.0,0.0,0.0,0.0,0.0,0.0,0.0,0.0,0.0,0.0,0.0,0.0,-3.0161,-3.145,-3.2608,-3.3599,-3.4381,-3.4893,-3.4966,-3.5266,-3.5766,-3.5884,-3.5922,-3.5903,-3.5077,-3.4863,-3.5098,-3.4219,-3.4336,-3.5137,-3.5137,-3.5488,-3.5996,-3.5996,-3.5996,-3.5996,-3.5996,-3.5996,-3.5996,-3.5996,-3.5973,-3.5922,-3.5922,-3.5866,-3.5828,-3.5916,-3.5922,-3.5946,-3.5995,-3.5996,-3.5996,-3.5996,-3.5996,-3.5996,-3.5996,-3.5996,-3.623,-3.7109,-3.7754,-3.8516,-3.9668,-3.9668,-3.9648,-4.0234,-3.9609,-3.9219,-3.9805,-3.9902,-3.9805,-3.9512,-3.8984,-3.8398,-3.7793,-3.7226,-3.6641,-3.6055,-3.5996,-3.5996,-3.5996,-3.5996,-3.5996,-3.5996,-3.5996,-3.5996,-3.5996,-3.5996,-3.5996,-3.5996,-3.5996,-3.5996,-3.5996,-3.593,-3.5869,-3.0712,-3.1404,0.0,0.0,-2.9857,0.0,-2.7362,0.0,0.0,0.0,0.0,0.0,0.0,0.0,0.0,0.0,0.0,0.0,0.0,0.0,0.0,0.0,0.0,0.0,0.0,0.0,-2.4749,-2.4723,0.0,0.0,0.0,0.0,-3.0395,-3.126,-3.2508,-3.3413,-3.3932,-3.399,-3.4299,-3.4789,-3.4892,-3.4944,-3.4905,-3.4078,-3.3873,-3.4127,-3.3248,-3.3546,-3.4665,-3.4665,-3.5172,-3.5972,-3.5996,-3.5995,-3.5973,-3.5996,-3.5976,-3.5952,-3.5952,-3.5896,-3.5834,-3.5834,-3.5766,-3.5717,-3.5802,-3.5834,-3.5843,-3.5875,-3.5927,-3.5952,-3.5952,-3.5975,-3.5996,-3.5996,-3.5996,-3.6328,-3.7519,-3.8203,-3.8945,-4.0137,-4.0351,-4.0351,-4.0351,-4.0351,-4.0254,-3.9941,-4.0156,-4.0059,-3.918,-3.8574,-3.7988,-3.7363,-3.6797,-3.6348,-3.6035,-3.5996,-3.5996,-3.5996,-3.5996,-3.5996,-3.5996,-3.5996,-3.5996,-3.5996,-3.5996,-3.5996,-3.5996,-3.5996,-3.5996,-3.5996,-3.5996,-3.5975]},{"header":{"parameterUnit":"m.s-1","parameterCategory":1,"la1":30.6,"la2":29.2853,"lo1":-89.7004,"lo2":-87.6739,"dy":0.0162,"dx":0.0183,"nx":112,"ny":82,"refTime":"2024-07-16T12:00:00:Z","depth":0,"parameterNumber":3,"parameterNumberName":"V-component_of_WINDS"},"data":[0.0,0.0,0.0,0.0,0.0,0.0,0.0,0.0,0.0,0.0,0.0,0.0,0.0,0.0,0.0,0.0,0.0,0.0,0.0,0.0,0.0,0.0,0.0,0.0,0.0,0.0,0.0,0.0,0.0,0.0,0.0,0.0,0.0,0.0,0.0,0.0,0.0,0.0,0.0,0.0,0.0,0.0,0.0,0.0,0.0,0.0,0.0,0.0,0.0,0.0,0.0,0.0,0.0,0.0,0.0,0.0,0.0,0.0,0.0,0.0,0.0,0.0,0.0,0.0,0.0,0.0,0.0,0.0,0.0,0.0,0.0,0.0,0.0,0.0,0.0,0.0,0.0,0.0,0.0,0.0,0.0,0.0,0.0,0.0,0.0,0.0,0.0,0.0,0.0,0.0,0.0,-1.336,-1.489,-1.5784,-1.5784,-1.5524,-1.4462,-1.2432,0.0,0.0,0.0,0.0,0.0,0.0,0.0,0.0,0.0,0.0,0.0,0.0,0.0,0.0,0.0,0.0,0.0,0.0,0.0,0.0,0.0,0.0,0.0,0.0,0.0,0.0,0.0,0.0,0.0,0.0,0.0,0.0,0.0,0.0,0.0,0.0,0.0,0.0,0.0,0.0,0.0,0.0,0.0,0.0,0.0,0.0,0.0,0.0,0.0,0.0,0.0,0.0,0.0,0.0,0.0,0.0,0.0,0.0,0.0,0.0,0.0,0.0,0.0,0.0,0.0,0.0,0.0,0.0,0.0,0.0,0.0,0.0,0.0,0.0,0.0,0.0,0.0,0.0,0.0,0.0,0.0,0.0,0.0,0.0,0.0,0.0,0.0,0.0,0.0,0.0,0.0,0.0,0.0,0.0,0.0,0.0,0.0,0.0,0.0,0.0,0.0,0.0,0.0,0.0,-1.2318,-1.4512,-1.5378,-1.5784,-1.5784,-1.5337,-1.4291,-1.2418,0.0,0.0,0.0,0.0,0.0,0.0,0.0,0.0,0.0,0.0,0.0,0.0,0.0,0.0,0.0,0.0,0.0,0.0,0.0,0.0,0.0,0.0,0.0,0.0,0.0,0.0,0.0,0.0,0.0,0.0,0.0,0.0,0.0,0.0,0.0,0.0,0.0,0.0,0.0,0.0,0.0,0.0,0.0,0.0,0.0,0.0,0.0,0.0,0.0,0.0,0.0,0.0,0.0,0.0,0.0,0.0,0.0,0.0,0.0,0.0,0.0,0.0,0.0,0.0,0.0,0.0,0.0,0.0,0.0,0.0,0.0,0.0,0.0,0.0,0.0,0.0,0.0,0.0,0.0,0.0,0.0,0.0,0.0,0.0,0.0,0.0,0.0,0.0,0.0,0.0,0.0,0.0,0.0,0.0,0.0,0.0,0.0,0.0,0.0,0.0,0.0,0.0,0.0,-1.1957,-1.3113,-1.4997,-1.5578,-1.5718,-1.5611,-1.5057,-1.3961,-1.2214,-1.1216,0.0,0.0,0.0,0.0,0.0,0.0,0.0,0.0,0.0,0.0,0.0,0.0,0.0,0.0,0.0,0.0,0.0,0.0,0.0,0.0,0.0,0.0,0.0,0.0,0.0,0.0,0.0,0.0,0.0,0.0,0.0,0.0,0.0,0.0,0.0,0.0,0.0,0.0,0.0,0.0,0.0,0.0,0.0,0.0,0.0,0.0,0.0,0.0,0.0,0.0,0.0,0.0,0.0,0.0,0.0,0.0,0.0,0.0,0.0,0.0,0.0,0.0,0.0,0.0,0.0,0.0,0.0,0.0,0.0,0.0,0.0,0.0,0.0,0.0,0.0,0.0,0.0,0.0,0.0,0.0,0.0,0.0,0.0,0.0,0.0,0.0,0.0,0.0,0.0,0.0,0.0,0.0,0.0,0.0,0.0,0.0,0.0,0.0,0.0,0.0,0.0,0.0,-1.3013,-1.3901,-1.5164,-1.5618,-1.5712,-1.5424,-1.473,-1.3614,-1.2013,-1.0635,0.0,0.0,0.0,0.0,0.0,0.0,0.0,0.0,0.0,0.0,0.0,0.0,0.0,0.0,0.0,0.0,0.0,0.0,0.0,0.0,0.0,0.0,0.0,0.0,0.0,0.0,0.0,0.0,0.0,0.0,0.0,0.0,0.0,0.0,0.0,0.0,0.0,0.0,0.0,0.0,0.0,0.0,0.0,0.0,0.0,0.0,0.0,0.0,0.0,0.0,0.0,0.0,0.0,0.0,0.0,0.0,0.0,0.0,0.0,0.0,0.0,0.0,0.0,0.0,0.0,0.0,0.0,0.0,0.0,0.0,0.0,0.0,0.0,0.0,0.0,0.0,0.0,0.0,0.0,0.0,0.0,0.0,0.0,0.0,0.0,0.0,0.0,0.0,0.0,0.0,0.0,0.0,0.0,0.0,0.0,0.0,0.0,0.0,0.0,0.0,0.0,0.0,-1.2986,-1.4275,-1.4968,-1.5491,-1.5712,-1.5424,-1.4312,-1.314,-1.198,-1.0254,0.0,0.0,0.0,0.0,0.0,0.0,0.0,0.0,0.0,0.0,0.0,0.0,0.0,0.0,0.0,0.0,0.0,0.0,0.0,0.0,0.0,0.0,0.0,0.0,0.0,0.0,0.0,0.0,0.0,0.0,0.0,0.0,0.0,0.0,0.0,0.0,0.0,0.0,0.0,0.0,0.0,0.0,0.0,0.0,0.0,0.0,0.0,0.0,0.0,0.0,0.0,0.0,0.0,0.0,0.0,0.0,0.0,0.0,0.0,0.0,0.0,0.0,0.0,0.0,0.0,0.0,0.0,0.0,0.0,0.0,0.0,0.0,0.0,0.0,0.0,0.0,0.0,0.0,0.0,0.0,0.0,0.0,0.0,0.0,0.0,0.0,0.0,0.0,0.0,0.0,0.0,0.0,0.0,0.0,0.0,0.0,0.0,0.0,0.0,0.0,0.0,0.0,-1.2492,-1.3661,0.0,-1.505,-1.517,-1.4877,-1.39,-1.2866,-1.167,0.0,0.0,0.0,0.0,0.0,0.0,0.0,0.0,0.0,0.0,0.0,0.0,0.0,0.0,0.0,0.0,0.0,0.0,0.0,0.0,0.0,0.0,0.0,0.0,0.0,0.0,0.0,0.0,0.0,0.0,0.0,0.0,0.0,0.0,0.0,0.0,0.0,0.0,0.0,0.0,0.0,0.0,0.0,0.0,0.0,0.0,0.0,0.0,0.0,0.0,0.0,0.0,0.0,0.0,0.0,0.0,0.0,0.0,0.0,0.0,0.0,0.0,0.0,0.0,0.0,0.0,0.0,0.0,0.0,0.0,0.0,0.0,0.0,0.0,0.0,0.0,0.0,0.0,0.0,0.0,0.0,0.0,0.0,0.0,0.0,0.0,0.0,0.0,0.0,0.0,0.0,0.0,0.0,0.0,0.0,0.0,0.0,0.0,0.0,0.0,0.0,0.0,-1.1189,-1.2365,-1.3414,0.0,-1.4783,-1.4847,-1.4416,-1.3487,-1.2486,-1.1451,0.0,0.0,0.0,0.0,0.0,0.0,0.0,0.0,0.0,0.0,0.0,0.0,0.0,0.0,0.0,0.0,0.0,0.0,0.0,0.0,0.0,0.0,0.0,0.0,0.0,0.0,0.0,0.0,0.0,0.0,0.0,0.0,0.0,0.0,0.0,0.0,0.0,0.0,0.0,0.0,0.0,0.0,0.0,0.0,0.0,0.0,0.0,0.0,0.0,0.0,0.0,0.0,0.0,0.0,0.0,0.0,0.0,0.0,0.0,0.0,0.0,0.0,0.0,0.0,0.0,0.0,0.0,0.0,0.0,0.0,0.0,0.0,0.0,0.0,0.0,0.0,0.0,0.0,0.0,0.0,0.0,0.0,0.0,0.0,0.0,0.0,0.0,0.0,0.0,0.0,0.0,0.0,0.0,0.0,0.0,0.0,0.0,0.0,0.0,0.0,0.0,0.0,-1.1235,-1.2681,-1.382,-1.4449,-1.4776,-1.476,-1.4135,-1.2986,-1.2044,0.0,0.0,0.0,0.0,0.0,0.0,0.0,0.0,0.0,0.0,0.0,0.0,0.0,0.0,0.0,0.0,0.0,0.0,0.0,0.0,0.0,0.0,0.0,0.0,0.0,0.0,0.0,0.0,0.0,0.0,0.0,0.0,0.0,0.0,0.0,0.0,0.0,0.0,0.0,0.0,0.0,0.0,0.0,0.0,0.0,0.0,0.0,0.0,0.0,0.0,0.0,0.0,0.0,0.0,0.0,0.0,0.0,0.0,0.0,0.0,0.0,0.0,0.0,0.0,0.0,0.0,0.0,0.0,0.0,0.0,0.0,0.0,0.0,0.0,0.0,0.0,0.0,0.0,0.0,0.0,0.0,0.0,0.0,0.0,0.0,0.0,0.0,0.0,0.0,0.0,0.0,0.0,0.0,0.0,0.0,0.0,0.0,0.0,0.0,0.0,0.0,0.0,0.0,0.0,-1.2418,-1.344,-1.382,-1.4168,-1.4195,-1.3766,-1.2866,-1.1962,-1.1177,0.0,0.0,0.0,0.0,0.0,0.0,0.0,0.0,0.0,0.0,0.0,0.0,0.0,0.0,0.0,0.0,0.0,0.0,0.0,0.0,0.0,0.0,0.0,0.0,0.0,0.0,0.0,0.0,0.0,0.0,0.0,0.0,0.0,0.0,0.0,0.0,0.0,0.0,0.0,0.0,0.0,0.0,0.0,0.0,0.0,0.0,0.0,0.0,0.0,0.0,0.0,0.0,0.0,0.0,0.0,0.0,0.0,0.0,0.0,0.0,0.0,0.0,0.0,0.0,0.0,0.0,0.0,0.0,0.0,0.0,0.0,0.0,0.0,0.0,0.0,0.0,0.0,0.0,0.0,0.0,0.0,0.0,0.0,0.0,0.0,0.0,0.0,0.0,0.0,0.0,0.0,0.0,0.0,0.0,0.0,0.0,0.0,0.0,0.0,0.0,0.0,0.0,-1.0868,-1.2184,-1.314,-1.34,-1.3734,-1.3741,-1.332,-1.2579,-1.1809,-1.1015,0.0,0.0,0.0,0.0,0.0,0.0,0.0,0.0,0.0,0.0,0.0,0.0,0.0,0.0,0.0,0.0,0.0,0.0,0.0,0.0,0.0,0.0,0.0,0.0,0.0,0.0,0.0,0.0,0.0,0.0,0.0,0.0,0.0,0.0,0.0,0.0,0.0,0.0,0.0,0.0,0.0,0.0,0.0,0.0,0.0,0.0,0.0,0.0,0.0,0.0,0.0,0.0,0.0,0.0,0.0,0.0,0.0,0.0,0.0,0.0,0.0,0.0,0.0,0.0,0.0,0.0,0.0,0.0,0.0,0.0,0.0,0.0,0.0,0.0,0.0,0.0,0.0,0.0,0.0,0.0,0.0,0.0,0.0,0.0,0.0,0.0,0.0,0.0,0.0,0.0,0.0,0.0,0.0,0.0,0.0,0.0,0.0,0.0,0.0,0.0,0.0,0.0,-1.0808,-1.204,-1.2891,-1.3133,-1.3387,-1.3373,-1.2837,-1.2248,-1.1621,-1.0943,0.0,0.0,0.0,0.0,0.0,0.0,0.0,0.0,0.0,0.0,0.0,0.0,0.0,0.0,0.0,0.0,0.0,0.0,0.0,0.0,0.0,0.0,0.0,0.0,0.0,0.0,0.0,0.0,0.0,0.0,0.0,0.0,0.0,0.0,0.0,0.0,0.0,0.0,0.0,0.0,0.0,0.0,0.0,0.0,0.0,0.0,0.0,0.0,0.0,0.0,0.0,0.0,0.0,0.0,0.0,0.0,0.0,0.0,0.0,0.0,-0.5261,0.0,0.0,0.0,0.0,0.0,0.0,0.0,0.0,0.0,0.0,0.0,0.0,0.0,0.0,0.0,0.0,0.0,0.0,0.0,0.0,0.0,0.0,0.0,0.0,0.0,0.0,0.0,0.0,0.0,0.0,0.0,0.0,0.0,0.0,0.0,0.0,0.0,0.0,0.0,0.0,0.0,-1.0593,-1.1913,-1.2811,-1.2878,-1.312,-1.3153,-1.2817,-1.2248,-1.1632,-1.1004,0.0,0.0,0.0,0.0,0.0,0.0,0.0,0.0,0.0,0.0,0.0,0.0,0.0,0.0,0.0,0.0,0.0,0.0,0.0,0.0,0.0,0.0,0.0,0.0,0.0,0.0,0.0,0.0,0.0,0.0,0.0,0.0,0.0,0.0,0.0,0.0,0.0,0.0,0.0,0.0,0.0,0.0,0.0,0.0,0.0,0.0,0.0,0.0,0.0,0.0,0.0,0.0,0.0,0.0,0.0,0.0,0.0,0.0,0.0,0.0,0.0,-0.5525,0.0,0.0,0.0,0.0,0.0,0.0,0.0,0.0,0.0,0.0,0.0,0.0,0.0,0.0,0.0,0.0,0.0,0.0,0.0,0.0,0.0,0.0,0.0,0.0,0.0,0.0,0.0,0.0,0.0,0.0,0.0,0.0,0.0,0.0,0.0,0.0,0.0,0.0,0.0,0.0,-1.0512,-1.1752,-1.2569,-1.2569,-1.2844,-1.2904,-1.2596,-1.1997,-1.1463,-1.1022,-1.1017,0.0,0.0,0.0,0.0,0.0,0.0,0.0,0.0,0.0,0.0,0.0,0.0,0.0,0.0,0.0,0.0,0.0,0.0,0.0,0.0,0.0,0.0,0.0,0.0,0.0,0.0,0.0,0.0,0.0,0.0,0.0,0.0,0.0,0.0,0.0,0.0,0.0,0.0,0.0,0.0,0.0,0.0,0.0,0.0,0.0,0.0,0.0,0.0,0.0,0.0,0.0,0.0,0.0,0.0,-0.4928,-0.5153,-0.3347,-0.2777,-0.3186,-0.379,-0.4917,-0.6254,0.0,0.0,0.0,0.0,0.0,0.0,0.0,0.0,0.0,0.0,0.0,0.0,0.0,0.0,0.0,0.0,0.0,0.0,0.0,0.0,0.0,0.0,0.0,0.0,0.0,-1.2148,-1.2124,0.0,0.0,0.0,0.0,0.0,0.0,0.0,0.0,0.0,0.0,0.0,0.0,-1.0593,-1.161,-1.2305,-1.2305,-1.2556,-1.2603,-1.2325,-1.1764,-1.1323,-1.1082,-1.1533,-1.1407,0.0,0.0,0.0,0.0,0.0,0.0,0.0,0.0,0.0,0.0,0.0,0.0,0.0,0.0,0.0,0.0,0.0,0.0,0.0,0.0,0.0,0.0,0.0,0.0,0.0,0.0,0.0,0.0,0.0,0.0,0.0,0.0,-0.0387,-0.1429,0.0,0.0,0.0,0.0,0.0,0.0,0.0,0.0,0.0,0.0,0.0,0.0,0.0,0.0,-0.7448,-0.7706,-0.7813,-0.7874,-0.5419,-0.4316,-0.4271,-0.1594,-0.1073,-0.2189,-0.2281,0.0,-0.3906,-0.4578,0.0,0.0,0.0,0.0,0.0,0.0,0.0,0.0,0.0,0.0,0.0,0.0,0.0,0.0,0.0,0.0,0.0,0.0,0.0,0.0,0.0,0.0,-1.3667,-1.3373,-1.3373,-1.3293,0.0,-1.1563,-1.0486,-1.0332,0.0,0.0,0.0,0.0,0.0,0.0,0.0,0.0,-1.0862,-1.1737,-1.2305,-1.2305,-1.2338,-1.2345,-1.2305,-1.1764,-1.1375,-1.1335,-1.1958,-1.2253,-1.2086,-1.2234,0.0,0.0,0.0,0.0,0.0,0.0,0.0,0.0,0.0,0.0,0.0,0.0,0.0,0.0,0.0,0.0,0.0,0.0,0.0,0.0,0.0,0.0,0.0,0.0,0.0,0.0,0.0,0.0,0.0,0.0,-0.0208,-0.0735,-0.0621,-0.096,0.0,0.0,0.0,0.0,0.0,0.0,0.0,0.0,0.0,-0.7493,-0.7699,-0.7879,-0.8092,-0.8225,-0.833,-0.8366,-0.6409,-0.5112,-0.4307,-0.2194,-0.1116,-0.0894,-0.0878,-0.1111,-0.1618,-0.3238,-0.4278,-0.4843,0.0,0.0,0.0,0.0,0.0,-0.6458,-0.6627,-0.6685,0.0,0.0,0.0,0.0,0.0,0.0,0.0,0.0,0.0,0.0,0.0,0.0,0.0,-1.3848,-1.3895,-1.3861,-1.3728,-1.2959,-1.2098,0.0,-1.1116,-1.0576,-0.9492,0.0,0.0,0.0,0.0,0.0,-1.1202,-1.1857,-1.2305,-1.2305,-1.2305,-1.2238,-1.2107,-1.167,-1.1322,-1.1189,-1.1718,-1.2172,-1.2401,-1.2511,-1.2387,0.0,0.0,0.0,0.0,0.0,0.0,0.0,0.0,0.0,0.0,0.0,0.0,0.0,0.0,0.0,0.0,0.0,0.0,0.0,0.0,0.0,0.0,0.0,0.0,0.0,0.0,0.0,0.0,0.0,-0.0112,-0.0409,-0.02,-0.0612,0.0,0.0,0.0,0.0,0.0,0.0,-0.7152,-0.7461,-0.7787,-0.8147,-0.8323,-0.8452,-0.8598,-0.8601,-0.8655,-0.8713,-0.7231,-0.6027,-0.4988,-0.3496,-0.1951,-0.059,-0.0579,-0.0365,-0.0155,-0.2121,-0.343,-0.4274,-0.4246,-0.5136,-0.6401,-0.6367,-0.6664,-0.7132,-0.7353,-0.7431,-0.738,-0.7082,0.0,-0.8036,-0.8842,0.0,0.0,0.0,0.0,-1.2643,-1.3353,0.0,-1.3547,-1.3981,-1.4088,-1.4088,-1.4088,-1.3915,-1.3433,0.0,-1.2371,-1.1957,-1.0494,0.0,0.0,0.0,0.0,-1.1415,-1.153,-1.1984,-1.2305,-1.2305,-1.2305,-1.2184,-1.1933,-1.1597,-1.1303,-1.1009,-1.1492,-1.1996,-1.2372,-1.2718,-1.2658,-1.2111,0.0,0.0,0.0,0.0,0.0,0.0,0.0,0.0,0.0,0.0,0.0,0.0,0.0,0.0,0.0,0.0,0.0,0.0,0.0,0.0,0.0,0.0,0.0,0.0,0.0,0.0,0.0,0.0,0.0,-0.1577,-0.0704,0.0,0.0,0.0,0.0,-0.5654,-0.6816,-0.7624,-0.7917,-0.8136,-0.8364,-0.8665,-0.8682,-0.876,-0.8858,-0.8861,-0.8865,-0.8871,-0.7418,-0.6637,-0.6521,-0.5049,-0.3541,-0.207,-0.2087,-0.1316,-0.0104,-0.1342,-0.1904,-0.2089,-0.3071,-0.4352,-0.5642,-0.5494,-0.6366,-0.7567,-0.7584,-0.7587,-0.7607,-0.7719,-0.7919,-0.8452,-0.989,-1.072,0.0,0.0,-1.3975,-1.4048,-1.4369,-1.4249,-1.4048,-1.4082,-1.4088,-1.4088,-1.4088,-1.4075,-1.3961,0.0,-1.3106,-1.2556,-1.1906,0.0,-1.1276,-1.0949,-1.1202,-1.153,-1.1846,-1.2111,-1.2305,-1.2305,-1.2305,-1.2184,-1.1933,-1.1597,-1.1303,-1.1009,-1.1492,-1.1996,-1.2372,-1.2718,-1.2555,-1.183,-1.098,0.0,0.0,0.0,0.0,0.0,0.0,0.0,0.0,0.0,0.0,0.0,0.0,0.0,0.0,0.0,0.0,0.0,0.0,0.0,0.0,0.0,0.0,0.0,0.0,0.0,0.0,0.0,0.0,-0.0584,-0.0283,0.0,0.0,-0.3406,-0.4538,-0.5845,-0.7347,-0.8255,-0.8459,-0.8523,-0.8689,-0.8988,-0.8994,-0.9069,-0.9222,-0.9127,-0.9076,-0.9076,-0.8422,-0.7595,-0.67,-0.616,-0.5094,-0.3654,-0.37,-0.3314,-0.2678,-0.2256,-0.2017,-0.1991,-0.2355,-0.3328,-0.4571,-0.4493,-0.5384,-0.6551,-0.6551,-0.7143,-0.7875,-0.7828,-0.8287,-0.9009,-0.9555,-1.035,-1.1273,-1.1976,-1.216,-1.2327,-1.3059,-1.3193,-1.3299,-1.3952,-1.4088,-1.4088,-1.4088,-1.4088,-1.4055,-1.3948,-1.3601,-1.3073,-1.2285,-1.2254,-1.2044,-1.1369,-1.1683,-1.2031,-1.2138,-1.2238,-1.2305,-1.2305,-1.2305,-1.2104,-1.1623,-1.1483,-1.1102,-1.0468,-1.0599,-1.1107,-1.2032,-1.1534,-1.1556,-1.2229,-1.0662,-0.9209,0.0,0.0,0.0,0.0,0.0,0.0,0.0,0.0,0.0,0.0,0.0,0.0,0.0,0.0,0.0,0.0,0.0,0.0,0.0,0.0,0.0,0.0,0.0,0.0,0.0,0.0,0.0,0.0,0.0,-0.051,-0.1751,-0.2887,-0.426,-0.6046,-0.7213,-0.8157,-0.8852,-0.8859,-0.8974,-0.9279,-0.9286,-0.9337,-0.9381,-0.934,-0.9262,-0.9207,-0.9055,-0.8477,-0.7426,-0.7426,-0.6647,-0.5248,-0.5243,-0.4826,-0.4133,-0.325,-0.2777,-0.2564,-0.1661,-0.2163,-0.3316,-0.3316,-0.4168,-0.5375,-0.5827,-0.6883,-0.7971,-0.7874,-0.8297,-0.8965,-0.9393,-1.0094,-1.0843,-1.1266,-1.13,-1.1374,-1.2018,-1.2076,-1.213,-1.2753,-1.2912,-1.3039,-1.3428,-1.3512,-1.3603,-1.3997,-1.3928,-1.3533,-1.2872,-1.2839,-1.271,-1.1977,-1.2118,-1.2305,-1.2305,-1.2305,-1.2305,-1.2305,-1.2305,-1.2064,-1.1442,-1.1336,-1.0989,-1.0307,-1.008,-1.0536,-1.1763,-1.0856,-1.0819,-1.1904,-0.9916,-0.8701,-0.8296,0.0,0.0,0.0,0.0,0.0,0.0,0.0,0.0,0.0,0.0,0.0,0.0,0.0,0.0,0.0,0.0,0.0,0.0,0.0,0.0,0.0,0.0,0.0,0.0,0.0,0.0,0.0,0.0,-0.053,-0.182,-0.209,-0.3386,-0.6164,-0.6594,-0.7432,-0.9037,-0.9161,-0.9286,-0.9384,-0.9388,-0.9391,-0.9395,-0.9391,-0.9313,-0.9224,-0.9214,-0.9079,-0.8892,-0.8885,-0.8097,-0.6758,-0.6758,-0.5859,-0.435,-0.4295,-0.4205,-0.3815,-0.1159,-0.0907,-0.2063,-0.2013,-0.2865,-0.4216,-0.5575,-0.6933,-0.7988,-0.7988,-0.7988,-0.8237,-0.9558,-0.9953,-1.0194,-1.1409,-1.1591,-1.1368,-1.1246,-1.0985,-1.0721,-1.0623,-1.0611,-1.0913,-1.2066,-1.2285,-1.2674,-1.3864,-1.4088,-1.3988,-1.3653,-1.336,-1.3106,-1.2831,-1.2492,0.0,-1.2305,-1.2305,-1.2305,-1.2305,-1.2305,-1.2064,-1.1442,-1.1169,-1.0901,-1.0586,-1.003,-1.0286,-1.1599,-1.0774,-1.0417,-1.0736,-0.8899,-0.7939,-0.7943,0.0,0.0,0.0,0.0,0.0,0.0,0.0,0.0,0.0,0.0,0.0,0.0,0.0,0.0,0.0,0.0,0.0,0.0,0.0,0.0,0.0,0.0,0.0,0.0,0.0,0.0,0.0,0.0,-0.0164,-0.0502,-0.1576,-0.2557,-0.3332,-0.5539,-0.7067,-0.7506,-0.8676,-0.9388,-0.9544,-0.9547,-0.9595,-0.97,-0.9598,-0.9527,-0.9483,-0.9316,-0.9187,-0.9089,-0.8988,-0.866,-0.8322,-0.8322,-0.794,-0.7261,-0.6253,-0.5709,-0.5275,-0.3566,-0.3115,-0.3316,-0.2363,-0.2865,-0.4316,-0.6628,-0.7686,-0.7988,-0.7988,-0.7988,-0.8088,-0.8432,-0.8528,-0.8627,-0.897,-0.903,-0.9121,-0.9707,-0.9767,-0.9867,-1.044,-1.0611,-1.0913,-1.2066,-1.2285,-1.2674,-1.3864,-1.4088,-1.3988,-1.3653,-1.336,-1.3106,-1.2831,0.0,0.0,-1.2305,-1.2305,-1.2305,-1.2305,-1.2305,-1.2064,-1.1442,-1.1322,-1.0909,0.0,-0.9802,-1.0002,-1.0669,-0.9928,-0.9549,-0.9641,-0.9112,-0.8794,0.0,0.0,0.0,0.0,0.0,0.0,0.0,0.0,0.0,0.0,0.0,0.0,0.0,0.0,0.0,0.0,0.0,0.0,0.0,0.0,0.0,0.0,0.0,0.0,0.0,0.0,0.0,0.0,0.0,0.0,0.0,-0.0804,-0.1559,-0.217,-0.4571,-0.5992,-0.5974,-0.8228,-0.9245,-0.872,-0.9333,-0.9737,-0.9822,-0.9741,-0.9635,-0.951,-0.9334,-0.9184,-0.9059,-0.8977,-0.8885,0.0,-0.8885,-0.8801,-0.8517,-0.7709,-0.7197,0.0,0.0,0.0,0.0,0.0,-0.3667,-0.507,-0.6628,-0.7537,-0.7988,-0.7988,-0.7988,-0.7988,-0.7988,-0.7988,-0.7988,-0.7988,-0.7988,-0.8082,-0.8545,-0.8616,-0.8679,-0.9157,-0.9196,-0.944,-1.0611,-1.1252,-1.1943,-1.3118,0.0,0.0,-1.3854,-1.3487,-1.3153,-1.3005,-1.2579,-1.2305,0.0,-1.2305,-1.2305,-1.2305,-1.2305,-1.2111,-1.165,-1.1383,0.0,0.0,0.0,-0.98,-1.0037,-0.9911,0.0,0.0,0.0,0.0,0.0,0.0,0.0,0.0,-1.2705,-1.3334,0.0,0.0,0.0,0.0,0.0,0.0,0.0,0.0,0.0,0.0,0.0,0.0,0.0,0.0,0.0,0.0,0.0,0.0,0.0,0.0,0.0,0.0,0.0,0.0,0.0,0.0,-0.0522,-0.1828,-0.348,-0.4508,-0.4692,0.0,0.0,0.0,0.0,-0.9822,-0.9822,-0.9822,-0.9683,-0.9408,-0.9391,-0.9235,-0.8905,-0.8892,-0.8885,-0.8885,-0.8885,-0.8797,-0.8699,-0.8547,-0.8387,-0.8021,-0.5457,-0.4368,-0.4268,-0.4416,-0.5122,0.0,0.0,0.0,0.0,-0.7988,-0.7988,-0.7988,-0.7988,-0.7988,-0.7988,-0.7988,-0.7988,-0.7951,-0.7831,-0.7695,-0.7556,-0.7383,-0.7241,-0.7448,-0.8627,-0.971,-1.074,-1.1895,-1.3075,-1.3913,-1.3913,-1.3519,-1.3213,-1.3213,-1.2692,0.0,-1.2305,-1.2305,-1.2305,-1.2305,0.0,0.0,-1.1933,-1.1424,-1.1049,-1.0949,-1.018,-0.9733,-0.9733,-1.0357,-1.0379,-0.9762,-0.9829,-1.0104,-1.0593,-1.1486,-1.2663,-1.409,-1.4185,-1.4712,0.0,0.0,0.0,0.0,0.0,0.0,0.0,0.0,0.0,0.0,0.0,0.0,0.0,0.0,0.0,0.0,0.0,0.0,0.0,0.0,0.0,0.0,0.0,0.0,0.0,0.0,-0.0119,-0.0427,-0.1953,-0.3479,-0.4772,-0.6722,0.0,-0.9326,-0.9636,-0.9822,-0.9822,-0.9822,-0.9734,-0.9564,0.0,0.0,-0.911,-0.8991,-0.8885,-0.8885,-0.8885,-0.8797,-0.8699,-0.8547,-0.8323,-0.7982,-0.7444,-0.6578,-0.5727,-0.683,-0.6731,-0.6179,-0.7235,-0.7786,-0.7988,-0.7988,-0.7988,-0.7988,-0.7988,-0.7988,0.0,-0.7988,-0.7988,-0.7928,-0.7709,-0.7621,-0.7529,-0.7206,-0.7119,-0.7448,-0.8627,-0.9065,-0.9579,-1.0697,-1.1858,-1.2632,-1.2632,-1.2962,-1.3213,-1.3213,-1.2692,-1.2305,-1.2305,-1.2305,-1.2305,-1.2305,-1.2305,-1.2184,-1.1933,-1.1799,-1.1437,-1.072,-1.0261,-1.0033,-1.0033,-1.0414,-1.0428,-1.004,-1.0494,-1.0713,-1.0593,-1.1909,-1.307,-1.4115,-1.4753,-1.5567,0.0,0.0,0.0,0.0,0.0,0.0,0.0,0.0,0.0,0.0,0.0,0.0,0.0,0.0,0.0,0.0,0.0,0.0,0.0,0.0,0.0,0.0,0.0,0.0,0.0,0.0,0.0,0.0,-0.1541,-0.2831,-0.3629,-0.6075,-0.7789,-0.8587,-0.939,-0.9822,-0.9822,-0.9822,-0.971,-0.9493,-0.9418,-0.9262,-0.9045,-0.8971,-0.8885,-0.8885,-0.8885,-0.8841,-0.8808,-0.8577,-0.8306,-0.7988,-0.7988,-0.7587,-0.7083,-0.7736,-0.7587,-0.7083,-0.7786,-0.7988,-0.7988,-0.7988,-0.7988,-0.7988,-0.7988,-0.7988,-0.7988,-0.7988,-0.7988,-0.7938,-0.7763,-0.7651,-0.7543,-0.7309,-0.7152,-0.7272,-0.7885,-0.8496,-0.9061,-0.9623,-1.0654,-1.1466,-1.1466,-1.1492,-1.1936,-1.3048,-1.2692,-1.2305,-1.2305,-1.2305,-1.2305,-1.2305,-1.2305,-1.2245,-1.2098,-1.1986,-1.1651,-1.1029,-1.0722,-1.0621,-1.0762,-1.0775,-1.0775,-1.0736,-1.1062,-1.1209,-1.1249,-1.195,-1.286,-1.3904,-1.4823,-1.5891,0.0,0.0,0.0,0.0,0.0,0.0,0.0,0.0,0.0,0.0,0.0,0.0,0.0,0.0,0.0,0.0,0.0,0.0,0.0,0.0,0.0,0.0,0.0,0.0,0.0,0.0,0.0,0.0,-0.1233,-0.2278,-0.2954,-0.5464,-0.7177,-0.785,-0.9143,-0.9822,-0.9822,-0.9822,-0.9686,-0.9425,-0.9395,-0.9239,-0.8981,-0.8895,-0.8885,-0.8885,-0.8885,-0.8865,-0.8817,-0.8598,-0.8323,-0.8032,-0.8002,-0.7988,-0.7988,-0.7988,-0.7988,-0.7988,-0.7988,-0.7988,-0.7988,-0.7988,-0.7988,-0.7988,-0.7988,-0.7988,-0.7988,-0.7988,-0.7988,-0.7948,-0.7818,-0.7685,-0.7553,-0.737,-0.7231,-0.7095,-0.7095,-0.7885,-0.854,-0.854,-0.9492,-1.0269,-1.0269,-1.0104,-1.0603,-1.2565,-1.2374,-1.2077,-1.2268,-1.2305,-1.2305,-1.2305,-1.2305,-1.2305,-1.2305,-1.2037,-1.1764,-1.1523,-1.1236,-1.1182,-1.1382,-1.1202,-1.1189,-1.1389,-1.1449,-1.163,-1.1906,-1.196,-1.2569,-1.3709,-1.4522,-1.5748,0.0,0.0,0.0,0.0,0.0,0.0,0.0,0.0,0.0,0.0,0.0,0.0,0.0,0.0,0.0,0.0,0.0,0.0,0.0,0.0,0.0,0.0,0.0,0.0,0.0,0.0,0.0,0.0,-0.0185,-0.154,-0.4488,-0.4977,-0.6508,-0.9451,-0.9697,-0.9822,-0.9822,-0.9822,-0.9741,-0.9585,-0.9445,-0.9293,-0.918,-0.8998,-0.8885,-0.8885,-0.8885,-0.8807,-0.8723,-0.8554,-0.8387,-0.8231,-0.8092,-0.7988,-0.7988,-0.7988,-0.7988,-0.7988,-0.7988,-0.7988,-0.7988,-0.7988,-0.7988,-0.7988,-0.7988,-0.7988,-0.7988,-0.7988,-0.7988,-0.7924,-0.7695,-0.7611,-0.7526,-0.7189,-0.7109,-0.7095,-0.7095,-0.7183,-0.7316,-0.7316,-0.8277,-0.9104,-0.9104,-0.9691,-1.0507,-1.1525,-1.1278,-1.1279,-1.2187,-1.2305,-1.2305,-1.2305,-1.2305,-1.2305,-1.2305,-1.2037,-1.1893,-1.1859,-1.1543,-1.1362,-1.1389,-1.1362,-1.1362,-1.1389,-1.1683,-1.1873,-1.1906,-1.2131,-1.2741,-1.3709,-1.3818,-1.489,0.0,0.0,0.0,0.0,0.0,0.0,0.0,0.0,0.0,0.0,0.0,0.0,0.0,0.0,0.0,0.0,0.0,0.0,0.0,0.0,0.0,0.0,0.0,0.0,0.0,0.0,0.0,0.0,0.0,-0.1417,-0.4732,-0.4916,-0.6385,-0.9697,-0.9822,-0.9822,-0.9822,-0.9822,-0.9751,-0.9608,-0.9544,-0.9388,-0.9207,-0.9089,-0.9018,-0.8885,-0.8885,-0.8797,-0.8699,-0.8547,-0.8397,-0.8255,-0.8099,-0.7988,-0.7988,-0.7988,-0.7988,-0.7988,-0.7988,-0.7988,-0.7988,-0.7988,-0.7988,-0.7988,-0.7988,-0.7988,-0.7988,-0.7988,-0.7924,-0.7858,-0.7651,-0.7533,-0.7411,-0.7146,-0.7095,-0.7095,-0.7095,-0.7095,-0.7095,-0.7095,-0.7489,-0.7841,-0.7841,-0.8092,-0.883,-1.0486,-1.083,-1.1268,-1.217,-1.2305,-1.2305,-1.2305,-1.2305,-1.2305,-1.2305,-1.2191,-1.2124,-1.2124,-1.1844,-1.1757,-1.1931,-1.1777,-1.1764,-1.1931,-1.2058,-1.2124,-1.2124,-1.2245,-1.2519,-1.2915,-1.3455,-1.4135,0.0,0.0,0.0,0.0,0.0,0.0,0.0,0.0,0.0,0.0,0.0,0.0,0.0,0.0,0.0,0.0,0.0,0.0,0.0,0.0,0.0,0.0,0.0,0.0,0.0,0.0,0.0,0.0,0.0,-0.1411,-0.4732,-0.4916,-0.6385,-0.9697,-0.9822,-0.9822,-0.9822,-0.9822,-0.9771,-0.9666,-0.9585,-0.9432,-0.9268,-0.913,-0.9035,-0.8885,-0.8885,-0.8821,-0.876,-0.8608,-0.8459,-0.8316,-0.8163,-0.8025,-0.7988,-0.7988,-0.7988,-0.7988,-0.7988,-0.7988,-0.7988,-0.7988,-0.7988,-0.7988,-0.7988,-0.7988,-0.7988,-0.7988,-0.7911,-0.7831,-0.7648,-0.7516,-0.7383,-0.7142,-0.7095,-0.7095,-0.7095,-0.7095,-0.7095,-0.7095,-0.7095,-0.7095,-0.7095,-0.7011,-0.7565,-0.9414,-0.9994,-1.0762,-1.2234,-1.2351,-1.2305,-1.2305,-1.2305,-1.2305,-1.2305,-1.2305,-1.2305,-1.2305,-1.2104,-1.2084,-1.2291,-1.2098,-1.2091,-1.2298,-1.2305,-1.2305,-1.2305,-1.2305,-1.2305,-1.2335,-1.2989,-1.3455,0.0,0.0,0.0,0.0,0.0,0.0,0.0,0.0,0.0,0.0,0.0,0.0,0.0,0.0,0.0,0.0,0.0,0.0,0.0,0.0,0.0,0.0,0.0,0.0,0.0,0.0,0.0,0.0,0.0,-0.1456,-0.4729,-0.4916,-0.6385,-0.9697,-0.9822,-0.9822,-0.9822,-0.9822,-0.9819,-0.9812,-0.9527,-0.9384,-0.9364,-0.9076,-0.8888,-0.8885,-0.8885,-0.8881,-0.8865,-0.8767,-0.8615,-0.8462,-0.8319,-0.817,-0.7988,-0.7988,-0.7988,-0.7988,-0.7988,-0.7988,-0.7988,-0.7988,-0.7988,-0.7988,-0.7988,-0.7988,-0.7988,-0.7988,-0.7985,-0.7917,-0.7675,-0.7597,-0.7516,-0.7169,-0.7095,-0.7095,-0.7095,-0.7095,-0.7095,-0.7095,-0.7095,-0.7095,-0.7095,-0.7092,-0.7388,-0.83,-0.8363,-0.9375,-1.2414,-1.2516,-1.2305,-1.2305,-1.2305,-1.2305,-1.2305,-1.2305,-1.2305,-1.2305,-1.2291,-1.2291,-1.2305,-1.2291,-1.2291,-1.2305,-1.2305,-1.2305,-1.2305,-1.2305,-1.2305,-1.2305,-1.2342,-1.2842,0.0,0.0,0.0,0.0,0.0,0.0,0.0,0.0,0.0,0.0,0.0,0.0,0.0,0.0,0.0,0.0,0.0,0.0,0.0,0.0,0.0,0.0,0.0,0.0,0.0,0.0,0.0,0.0,0.0,-0.097,-0.3197,-0.4303,-0.5896,-0.8158,-0.9265,-0.9822,-0.9822,-0.9822,-0.9822,-0.9819,-0.9523,-0.9327,-0.9279,-0.9028,-0.8885,-0.8885,-0.8885,-0.8885,-0.8871,-0.8774,-0.8621,-0.8469,-0.8378,-0.8177,-0.7988,-0.7988,-0.7988,-0.7988,-0.7988,-0.7988,-0.7988,-0.7988,-0.7988,-0.7988,-0.7988,-0.7988,-0.7988,-0.7988,-0.7917,-0.7841,-0.7651,-0.7522,-0.7397,-0.7146,-0.7095,-0.7095,-0.7095,-0.7095,-0.7095,-0.7095,-0.7095,-0.7095,-0.7095,-0.7095,-0.7356,-0.8138,-0.8702,-0.9645,-1.1256,-1.1372,-1.1545,-1.2224,-1.2305,-1.2305,-1.2305,-1.2305,-1.2305,-1.2305,-1.2305,-1.2305,-1.2305,-1.2305,-1.2305,-1.2305,-1.2305,-1.2305,-1.2305,-1.2305,-1.2305,-1.2305,-1.2305,-1.2482,0.0,0.0,0.0,0.0,0.0,0.0,0.0,0.0,0.0,0.0,0.0,0.0,0.0,0.0,0.0,0.0,0.0,0.0,0.0,0.0,0.0,0.0,0.0,0.0,0.0,0.0,0.0,0.0,0.0,-0.0728,-0.2399,-0.3506,-0.5098,-0.7299,-0.7792,-0.8346,-0.8958,-0.8346,-0.83,-0.8752,-0.858,-0.8692,-0.9072,-0.8981,-0.8885,-0.8885,-0.8885,-0.8885,-0.8875,-0.8832,-0.8669,-0.8472,-0.8381,-0.8221,-0.7988,-0.7988,-0.7988,-0.7988,-0.7988,-0.7988,-0.7988,-0.7988,-0.7988,-0.7988,-0.7988,-0.7988,-0.7988,-0.7988,-0.7921,-0.7848,-0.7651,-0.7526,-0.74,-0.7146,-0.7095,-0.7095,-0.7095,-0.7095,-0.7095,-0.7095,-0.7095,-0.7095,-0.7095,-0.7095,-0.7338,-0.8098,-0.8667,-0.9463,-1.0643,-1.0783,-1.1205,-1.2187,-1.2305,-1.2305,-1.2305,-1.2305,-1.2305,-1.2305,-1.2305,-1.2305,-1.2305,-1.2305,-1.2305,-1.2305,-1.2305,-1.2305,-1.2305,-1.2305,-1.2305,-1.2305,-1.2305,-1.2305,0.0,0.0,0.0,0.0,0.0,0.0,0.0,0.0,0.0,0.0,0.0,0.0,0.0,0.0,0.0,0.0,0.0,0.0,0.0,0.0,0.0,0.0,0.0,0.0,0.0,0.0,0.0,0.0,0.0,-0.0667,-0.2277,-0.2462,-0.3933,-0.7055,-0.571,-0.5649,-0.7238,-0.571,-0.5563,-0.6796,-0.6854,-0.7549,-0.8771,-0.8881,-0.8885,-0.8885,-0.8885,-0.8885,-0.8885,-0.8875,-0.875,-0.8482,-0.8472,-0.8296,-0.7988,-0.7988,-0.7988,-0.7988,-0.7988,-0.7988,-0.7988,-0.7988,-0.7988,-0.7988,-0.7988,-0.7988,-0.7988,-0.7988,-0.7988,-0.7924,-0.7685,-0.7604,-0.7522,-0.7179,-0.7102,-0.7095,-0.7095,-0.7095,-0.7095,-0.7095,-0.7095,-0.7095,-0.7095,-0.7095,-0.7342,-0.811,-0.8213,-0.8832,-1.0585,-1.0783,-1.1205,-1.2187,-1.2305,-1.2305,-1.2305,-1.2305,-1.2305,-1.2305,-1.2305,-1.2305,-1.2305,-1.2305,-1.2305,-1.2305,-1.2305,-1.2305,-1.2305,-1.2305,-1.2305,-1.2305,-1.2305,-1.2311,0.0,0.0,0.0,0.0,0.0,0.0,0.0,0.0,0.0,0.0,0.0,0.0,0.0,0.0,0.0,0.0,0.0,0.0,0.0,0.0,0.0,0.0,0.0,0.0,0.0,0.0,0.0,0.0,0.0,-0.0182,-0.0616,-0.1848,-0.2892,-0.3751,-0.4487,-0.51,-0.5527,-0.51,-0.5022,-0.5274,-0.6385,-0.7028,-0.7315,-0.838,-0.8885,-0.8885,-0.8885,-0.8885,-0.8875,-0.8815,-0.8655,-0.8472,-0.8367,-0.8208,-0.7988,-0.7988,-0.7988,-0.7988,-0.7988,-0.7988,-0.7988,-0.7988,-0.7988,-0.7988,-0.7988,-0.7988,-0.7988,-0.7988,-0.7988,-0.7944,-0.7804,-0.7678,-0.755,-0.736,-0.7224,-0.7095,-0.7095,-0.7095,-0.7095,-0.7095,-0.7095,-0.7095,-0.7095,-0.7095,-0.7421,-0.8404,-0.8375,-0.8832,-1.0585,-1.0783,-1.1205,-1.2187,-1.2305,-1.2305,-1.2305,-1.2305,-1.2305,-1.2305,-1.2305,-1.2305,-1.2305,-1.2305,-1.2305,-1.2305,-1.2305,-1.2305,-1.2305,-1.2305,-1.2305,-1.2305,-1.2305,-1.2418,0.0,0.0,0.0,0.0,0.0,0.0,0.0,0.0,0.0,0.0,0.0,0.0,0.0,0.0,0.0,0.0,0.0,0.0,0.0,0.0,0.0,0.0,0.0,0.0,0.0,0.0,0.0,0.0,0.0,0.0,0.0,-0.0863,-0.1725,-0.2462,-0.2647,-0.277,-0.277,-0.277,-0.3028,-0.3636,-0.4454,-0.5475,-0.6702,-0.754,-0.8266,-0.8885,0.0,-0.8885,-0.8871,-0.8774,-0.8621,-0.8469,-0.8378,-0.8177,-0.7988,-0.7988,-0.7988,-0.7988,-0.7988,-0.7988,-0.7988,-0.7988,-0.7988,-0.7988,-0.7988,-0.7988,-0.7988,-0.7988,-0.7988,-0.7941,-0.7773,-0.7658,-0.7543,-0.7322,-0.7204,-0.7095,-0.7095,-0.7095,-0.7095,-0.7095,-0.7095,-0.7272,-0.7797,-0.7885,-0.8388,-0.9892,-0.9843,-1.0141,-1.1512,-1.116,-1.1205,-1.2187,-1.2305,-1.2305,-1.2305,-1.2305,-1.2305,-1.2305,-1.2305,-1.2305,-1.2305,-1.2305,-1.2305,-1.2305,-1.2305,-1.2305,-1.2305,-1.2305,-1.2305,-1.2305,-1.2305,-1.2392,0.0,0.0,0.0,0.0,0.0,0.0,0.0,0.0,0.0,0.0,0.0,0.0,0.0,0.0,0.0,0.0,0.0,0.0,0.0,0.0,0.0,0.0,0.0,0.0,0.0,0.0,0.0,0.0,0.0,0.0,0.0,0.0,-0.0679,-0.2094,-0.074,0.0,0.0,0.0,-0.0666,-0.1938,-0.2109,-0.3684,-0.6422,-0.6589,-0.7485,-0.8885,0.0,0.0,-0.8841,-0.8743,-0.8591,-0.8438,-0.8296,-0.816,-0.7988,-0.7988,-0.7988,-0.7988,-0.7988,-0.7988,-0.7988,-0.7988,-0.7988,-0.7988,-0.7988,-0.7988,-0.7988,-0.7988,-0.7988,-0.7928,-0.7699,-0.7614,-0.7526,-0.7193,-0.7109,-0.7095,-0.7095,-0.7095,-0.7095,-0.7095,-0.7228,-0.7665,-0.8715,-0.9017,-0.9775,-1.1653,-1.1706,-1.1845,-1.2755,-1.1778,-1.1316,-1.2224,-1.2305,-1.2305,-1.2305,-1.2305,-1.2305,-1.2305,-1.2305,-1.2305,-1.2305,-1.2305,-1.2305,-1.2305,-1.2305,-1.2305,-1.2305,-1.2305,-1.2305,-1.2305,-1.2305,-1.2345,0.0,0.0,0.0,0.0,0.0,0.0,0.0,0.0,0.0,0.0,0.0,0.0,0.0,0.0,0.0,0.0,0.0,0.0,0.0,0.0,0.0,0.0,0.0,0.0,0.0,0.0,0.0,0.0,0.0,0.0,0.0,0.0,-0.0123,-0.0432,-0.0123,0.0,0.0,0.0,-0.012,-0.0412,-0.1623,-0.3131,-0.4916,-0.6144,-0.7485,-0.8885,0.0,0.0,-0.8737,-0.8584,-0.8435,-0.8292,-0.814,-0.8012,-0.7988,-0.7988,-0.7988,-0.7988,-0.7988,-0.7988,-0.7988,-0.7988,-0.7988,-0.7988,-0.7988,-0.7988,-0.7988,-0.7988,-0.7988,-0.7948,-0.7821,-0.7689,-0.7553,-0.7373,-0.7234,-0.7095,-0.7095,-0.7095,-0.7095,-0.7095,-0.7885,-0.8671,-0.8846,-0.9666,-1.0725,-1.2051,-1.1823,-1.1878,-1.2975,-1.2487,-1.2114,-1.2261,-1.2305,-1.2305,-1.2305,-1.2305,-1.2305,-1.2305,-1.2305,-1.2305,-1.2305,-1.2305,-1.2305,-1.2305,-1.2305,-1.2305,-1.2305,-1.2305,-1.2305,-1.2305,-1.2305,-1.2572,0.0,0.0,0.0,0.0,0.0,0.0,0.0,0.0,0.0,0.0,0.0,0.0,0.0,0.0,0.0,0.0,0.0,0.0,0.0,0.0,0.0,0.0,0.0,0.0,0.0,0.0,0.0,0.0,0.0,0.0,0.0,0.0,0.0,0.0,0.0,0.0,0.0,0.0,0.0,0.0,-0.0692,-0.2274,-0.4528,-0.525,-0.6758,-0.8885,-0.8885,0.0,-0.8699,-0.8547,-0.8397,-0.8255,-0.8099,-0.7988,-0.7988,-0.7988,-0.7988,-0.7988,-0.7988,-0.7988,-0.7988,-0.7988,-0.7988,-0.7988,-0.7988,-0.7988,-0.7988,-0.7988,-0.7988,-0.7955,-0.7851,-0.7706,-0.756,-0.7453,-0.7251,-0.7095,-0.7095,-0.7095,-0.7272,-0.7929,-0.8496,-0.9279,-1.0481,-1.1128,-1.1901,-1.3075,-1.2858,-1.2758,-1.3147,-1.2812,-1.2472,-1.2318,-1.2305,-1.2305,-1.2305,-1.2305,-1.2305,-1.2305,-1.2305,-1.2305,-1.2305,-1.2305,-1.2305,-1.2305,-1.2305,-1.2305,-1.2305,-1.2305,-1.2305,-1.2305,-1.2305,-1.2458,0.0,0.0202,0.0353,0.005,0.0397,0.0713,0.0345,0.0324,0.0,0.0,0.0,0.0,0.0,0.0,0.0,0.0,0.0,0.0,0.0,0.0,0.0,0.0,0.0,0.0,0.0,0.0,0.0,0.0,0.0,0.0,0.0,0.0,0.0,0.0,0.0,0.0,0.0,0.0,0.0,0.0,0.0,-0.1588,-0.4526,-0.4526,-0.6086,-0.8881,-0.8848,0.0,0.0,-0.8499,-0.835,-0.8208,-0.8039,-0.7988,-0.7988,-0.7988,-0.7988,-0.7988,-0.7988,-0.7988,-0.7988,-0.7988,-0.7988,-0.7988,-0.7988,-0.7988,-0.7988,-0.7988,-0.7988,-0.7955,-0.7851,-0.7706,-0.7553,-0.7366,-0.7227,-0.7095,-0.7095,-0.7095,-0.736,-0.8321,-0.893,-0.984,-1.1638,-1.2328,-1.3027,-1.3955,-1.3793,-1.35,-1.3247,-1.2978,-1.267,-1.2338,-1.2305,-1.2305,-1.2305,-1.2305,-1.2305,-1.2305,-1.2305,-1.2305,-1.2305,-1.2305,-1.2305,-1.2305,-1.2305,-1.2305,-1.2305,-1.2305,-1.2305,-1.2305,-1.2305,-1.2371,0.0,0.0907,0.1511,0.0303,0.1715,0.303,0.1544,0.0,0.0,0.0,0.0549,0.0,0.0,0.0,0.0,0.0,0.0,0.0,0.0,0.0,0.0,0.0,0.0,0.0,0.0,0.0,0.0,0.0,0.0,0.0,0.0,0.0,0.0,0.0,0.0,0.0,0.0,0.0,0.0,0.0,0.0,-0.1569,-0.4526,-0.4526,-0.6086,-0.8875,0.0,0.0,0.0,-0.8398,-0.8201,-0.8008,-0.7995,-0.7988,-0.7988,-0.7988,-0.7988,-0.7988,-0.7988,-0.7988,-0.7988,-0.7988,-0.7988,-0.7988,-0.7988,-0.7988,-0.7988,-0.7988,-0.7988,-0.7955,-0.7851,-0.7706,-0.7526,-0.7186,-0.7105,-0.7095,-0.7095,-0.7095,-0.7139,-0.7228,-0.8965,-1.0524,-1.074,-1.2516,-1.3955,-1.4088,-1.3793,-1.35,-1.3247,-1.2978,-1.267,-1.2338,-1.2305,-1.2305,-1.2305,-1.2305,-1.2305,-1.2305,-1.2305,-1.2305,-1.2305,-1.2305,-1.2305,-1.2305,-1.2305,-1.2305,-1.2305,-1.2305,-1.2305,-1.2305,-1.2305,-1.2599,0.0,0.0999,0.1862,0.136,0.2472,0.3342,0.2006,0.0,0.0,0.067,0.0225,0.0,0.0,0.0,0.0,0.0,0.0,0.0,0.0,0.0,0.0,0.0,0.0,0.0,0.0,0.0,0.0,0.0,0.0,0.0,0.0,0.0,0.0,0.0,0.0,0.0,0.0,0.0,0.0,0.0,0.0,-0.1567,-0.4526,-0.4526,-0.6054,-0.8798,0.0,0.0,0.0,-0.8344,-0.818,-0.7988,-0.7988,-0.7988,-0.7988,-0.7988,-0.7988,-0.7988,-0.7988,-0.7988,-0.7988,-0.7988,-0.7988,-0.7988,-0.7988,-0.7988,-0.7988,-0.7988,-0.7988,-0.7975,-0.7914,-0.7777,-0.7522,-0.7169,-0.7095,-0.7095,-0.7095,-0.7095,-0.7316,-0.8061,-0.9488,-1.0826,-1.1509,-1.2991,-1.4088,-1.4088,-1.3793,-1.35,-1.3247,-1.2978,-1.267,-1.2338,-1.2305,-1.2305,-1.2305,-1.2305,-1.2305,-1.2305,-1.2305,-1.2305,-1.2305,-1.2305,-1.2305,-1.2305,-1.2305,-1.2305,-1.2305,-1.2305,-1.2305,-1.2305,-1.2305,-1.2532,0.0,0.0985,0.1896,0.1498,0.2782,0.3801,0.0,0.0,0.185,0.0971,0.0579,0.038,0.0396,0.0368,0.0376,0.0,0.0184,0.0,0.0,0.0,0.0,0.0,0.0,0.0,0.0,0.0,0.0,0.0,0.0,0.0,0.0,0.0,0.0,0.0,0.0,0.0,0.0,0.0,0.0,0.0,0.0,-0.1567,-0.4526,-0.4526,-0.6031,0.0,0.0,0.0,0.0,-0.8065,-0.7885,-0.7437,-0.7839,-0.7988,-0.7988,-0.7988,-0.7988,-0.7988,-0.7988,-0.7988,-0.7988,-0.7988,-0.7988,-0.7988,-0.7988,-0.7988,-0.7988,-0.7988,-0.7958,-0.7914,-0.787,-0.7723,-0.7465,-0.7156,-0.7095,-0.7095,-0.7095,-0.7095,-0.7356,-0.8189,-0.9318,-1.0481,-1.1595,-1.2772,-1.3688,-1.4039,-1.3908,-1.3641,-1.326,-1.3058,-1.277,-1.2345,-1.2305,-1.2305,-1.2305,-1.2305,-1.2305,-1.2305,-1.2305,-1.2305,-1.2305,-1.2305,-1.2305,-1.2305,-1.2305,-1.2305,-1.2305,-1.2305,-1.2305,-1.2305,-1.2392,-1.2677,0.0,0.0965,0.1664,0.0343,0.2708,0.4914,0.0,0.2988,0.3152,0.2741,0.1928,0.1287,0.1288,0.1284,0.1285,0.1287,0.056,0.0,0.0,0.0,0.0,0.0,0.0,0.0,0.0,0.0,0.0,0.0,0.0,0.0,0.0,0.0,0.0,0.0,0.0,0.0,0.0,0.0,0.0,0.0,0.0,-0.1567,-0.4526,-0.4526,0.0,0.0,0.0,0.0,0.0,-0.7544,-0.7235,-0.6129,-0.7484,-0.7988,-0.7988,-0.7988,-0.7988,-0.7988,-0.7988,-0.7988,-0.7988,-0.7988,-0.7988,-0.7988,-0.7988,-0.7988,-0.7988,-0.7988,-0.788,-0.778,-0.7641,-0.7489,-0.7333,-0.7132,-0.7095,-0.7095,-0.7095,-0.7095,-0.7095,-0.7095,-0.8105,-0.9279,-1.0438,-1.1552,-1.2723,-1.3913,-1.4082,-1.3874,-1.3287,-1.3206,-1.2973,-1.2365,-1.2305,-1.2305,-1.2305,-1.2305,-1.2305,-1.2305,-1.2305,-1.2305,-1.2305,-1.2305,-1.2305,-1.2305,-1.2305,-1.2305,-1.2305,-1.2305,-1.2305,-1.2311,-1.2643,-1.306,0.0,0.1,0.1881,0.148,0.3209,0.457,0.2652,0.2655,0.2627,0.1166,0.0621,0.0584,0.1188,0.13,0.1584,0.2534,0.0,0.0,0.0,0.0,0.0,0.0,0.0,0.0,0.0,0.0,0.0,0.0,0.0,0.0,0.0,0.0,0.0,0.0,0.0,0.0,0.0,0.0,0.0,0.0,0.0,-0.1008,-0.296,-0.3863,0.0,0.0,0.0,0.0,0.0,-0.7453,-0.7235,-0.6129,-0.7484,-0.7988,-0.7988,-0.7988,-0.7988,-0.7988,-0.7988,-0.7988,-0.7988,-0.7988,-0.7988,-0.7988,-0.7988,-0.7988,-0.7988,-0.7988,-0.788,-0.7777,-0.7638,-0.7485,-0.7333,-0.7132,-0.7095,-0.7095,-0.7095,-0.7095,-0.7095,-0.7095,-0.8057,-0.9021,-0.9366,-1.1037,-1.2413,-1.2808,-1.3394,-1.3606,-1.326,-1.3026,-1.2784,-1.2345,-1.2305,-1.2305,-1.2305,-1.2305,-1.2305,-1.2305,-1.2305,-1.2305,-1.2305,-1.2305,-1.2305,-1.2305,-1.2305,-1.2305,-1.2305,-1.2543,-1.2757,-1.2933,-1.322,-1.342,0.0,0.0604,0.1248,0.1264,0.2468,0.3324,0.2035,0.2081,0.2031,0.0765,0.0494,0.0658,0.1203,0.1307,0.1718,0.2964,0.0,0.0,0.0,0.0,0.0,0.0,0.0,0.0,0.0,0.0,0.0,0.0,0.0,0.0,0.0,0.0,0.0,0.0,0.0,0.0,0.0,0.0,0.0,0.0,0.0,-0.0781,-0.2215,0.0,0.0,0.0,0.0,0.0,0.0,-0.6478,-0.6478,-0.5422,-0.7282,-0.7988,-0.7988,-0.7988,-0.7988,-0.7988,-0.7988,-0.7988,-0.7988,-0.7988,-0.7988,-0.7988,-0.7988,-0.7988,-0.7988,-0.7988,-0.7889,-0.7709,-0.7624,-0.7444,-0.7258,-0.7119,-0.7095,-0.7095,-0.7095,-0.7095,-0.7095,-0.7095,-0.7709,-0.8364,-0.8803,-1.0096,-1.1295,-1.2157,-1.2752,-1.3146,-1.3326,-1.2785,-1.2408,-1.2461,-1.2024,-1.1885,-1.2268,-1.2305,-1.2305,-1.2305,-1.2305,-1.2351,-1.2465,-1.2365,-1.2351,-1.2509,-1.2509,-1.2412,-1.2305,-1.2643,-1.2945,-1.322,-1.3467,-1.366,0.0,0.0,0.0,0.0,0.0784,0.1516,0.1269,0.1385,0.0,0.1266,0.1214,0.1238,0.1276,0.1311,0.1666,0.2745,0.0,0.0,0.0,0.0,0.0,0.0,0.0,0.0,0.0,0.0,0.0,0.0,0.0,0.0,0.0,0.0,0.0,0.0,0.0,0.0,0.0,0.0,0.0,0.0,0.0,-0.0722,-0.2074,0.0,0.0,0.0,0.0,0.0,0.0,-0.4772,-0.5122,-0.4266,-0.6828,-0.7939,-0.7988,-0.7988,-0.7988,-0.7988,-0.7988,-0.7988,-0.7988,-0.7988,-0.7988,-0.7988,-0.7988,-0.7988,-0.7988,-0.7988,-0.7828,-0.76,-0.76,-0.7373,-0.7095,-0.7095,-0.7095,-0.7095,-0.7095,-0.7095,-0.7095,-0.7095,-0.7095,-0.7445,-0.8584,-0.8846,-0.9623,-1.1724,-1.2109,-1.2445,-1.3231,-1.2302,-1.1833,-1.2471,-1.1427,-1.1099,-1.2029,-1.2238,-1.2305,-1.2305,-1.2318,-1.2496,-1.277,-1.2536,-1.2498,-1.2811,-1.2817,-1.269,-1.2398,-1.271,-1.3005,-1.328,-1.3507,-1.378,0.0,0.0,0.0,0.0,0.0681,0.1173,0.0,0.0858,0.1171,0.0438,0.0,0.0495,0.1167,0.1314,0.1719,0.0,0.0,0.0,0.0,0.0,0.0,0.0,0.0,0.0,0.0,0.0,0.0,0.0,0.0,0.0,0.0,0.0,0.0,0.0,0.0,0.0,0.0,0.0,0.0,0.0,0.0,-0.0167,-0.0547,0.0,0.0,0.0,0.0,0.0,-0.2113,-0.3767,-0.4268,-0.4166,-0.5824,-0.7083,-0.7988,-0.7988,-0.7988,-0.7988,-0.7988,-0.7988,-0.7988,-0.7988,-0.7988,-0.7988,-0.7988,-0.7988,-0.7988,-0.7988,-0.7828,-0.76,-0.76,-0.7373,-0.7095,-0.7095,-0.7095,-0.7095,-0.7095,-0.7095,-0.7095,-0.7095,-0.7095,-0.7183,-0.7492,-0.8281,-0.9065,-0.9623,-1.0438,-1.0932,-1.0806,-1.05,-1.0274,-1.0138,-0.9857,-0.9775,-1.0137,-1.1477,-1.2305,-1.2305,-1.2556,-1.271,-1.2784,-1.2906,-1.3033,-1.31,-1.31,-1.3173,-1.3287,-1.336,-1.3587,-1.3881,-1.3948,-1.4021,0.0,0.0,0.0,0.0,0.0356,0.0588,0.0097,0.0,0.0,0.0,0.0,0.0131,0.0614,0.0701,0.0,0.0,0.0,0.0,0.0,0.0,0.0,0.0,0.0,0.0,0.0,0.0,0.0,0.0,0.0,0.0,0.0,0.0,0.0,0.0,0.0,0.0,0.0,0.0,0.0,0.0,0.0,0.0,0.0,-0.074,0.0,0.0,0.0,0.0,-0.1209,-0.2514,-0.3065,-0.3215,-0.457,-0.5924,-0.7083,-0.7083,-0.7484,-0.7988,-0.7988,-0.7988,-0.7988,-0.7988,-0.7988,-0.7988,-0.7988,-0.7941,-0.7884,-0.7884,-0.7773,-0.7584,-0.7512,-0.7319,-0.7095,-0.7095,-0.7095,-0.7095,-0.7095,-0.7095,-0.7095,-0.7095,-0.7095,-0.7095,-0.7095,-0.7621,-0.8277,-0.8803,-0.941,-0.9928,-1.0193,-0.9613,-0.9285,-0.9536,-0.9038,-0.8908,-0.9443,-1.0999,-1.1928,-1.1928,-1.2105,-1.2492,-1.3153,-1.3193,-1.3273,-1.3367,-1.328,-1.3313,-1.36,-1.3467,-1.3553,-1.3881,-1.3881,-1.3955,0.0,0.0,0.0,0.0,0.0,0.0,0.0,0.0,0.0,0.0,0.0,0.0,0.0,0.0,0.0,0.0,0.0,0.0,0.0,0.0,0.0,0.0,0.0,0.0,0.0,0.0,0.0,0.0,0.0,0.0,0.0,0.0,0.0,0.0,0.0,0.0,0.0,0.0,0.0,0.0,0.0,0.0,0.0,0.0,0.0,0.0,0.0,0.0,-0.0101,-0.1209,-0.1812,-0.2113,-0.3265,-0.4518,-0.5727,-0.5929,-0.6734,-0.7736,-0.7939,-0.7988,-0.7988,-0.7988,-0.7988,-0.7988,-0.7988,-0.7884,-0.7807,-0.7784,-0.7675,-0.7536,-0.745,-0.7255,-0.7095,-0.7095,-0.7095,-0.7095,-0.7095,-0.7095,-0.7095,-0.7095,-0.7095,-0.7095,-0.7095,-0.7095,-0.7445,-0.8452,-0.8627,-0.896,-0.9923,-0.8935,-0.8476,-0.934,-0.8461,-0.8139,-0.9042,-1.0129,-1.0908,-1.1109,-1.1566,-1.2367,-1.3612,-1.3474,-1.342,-1.3666,-1.3467,-1.3467,-1.3666,-1.3467,-1.3433,-1.3666,-1.3666,-1.3848,0.0,0.0,0.0,0.0,0.0,0.0,0.0,0.0,0.0,0.0,0.0,0.0,0.0,0.0,0.0,0.0,0.0,0.0,0.0,0.0,0.0,0.0,0.0,0.0,0.0,0.0,0.0,0.0,0.0,0.0,0.0,0.0,0.0,0.0,0.0,0.0,0.0,0.0,0.0,0.0,0.0,0.0,0.0,0.0,0.0,0.0,0.0,0.0,0.0,-0.0202,-0.0958,-0.2013,-0.2213,-0.3115,-0.4468,-0.5575,-0.6129,-0.6481,-0.7587,-0.7988,-0.7988,-0.7988,-0.7988,-0.7988,-0.7988,-0.7884,-0.7787,-0.7665,-0.7522,-0.7446,-0.7422,-0.7255,-0.7095,-0.7095,-0.7095,-0.7095,-0.7095,-0.7095,-0.7095,-0.7095,-0.7095,-0.7095,-0.7095,-0.7095,-0.7183,-0.7356,-0.736,-0.7399,-0.7443,-0.7257,-0.7133,-0.7206,-0.7005,-0.7002,-0.7264,-0.7508,-0.8087,-0.9221,-1.1814,-1.3495,-1.4008,-1.3975,-1.3975,-1.4015,-1.3975,-1.3975,-1.4021,-1.3975,-1.3975,-1.4021,-1.4021,-1.4041,0.0,0.0,0.0,0.0,0.0,0.0,0.0,0.0,0.0,0.0,0.0,0.0,0.0,0.0,0.0,0.0,0.0,0.0,0.0,0.0,0.0,0.0,0.0,0.0,0.0,0.0,0.0,0.0,0.0,0.0,0.0,0.0,0.0,0.0,0.0,0.0,0.0,0.0,0.0,0.0,0.0,0.0,0.0,0.0,0.0,0.0,0.0,0.0,0.0,0.0,-0.0353,-0.0907,-0.0907,-0.1762,-0.3065,-0.4418,-0.5375,-0.6079,-0.6681,-0.7385,-0.7988,-0.7988,-0.7988,-0.7988,-0.7988,-0.7884,-0.778,-0.7641,-0.7489,-0.7398,-0.7268,-0.7149,-0.7095,-0.7095,-0.7095,-0.7095,-0.7095,-0.7095,-0.7095,-0.7095,-0.7095,-0.7095,-0.7095,-0.7095,-0.7095,-0.7095,-0.7095,-0.7071,-0.7007,-0.6933,-0.6859,-0.6831,-0.6824,-0.6851,-0.6879,-0.7559,-0.8241,-0.8842,-1.0819,-1.2047,-1.2211,-1.2674,-1.2968,-1.3112,-1.358,-1.3928,-1.4088,-1.3928,-1.3928,-1.4082,-1.3921,-1.3935,0.0,-0.0124,-0.0201,-0.0034,0.0,0.0,0.0,0.0,0.0,0.0,0.0,0.0,0.0,0.0,0.0,0.0,0.0,0.0,0.0,0.0,0.0,0.0,0.0,0.0,0.0,0.0,0.0,0.0,0.0,0.0,0.0,0.0,0.0,0.0,0.0,0.0,0.0,0.0,0.0,0.0,0.0,0.0,0.0,0.0,0.0,0.0,0.0,0.0,0.0,0.0,0.0,0.0,0.0,-0.0807,-0.2113,-0.3165,-0.4368,-0.5525,-0.5525,-0.6429,-0.7537,-0.7537,-0.7739,-0.7982,-0.7948,-0.7882,-0.7733,-0.7587,-0.7434,-0.7288,-0.7125,-0.7095,-0.7095,-0.7095,-0.7095,-0.7095,-0.7095,-0.7095,-0.7095,-0.7095,-0.7095,-0.7095,-0.7095,-0.7095,-0.7095,-0.7095,-0.7095,-0.7095,-0.7095,-0.7001,-0.6933,-0.6933,-0.6933,-0.6933,-0.6933,-0.7901,-0.8496,-0.8496,-0.9836,-1.0585,-1.053,-1.121,-1.1659,-1.1847,-1.2771,-1.3402,-1.3688,-1.3682,-1.3868,-1.4082,-1.3854,-1.3868,0.0,-0.0503,-0.0851,-0.0173,0.0,0.0,0.0,0.0,0.0,0.0,0.0,0.0,0.0,0.0,0.0,0.0,0.0,0.0,0.0,0.0,0.0,0.0,0.0,0.0,0.0,0.0,0.0,0.0,0.0,0.0,0.0,0.0,0.0,0.0,0.0,0.0,0.0,0.0,0.0,0.0,0.0,0.0,0.0,0.0,0.0,0.0,0.0,0.0,0.0,0.0,0.0,0.0,0.0,-0.0807,-0.2013,-0.2113,-0.3015,-0.4166,-0.4166,-0.5022,-0.6129,-0.6129,-0.6983,-0.7965,-0.7872,-0.7729,-0.7584,-0.7431,-0.7278,-0.7109,-0.7098,-0.7095,-0.7095,-0.7095,-0.7095,-0.7095,-0.7095,-0.7095,-0.7095,-0.7095,-0.7095,-0.7095,-0.7095,-0.7095,-0.7095,-0.7095,-0.7095,-0.7095,-0.7095,-0.7088,-0.7082,-0.7082,-0.7082,-0.7082,-0.7082,-0.7177,-0.7228,-0.7228,-0.9353,-1.0557,-1.0433,-1.0486,-1.0533,-1.0548,-1.1632,-1.2296,-1.2413,-1.3535,-1.4068,-1.4088,-1.4068,-1.4068,0.0,-0.0218,-0.0334,-0.007,0.0,0.0,0.0,0.0,0.0,0.0,0.0,0.0,0.0,0.0,0.0,0.0,0.0,0.0,0.0,0.0,0.0,0.0,0.0,0.0,0.0,0.0,0.0,0.0,0.0,0.0,0.0,0.0,0.0,0.0,0.0,0.0,0.0,0.0,0.0,0.0,0.0,0.0,0.0,0.0,0.0,0.0,0.0,0.0,0.0,0.0,0.0,0.0,0.0,-0.0303,-0.0756,-0.0756,-0.1611,-0.2764,-0.2764,-0.3616,-0.487,-0.5727,-0.6331,-0.691,-0.7612,-0.7773,-0.7682,-0.7441,-0.7329,-0.7261,-0.7122,-0.7095,-0.7095,-0.7095,-0.7095,-0.7095,-0.7095,-0.7095,-0.7095,-0.7095,-0.7095,-0.7095,-0.7095,-0.7095,-0.7095,-0.7095,-0.7095,-0.7095,-0.7095,-0.7095,-0.7095,-0.7095,-0.7095,-0.7095,-0.7095,-0.7095,-0.7058,-0.697,-0.7869,-0.8412,-0.8344,-0.88,-0.9164,-0.9461,-1.0294,-1.0918,-1.1252,-1.2419,-1.2984,-1.2984,-1.3737,-1.4088,0.0,-0.0184,-0.0298,-0.0069,0.0,0.0,-0.0042,0.0,0.0,0.0,0.0,0.0,0.0,0.0,0.0,0.0,0.0,0.0,0.0,0.0,0.0,0.0,0.0,0.0,0.0,0.0,0.0,0.0,0.0,0.0,0.0,0.0,0.0,0.0,0.0,0.0,0.0,0.0,0.0,0.0,0.0,0.0,0.0,0.0,0.0,0.0,0.0,0.0,0.0,0.0,0.0,0.0,0.0,0.0,0.0,0.0,-0.0605,-0.136,-0.136,-0.2264,-0.3563,-0.4889,-0.5577,-0.6145,-0.7343,-0.7672,-0.7621,-0.737,-0.7299,-0.7275,-0.7122,-0.7095,-0.7095,-0.7095,-0.7095,-0.7095,-0.7095,-0.7095,-0.7095,-0.7095,-0.7095,-0.7095,-0.7095,-0.7095,-0.7095,-0.7095,-0.7095,-0.7095,-0.7095,-0.7095,-0.7095,-0.7095,-0.7095,-0.7095,-0.7095,-0.7095,-0.7055,-0.6957,-0.7045,-0.7034,-0.6936,-0.7442,-0.7871,-0.8197,-0.9032,-0.9622,-1.0053,-1.1209,-1.1766,-1.1809,-1.2991,-1.3512,0.0,-0.0542,-0.0907,0.0,0.0,0.0,-0.0171,0.0,-0.0045,0.0,0.0,0.0,0.0,0.0,0.0,0.0,0.0,0.0,0.0,0.0,0.0,0.0,0.0,0.0,0.0,0.0,0.0,0.0,0.0,0.0,0.0,0.0,0.0,0.0,0.0,0.0,0.0,0.0,0.0,0.0,0.0,0.0,0.0,0.0,0.0,0.0,0.0,0.0,0.0,0.0,0.0,0.0,0.0,0.0,0.0,0.0,0.0,0.0,0.0,-0.0857,-0.2206,-0.3393,-0.4687,-0.596,-0.7085,-0.7415,-0.7339,-0.7139,-0.7095,-0.7095,-0.7095,-0.7095,-0.7095,-0.7095,-0.7095,-0.7095,-0.7095,-0.7095,-0.7095,-0.7095,-0.7095,-0.7095,-0.7095,-0.7095,-0.7095,-0.7095,-0.7095,-0.7095,-0.7095,-0.7095,-0.7095,-0.7095,-0.7095,-0.7095,-0.7095,-0.7095,-0.7095,-0.7092,-0.7092,-0.6939,-0.6538,-0.6624,-0.6705,-0.6705,-0.7798,-0.8551,-0.889,-1.0009,-1.0567,-1.0611,-1.1766,-1.2279,0.0,-0.0155,0.0,0.0,0.0,0.0,0.0,-0.0735,0.0,0.0,0.0,0.0,0.0,0.0,0.0,0.0,0.0,0.0,0.0,0.0,0.0,0.0,0.0,0.0,0.0,0.0,0.0,0.0,0.0,0.0,0.0,0.0,0.0,0.0,0.0,0.0,0.0,0.0,0.0,0.0,0.0,0.0,0.0,0.0,0.0,0.0,0.0,0.0,0.0,0.0,0.0,0.0,0.0,0.0,0.0,0.0,0.0,0.0,0.0,-0.0247,-0.0936,-0.3086,-0.4069,-0.4763,-0.6777,-0.7415,-0.7339,-0.7139,-0.7095,-0.7095,-0.7095,-0.7095,-0.7095,-0.7095,-0.7095,-0.7095,-0.7095,-0.7095,-0.7095,-0.7095,-0.7095,-0.7095,-0.7095,-0.7095,-0.7095,-0.7095,-0.7095,-0.7095,-0.7095,-0.7095,-0.7095,-0.7095,-0.7095,-0.7095,-0.7095,-0.7095,-0.7007,-0.6844,-0.6889,-0.6933,-0.6943,-0.6892,-0.6866,-0.6964,-0.7204,-0.7461,-0.7621,-0.8842,-0.9405,-0.9449,-1.0567,-1.108,0.0,0.0,0.0,0.0,0.0,0.0,0.0,0.0,0.0,0.0,0.0,0.0,0.0,0.0,0.0,0.0,0.0,0.0,0.0,0.0,0.0,0.0,0.0,0.0,0.0,0.0,0.0,0.0,0.0,0.0,0.0,0.0,0.0,0.0,0.0,0.0,0.0,0.0,0.0,0.0,0.0,0.0,0.0,0.0,0.0,0.0,0.0,0.0,0.0,0.0,0.0,0.0,0.0,0.0,0.0,0.0,0.0,0.0,0.0,0.0,-0.0338,-0.2364,-0.3332,-0.4064,-0.6042,-0.6918,-0.7258,-0.7122,-0.7095,-0.7095,-0.7095,-0.7095,-0.7095,-0.7095,-0.7095,-0.7095,-0.7095,-0.7095,-0.7095,-0.7095,-0.7095,-0.7095,-0.7095,-0.7095,-0.7095,-0.7095,-0.7095,-0.7095,-0.7095,-0.7095,-0.7095,-0.7095,-0.7095,-0.7095,-0.7095,-0.7095,-0.7021,-0.6888,-0.6866,-0.6923,-0.7007,-0.6858,-0.6817,-0.692,-0.6881,-0.6896,-0.7095,-0.7841,-0.8158,-0.8135,-0.9289,-0.9795,0.0,0.0,0.0,0.0,0.0,0.0,0.0,0.0,0.0,0.0,0.0,0.0,0.0,0.0,0.0,0.0,0.0,0.0,0.0,0.0,0.0,0.0,0.0,0.0,0.0,0.0,0.0,0.0,0.0,0.0,0.0,0.0,0.0,0.0,0.0,0.0,0.0,0.0,0.0,0.0,0.0,0.0,0.0,0.0,0.0,0.0,0.0,0.0,0.0,0.0,0.0,0.0,0.0,0.0,0.0,0.0,0.0,0.0,0.0,0.0,-0.019,-0.1391,-0.2528,-0.366,-0.4848,-0.6027,-0.6962,-0.6962,-0.7007,-0.7095,-0.7095,-0.7095,-0.7095,-0.7095,-0.7095,-0.7095,-0.7095,-0.7095,-0.7095,-0.7095,-0.7095,-0.7095,-0.7095,-0.7095,-0.7095,-0.7095,-0.7095,-0.7095,-0.7095,-0.7095,-0.7095,-0.7095,-0.7095,-0.7095,-0.7095,-0.7085,-0.7071,-0.7058,-0.6923,-0.6839,-0.6825,-0.6627,-0.6566,-0.6719,-0.6709,-0.6841,-0.7078,-0.7061,-0.6991,-0.6905,-0.7997,-0.8405,0.0,0.0,0.0,0.0,0.0,0.0,0.0,0.0,0.0,0.0,0.0,0.0,0.0,0.0,0.0,0.0,0.0,0.0,0.0,0.0,0.0,0.0,0.0,0.0,0.0,0.0,0.0,0.0,0.0,0.0,0.0,0.0,0.0,0.0,0.0,0.0,0.0,0.0,0.0,0.0,0.0,0.0,0.0,0.0,0.0,0.0,0.0,0.0,0.0,0.0,0.0,0.0,0.0,0.0,0.0,0.0,0.0,0.0,0.0,0.0,-0.0186,-0.1407,-0.1982,-0.2428,-0.3621,-0.4819,-0.5761,-0.5761,-0.6425,-0.7095,-0.7095,-0.7095,-0.7095,-0.7095,-0.7095,-0.7095,-0.7095,-0.7095,-0.7095,-0.7095,-0.7095,-0.7095,-0.7095,-0.7095,-0.7095,-0.7095,-0.7095,-0.7095,-0.7095,-0.7095,-0.7095,-0.7095,-0.7095,-0.7095,-0.7095,-0.6994,-0.6879,-0.6803,-0.6654,-0.6522,-0.645,-0.6563,-0.6722,-0.6832,-0.6763,-0.679,-0.693,-0.6854,-0.678,-0.6749,-0.6996,-0.71,0.0,0.0,0.0,0.0,0.0,0.0,0.0,0.0,0.0,0.0,0.0,0.0,0.0,0.0,0.0,0.0,0.0,0.0,0.0,0.0,0.0,0.0,0.0,0.0,0.0,0.0,0.0,0.0,0.0,0.0,0.0,0.0,0.0,0.0,0.0,0.0,0.0,0.0,0.0,0.0,0.0,0.0,0.0,0.0,0.0,0.0,0.0,0.0,0.0,0.0,0.0,0.0,0.0,0.0,0.0,0.0,0.0,0.0,0.0,0.0,-0.0091,-0.072,-0.1344,-0.1924,-0.2547,-0.3573,-0.4552,-0.4552,-0.4952,-0.5575,-0.6157,-0.6293,-0.6428,-0.6962,-0.7095,-0.7095,-0.7095,-0.7095,-0.7095,-0.7095,-0.7095,-0.7095,-0.7095,-0.7095,-0.7095,-0.7095,-0.7095,-0.7095,-0.7095,-0.7095,-0.7095,-0.7095,-0.7095,-0.7095,-0.7095,-0.7028,-0.6923,-0.682,-0.6664,-0.6515,-0.6409,-0.6484,-0.6559,-0.6709,-0.663,-0.6668,-0.682,-0.6739,-0.6664,-0.659,-0.659,-0.6556,0.0,0.0,0.0,0.0,0.0,0.0,0.0,0.0,0.0,0.0,0.0,0.0,0.0,0.0,0.0,0.0,0.0,0.0,0.0,0.0,0.0,0.0,0.0,0.0,0.0,0.0,0.0,0.0,0.0,0.0,0.0,0.0,0.0,0.0,0.0,0.0,0.0,0.0,0.0,0.0,0.0,0.0,0.0,0.0,0.0,0.0,0.0,0.0,0.0,0.0,0.0,0.0,0.0,0.0,0.0,0.0,0.0,0.0,0.0,0.0,0.0,0.0,-0.0673,-0.1478,-0.1478,-0.2325,-0.3303,-0.3303,-0.3436,-0.3838,-0.4821,-0.509,-0.5312,-0.629,-0.6514,-0.6602,-0.7007,-0.7095,-0.7095,-0.7095,-0.7095,-0.7095,-0.7095,-0.7095,-0.7095,-0.7095,-0.7095,-0.7095,-0.7095,-0.7095,-0.7095,-0.7095,-0.7095,-0.7095,-0.7095,-0.7048,-0.697,-0.6856,-0.6722,-0.6569,-0.648,-0.6361,-0.6354,-0.6474,-0.6474,-0.6552,-0.6661,-0.6637,-0.6559,-0.6474,-0.6474,-0.6412,0.0,0.0,0.0,0.0,0.0,0.0,0.0,0.0,0.0,0.0,0.0,0.0,0.0,0.0,0.0,0.0,0.0,0.0,0.0,0.0,0.0,0.0,0.0,0.0,0.0,0.0,0.0,0.0,0.0,0.0,0.0,0.0,0.0,0.0,0.0,0.0,0.0,0.0,0.0,0.0,0.0,0.0,0.0,0.0,0.0,0.0,0.0,0.0,0.0,0.0,0.0,0.0,0.0,0.0,0.0,0.0,0.0,0.0,0.0,0.0,0.0,0.0,-0.009,-0.0225,-0.0225,-0.1076,-0.2057,-0.2057,-0.2814,-0.3659,-0.3792,-0.3838,-0.3881,-0.4014,-0.4059,-0.4639,-0.6647,-0.7095,-0.7095,-0.7095,-0.7095,-0.7095,-0.7095,-0.7095,-0.7095,-0.7095,-0.7095,-0.7095,-0.7095,-0.7095,-0.7095,-0.7095,-0.7095,-0.7095,-0.7095,-0.6905,-0.6753,-0.6732,-0.6511,-0.6351,-0.633,-0.631,-0.631,-0.6327,-0.6327,-0.6399,-0.6542,-0.6419,-0.6347,-0.6327,-0.6327,-0.6317,0.0,0.0,0.0,0.0,0.0,0.0,0.0,0.0,0.0,0.0,0.0,0.0,0.0,0.0,0.0,0.0,0.0,0.0,0.0,0.0,0.0,0.0,0.0,0.0,0.0,0.0,0.0,0.0,0.0,0.0,0.0,0.0,0.0,0.0,0.0,0.0,0.0,0.0,0.0,0.0,0.0,0.0,0.0,0.0,0.0,0.0,0.0,0.0,0.0,0.0,0.0,0.0,0.0,0.0,0.0,0.0,0.0,0.0,0.0,0.0,0.0,0.0,0.0,0.0,0.0,-0.0359,-0.0807,-0.0807,-0.1165,-0.1746,-0.2413,-0.2592,-0.2769,-0.3436,-0.3614,-0.3881,-0.4905,-0.5667,-0.6337,-0.6962,-0.7095,-0.7095,-0.7095,-0.7095,-0.7095,-0.7095,-0.7095,-0.7095,-0.7095,-0.7095,-0.7095,-0.7095,-0.7095,-0.7095,-0.7095,-0.6423,-0.6192,-0.6664,-0.5972,-0.575,-0.6264,-0.63,-0.63,-0.63,-0.63,-0.633,-0.6395,-0.633,-0.63,-0.63,-0.63,-0.63,0.0,0.0,0.0,0.0,0.0,0.0,0.0,0.0,0.0,0.0,0.0,0.0,0.0,0.0,0.0,0.0,0.0,0.0,0.0,0.0,0.0,0.0,0.0,0.0,0.0,0.0,0.0,0.0,0.0,0.0,0.0,0.0,0.0,0.0,0.0,0.0,0.0,0.0,0.0,0.0,0.0,0.0,0.0,0.0,0.0,0.0,0.0,0.0,0.0,0.0,0.0,0.0,0.0,0.0,0.0,0.0,0.0,0.0,0.0,0.0,0.0,0.0,0.0,0.0,0.0,0.0,0.0,0.0,0.0,-0.0225,-0.1121,-0.1344,-0.1567,-0.2458,-0.2681,-0.2858,-0.3481,-0.433,-0.5267,-0.6425,-0.665,-0.6738,-0.7051,-0.7095,-0.7095,-0.7095,-0.7095,-0.7095,-0.7095,-0.7095,-0.7095,-0.7095,-0.6827,-0.665,-0.665,-0.5559,-0.5142,-0.5785,-0.5205,-0.5169,-0.587,-0.6141,-0.63,-0.63,-0.63,-0.63,-0.63,-0.63,-0.63,-0.63,-0.63,-0.63,0.0,0.0,0.0,0.0,0.0,0.0,0.0,0.0,0.0,0.0,0.0,0.0,0.0,0.0,0.0,0.0,0.0,0.0,0.0,0.0,0.0,0.0,0.0,0.0,0.0,0.0,0.0,0.0,0.0,0.0,0.0,0.0,0.0,0.0,0.0,0.0,0.0,0.0,0.0,0.0,0.0,0.0,0.0,0.0,0.0,0.0,0.0,0.0,0.0,0.0,0.0,0.0,0.0,0.0,0.0,0.0,0.0,0.0,0.0,0.0,0.0,0.0,0.0,0.0,0.0,0.0,0.0,0.0,0.0,0.0,-0.009,-0.009,-0.009,-0.018,-0.018,-0.0807,-0.3126,-0.3659,-0.4061,-0.5267,-0.5492,-0.5849,-0.6918,-0.7095,-0.7095,-0.7095,-0.7095,-0.7095,-0.7095,-0.7095,-0.7095,-0.7095,-0.6115,-0.5492,-0.5492,-0.4249,-0.3517,-0.3481,-0.4263,-0.4726,-0.4771,-0.5747,-0.63,-0.63,-0.63,-0.63,-0.63,-0.63,-0.63,-0.63,-0.63,-0.63,0.0,0.0,0.0,0.0,0.0,0.0,0.0,0.0,0.0,0.0,0.0,0.0,0.0,0.0,0.0,0.0,0.0,0.0,0.0,0.0,0.0,0.0,0.0,0.0,0.0,0.0,0.0,0.0,0.0,0.0,0.0,0.0,0.0,0.0,0.0,0.0,0.0,0.0,0.0,0.0,0.0,0.0,0.0,0.0,0.0,0.0,0.0,0.0,0.0,0.0,0.0,0.0,0.0,0.0,0.0,0.0,0.0,0.0,0.0,0.0,0.0,0.0,0.0,0.0,0.0,0.0,0.0,0.0,0.0,0.0,0.0,0.0,0.0,0.0,0.0,-0.0221,-0.1117,-0.2503,-0.3748,-0.415,-0.4239,-0.4372,-0.4772,-0.5489,-0.5755,-0.4952,-0.5534,-0.6027,-0.6027,-0.6027,-0.6296,-0.7007,-0.6071,-0.5403,-0.5403,-0.3547,-0.2662,-0.331,-0.2953,-0.2999,-0.3632,-0.4688,-0.5276,-0.5276,-0.5944,-0.63,-0.63,-0.63,-0.63,-0.63,-0.63,-0.63,0.0,0.0,0.0,0.0,0.0,0.0,0.0,0.0,0.0,0.0,0.0,0.0,0.0,0.0,0.0,0.0,0.0,0.0,0.0,0.0,0.0,0.0,0.0,0.0,0.0,0.0,0.0,0.0,0.0,0.0,0.0583,0.0583,0.0404,0.0,0.0,0.0,0.0,0.0,0.0,0.0,0.0,0.0,0.0,0.0,0.0,0.0,0.0,0.0,0.0,0.0,0.0,0.0,0.0,0.0,0.0,0.0,0.0,0.0,0.0,0.0,0.0,0.0,0.0,0.0,0.0,0.0,0.0,0.0,0.0,0.0,0.0,0.0,0.0,0.0,0.0,0.0,0.0,-0.1279,-0.2521,-0.2917,-0.2978,-0.312,-0.3539,-0.4265,-0.4508,-0.3703,-0.4283,-0.4776,-0.4776,-0.4776,-0.5087,-0.5844,-0.4865,-0.4198,-0.4198,-0.2338,-0.1481,-0.2223,-0.1863,-0.2053,-0.3047,-0.4139,-0.4882,-0.5237,-0.5944,-0.63,-0.63,-0.63,-0.63,-0.63,-0.63,-0.63,0.0,0.0,0.0,0.0,0.0,0.0,0.0,0.0,0.0,0.0,0.0,0.0,0.0,0.0,0.0,0.0,0.0,0.0,0.0,0.0,0.0,0.0,0.0,0.0,0.0,0.0,0.0,0.0,0.0,0.1788,0.1788,0.1787,0.1252,0.0045,0.0,0.0,0.0,0.0,0.0,0.0,0.0,0.0,0.0,0.0,0.0,0.0,0.0,0.0,0.0,0.0,0.0,0.0,0.0,0.0,0.0,0.0,0.0,0.0,0.0,0.0,0.0,0.0,0.0,0.0,0.0,0.0,0.0,0.0,0.0,0.0,0.0,0.0,0.0,0.0,0.0,0.0,0.0,0.0,-0.0348,-0.1518,-0.1764,-0.2134,-0.3307,-0.3525,-0.3525,-0.3481,-0.3525,-0.3525,-0.3525,-0.3525,-0.357,-0.3614,-0.2503,-0.179,-0.1788,-0.0703,0.0,0.0,-0.0987,-0.2005,-0.2971,-0.4021,-0.5079,-0.6141,-0.6183,-0.6219,-0.6261,-0.63,-0.63,-0.63,-0.63,-0.63,0.0,0.0,0.0,0.0,0.0,0.0,0.0,0.0,0.0,0.0,0.0,0.0,0.0,0.0,0.0,0.0,0.0,0.0,0.0,0.0,0.0,0.0,0.0,0.0,0.0,0.0,0.0,0.0,0.1007,0.1662,0.1662,0.1637,0.1154,0.0043,0.0,0.0,0.0,0.0,0.0,0.0,0.0,0.0,0.0,0.0,0.0,0.0,0.0,0.0,0.0,0.0,0.0,0.0,0.0,0.0,0.0,0.0,0.0,0.0,0.0,0.0,0.0,0.0,0.0,0.0,0.0,0.0,0.0,0.0,0.0,0.0,0.0,0.0,0.0,0.0,0.0,0.0,0.0,0.0,-0.0085,-0.0433,-0.0487,-0.0582,-0.0935,-0.1739,-0.2013,-0.1121,-0.1746,-0.228,-0.228,-0.228,-0.2637,-0.3525,-0.2503,-0.1779,-0.1795,-0.0688,0.0,0.0,-0.0281,-0.0553,-0.0862,-0.1879,-0.2582,-0.2895,-0.3634,-0.4373,-0.5157,-0.5906,-0.63,-0.63,-0.63,-0.63,0.0,0.0,0.0,0.0,0.0,0.0,0.0,0.0,0.0,0.0,0.0,0.0,0.0,0.0,0.0,0.0,0.0,0.0,0.0,0.0,0.0,0.0,0.0,0.0,0.0,0.0,0.0,0.0,0.1455,0.2307,0.235,0.232,0.1594,0.0042,0.0,0.0,0.0,0.0,0.0,0.0,0.0,0.0,0.0,0.0,0.0,0.0,0.0,0.0,0.0,0.0,0.0,0.0,0.0,0.0,0.0,0.0,0.0,0.0,0.0,0.0,0.0,0.0,0.0,0.0,0.0,0.0,0.0,0.0,0.0,0.0,0.0,0.0,0.0,0.0,0.0,0.0,0.0,0.0,0.0,0.0,0.0,0.0,0.0,-0.0576,-0.0807,-0.009,-0.0583,-0.1031,-0.1031,-0.1031,-0.1299,-0.2013,-0.1466,-0.1056,-0.1043,-0.0422,0.0,0.0,0.0,-0.0196,-0.0667,-0.1254,-0.1802,-0.2229,-0.2812,-0.3632,-0.4688,-0.5315,-0.5867,-0.63,-0.63,-0.63,0.0,0.0,0.0,0.0,0.0,0.0,0.0,0.0,0.0,0.0,0.0,0.0,0.0,0.0,0.0,0.0,0.0,0.0,0.0,0.0,0.0,0.0,0.0,0.0,0.0,0.0,0.0,0.0,0.2047,0.3376,0.3535,0.3368,0.233,0.0251,0.0042,0.0,0.0,0.0,0.0,0.0,0.0,0.0,0.0,0.0,0.0,0.0,0.0,0.0,0.0,0.0,0.0,0.0,0.0,0.0,0.0,0.0,0.0,0.0,0.0,0.0,0.0,0.0,0.0,0.0,0.0,0.0,0.0,0.0,0.0,0.0,0.0,0.0,0.0,0.0,0.0,0.0,0.0,0.0,0.0,0.0,0.0,0.0,0.0,0.0,0.0,0.0,0.0,0.0,0.0,0.0,0.0,0.0,0.0,0.0,0.0,0.0,0.0,0.0,0.0,-0.0432,-0.1372,-0.1411,-0.184,-0.2734,-0.289,-0.3476,-0.453,-0.4766,-0.5354,-0.63,-0.63,-0.63,0.0,0.0,0.0,0.0,0.0,0.0,0.0,0.0,0.0,0.0,0.0,0.0,0.0,0.0,0.0,0.0,0.0,0.0,0.0,0.0,0.0,0.0,0.0,0.0,0.0,0.0,0.0,0.0,0.1959,0.3515,0.4402,0.3604,0.2576,0.1312,0.0438,0.0,0.0,0.0,0.0,0.0,0.0,0.0,0.0,0.0,0.0,0.0,0.0,0.0,0.0,0.0,0.0,0.0,0.0,0.0,0.0,0.0,0.0,0.0,0.0,0.0,0.0,0.0,0.0,0.0,0.0,0.0,0.0,0.0,0.0,0.0,0.0,0.0,0.0,0.0,0.0,0.0,0.0,0.0,0.0,0.0,0.0,0.0,0.0,0.0,0.0,0.0,0.0,0.0,0.0,0.0,0.0,0.0,0.0,0.0,0.0,0.0,0.0,0.0,0.0,-0.0079,-0.0314,-0.0314,-0.0392,-0.0588,-0.1449,-0.2386,-0.3435,-0.5157,-0.6103,-0.63,-0.63,-0.63,0.0,0.0,0.0,0.0,0.0,0.0,0.0,0.0,0.0,0.0,0.0,0.0,0.0,0.0,0.0,0.0,0.0,0.0,0.0,0.0,0.0,0.0,0.0,0.0,0.0,0.0,0.0434,0.1473,0.2507,0.3559,0.4652,0.3671,0.2657,0.1646,0.0549,0.0,0.0,0.0,0.0,0.0,0.0,0.0,0.0,0.0,0.0,0.0,0.0,0.0,0.0,0.0,0.0,0.0,0.0,0.0,0.0,0.0,0.0,0.0,0.0,0.0,0.0,0.0,0.0,0.0,0.0,0.0,0.0,0.0,0.0,0.0,0.0,0.0,0.0,0.0,0.0,0.0,0.0,0.0,0.0,0.0,0.0,0.0,0.0,0.0,0.0,0.0,0.0,0.0,0.0,0.0,0.0,0.0,0.0,0.0,0.0,0.0,0.0,0.0,0.0,0.0,0.0,0.0,0.0,0.0,-0.1058,-0.1841,-0.2347,-0.4455,-0.5786,-0.63,-0.63,-0.63,0.0,0.0,0.0,0.0,0.0,0.0029,0.0,0.0,0.0,0.0,0.0,0.0,0.0,0.0,0.0,0.0,0.0,0.0,0.0,0.0,0.0,0.0,0.0,0.0,0.0,0.0,0.1016,0.2923,0.3182,0.3762,0.4886,0.3762,0.2683,0.1918,0.0667,0.0,0.0,0.0,0.0,0.0,0.0,0.0,0.0,0.0,0.0,0.0,0.0,0.0,0.0,0.0,0.0,0.0,0.0,0.0,0.0,0.0,0.0,0.0,0.0,0.0,0.0,0.0,0.0,0.0,0.0,0.0,0.0,0.0,0.0,0.0,0.0,0.0,0.0,0.0,0.0,0.0,0.0,0.0,0.0,0.0,0.0,0.0,0.0,0.0,0.0,0.0,0.0,0.0,0.0,0.0,0.0,0.0,0.0,0.0,0.0,0.0,0.0,0.0,0.0,0.0,0.0,0.0,0.0,0.0,-0.0863,-0.1411,-0.1607,-0.3285,-0.4766,-0.5983,-0.6222,-0.63,0.0,0.0,0.0,0.0,0.0478,0.0,0.0,0.0,0.0,0.0,0.0,0.0,0.0,0.0,0.0,0.0,0.0,0.0,0.0,0.0,0.0,0.0,0.0,0.0,0.0,0.0,0.0,0.2815,0.3509,0.4472,0.5775,0.3973,0.2945,0.2927,0.1019,0.0,0.0,0.0,0.0,0.0,0.0,0.0,0.0,0.0,0.0,0.0,0.0,0.0,0.0,0.0,0.0,0.0,0.0,0.0,0.0,0.0,0.0,0.0,0.0,0.0,0.0,0.0,0.0,0.0,0.0,0.0,0.0,0.0,0.0,0.0,0.0,0.0,0.0,0.0,0.0,0.0,0.0,0.0,0.0,0.0,0.0,0.0,0.0,0.0,0.0,0.0,0.0,0.0,0.0,0.0,0.0,0.0,0.0,0.0,0.0,0.0,0.0,0.0,0.0,0.0,0.0,0.0,0.0,0.0,-0.0118,-0.0667,-0.1607,-0.1841,-0.2973,-0.4921,-0.5867,-0.63,0.0,0.0,0.0,0.0,0.0,0.0,0.0,0.0,0.0,0.0,0.0,0.0,0.0,0.0,0.0,0.0,0.0,0.0,0.0,0.0,0.0,0.0,0.0,0.0,0.0,0.0,0.0,0.0,0.0,0.451,0.5698,0.3932,0.2917,0.2984,0.105,0.0,0.0,0.0,0.0,0.0,0.0,0.0,0.0,0.0,0.0,0.0,0.0,0.0,0.0,0.0,0.0,0.0,0.0,0.0,0.0,0.0,0.0,0.0,0.0,0.0,0.0,0.0,0.0,0.0,0.0,0.0,0.0,0.0,0.0,0.0,0.0,0.0,0.0,0.0,0.0,0.0,0.0,0.0,0.0,0.0,0.0,0.0,0.0,0.0,0.0,0.0,0.0,0.0,0.0,0.0,0.0,0.0,0.0,0.0,0.0,0.0,0.0,0.0,0.0,0.0,0.0,0.0,0.0,0.0,0.0,-0.0236,-0.0667,-0.1293,-0.2036,-0.2934,-0.3947,-0.4766,0.2709,0.0,0.0,0.0,0.0,0.0,0.0,0.0,0.0,0.0,0.0,0.0,0.0,0.0,0.0,0.0,0.0,0.0,0.0,0.0,0.0,0.0,0.0,0.0,0.0,0.0,0.0,0.0,0.0,0.0,0.5484,0.4037,0.3233,0.3353,0.147,0.0588,0.0862,0.0275,0.0157,0.0432,0.0157,0.0,0.0,0.0,0.0,0.0,0.0,0.0,0.0,0.0,0.0,0.0,0.0,0.0,0.0,0.0,0.0,0.0,0.0,0.0,0.0,0.0,0.0,0.0,0.0,0.0,0.0,0.0,0.0,0.0,0.0,0.0,0.0,0.0,0.0,0.0,0.0,0.0,0.0,0.0,0.0,0.0,0.0,0.0,0.0,0.0,0.0,0.0,0.0,0.0,0.0,0.0,0.0,0.0,0.0,0.0,0.0,0.0,0.0,0.0,0.0,0.0,0.0,0.0,0.0,0.0,0.0,-0.0784,-0.1176,-0.1176,-0.2501,-0.3513,0.0,0.0,0.0,0.2533,0.0,0.0,0.0,0.0,0.0212,0.0,0.0,0.0,0.0,0.0,0.0,0.0,0.0,0.0,0.0,0.0,0.0,0.0,0.0,0.0,0.0,0.0,0.0,0.0,0.0,0.0,0.5338,0.4477,0.4115,0.4435,0.2549,0.2035,0.3007,0.1019,0.051,0.1528,0.051,0.0,0.0,0.0,0.0,0.0,0.0,0.0,0.0,0.0,0.0,0.0,0.0,0.0,0.0,0.0,0.0,0.0,0.0,0.0,0.0,0.0,0.0,0.0,0.0,0.0,0.0,0.0,0.0,0.0,0.0,0.0,0.0,0.0,0.0,0.0,0.0,0.0,0.0,0.0,0.0,0.0,0.0,0.0,0.0,0.0,0.0,0.0,0.0,0.0,0.0,0.0,0.0,0.0,0.0,0.0,0.0,0.0,0.0,0.0,0.0,0.0,0.0,0.0,0.0,0.0,0.0,-0.0039,-0.0039,-0.0118,-0.215,-0.3124,0.0,0.0,0.4615,0.3724,0.0,0.0,0.0,0.0,0.0,0.0,0.0,0.0,0.0,0.0,0.0,0.0,0.0,0.0,0.0,0.0,0.0,0.0,0.0,0.0,0.0,0.0,0.0,0.0,0.0,0.0,0.0,0.4038,0.3966,0.4148,0.2976,0.2517,0.2976,0.2254,0.2157,0.2579,0.1567,0.1058,0.1019,0.0306,0.0,0.0,0.0,0.0,0.0,0.0,0.0,0.0,0.0,0.0,0.0,0.0,0.0,0.0,0.0,0.0471,0.1058,0.1058,0.1527,0.1917,0.1254,0.1058,0.0902,0.0196,0.0,0.0,0.0,0.0,0.0,0.0,0.0,0.0,0.0,0.0,0.0,0.0,0.0,0.0,0.0,0.0,0.0,0.0,0.0,0.0,0.0,0.0,0.0,0.0,0.0,0.0,0.0,0.0,0.0,0.0,0.0,0.0,0.0,0.0,0.0,0.0,0.0,0.0,0.0,0.0,0.0,0.0,-0.0706,-0.1448,0.545,0.5573,0.0,0.0,0.4097,0.0,0.2755,0.0,0.0,0.0,0.0,0.0,0.0,0.0,0.0,0.0,0.0,0.0,0.0,0.0,0.0,0.0,0.0,0.0,0.0,0.0,0.0918,0.1458,0.0,0.0,0.0,0.0,0.4339,0.4498,0.3668,0.3475,0.3941,0.3198,0.3038,0.3465,0.2478,0.1984,0.1982,0.1264,0.0961,0.0968,0.0943,0.0769,0.0454,0.0454,0.0499,0.0549,0.0157,0.0236,0.051,0.0157,0.0235,0.0588,0.0588,0.1254,0.2152,0.2152,0.2579,0.2968,0.2347,0.2152,0.1996,0.1292,0.0862,0.0588,0.0588,0.0275,0.0,0.0,0.0,0.0,0.0,0.0,0.0,0.0,0.0,0.0,0.0,0.0,0.0,0.0,0.0,0.0,0.0,0.0,0.0,0.0,0.0,0.0,0.0,0.0,0.0,0.0,0.0,0.0,0.0,0.0,0.0,0.0,0.0,0.0,0.0,0.0,0.0,0.0,0.0,-0.0353]}]]